     2              OBSERVATION DATA    GPS                 RINEX VERSION / TYPE
ASRINEXO V2.4.4 UX USGS 06-FEB-98 12:10                     PGM / RUN BY / DATE
                                                            COMMENT
Original Marker Name: law2 LAPW2__3103_9_WBC_1976_USGS      COMMENT
Campaign Name: usgs.landers.pro                             COMMENT
4-Character Station Name: LAW2                              COMMENT
6-Character Antenna Code: DMRCHT                            COMMENT
Vertical Measurement Point: BCR                             COMMENT
Vertical Offset to Rinex Ref. Point: 0.0348                 COMMENT
Radial Measurement Point: ECF                               COMMENT
Radial Offset to Rinex Ref. Point: 0.1897                   COMMENT
Antenna Height from Field Measurement: 1.4080 m             COMMENT
Additional Antenna Identification Info.:                    COMMENT
Turborogue and Ashtech Choke Ring                           COMMENT
Original XYZ: -2357496.0860 -4703163.9177 3595139.6142      COMMENT
New XYZ position is based on association with SCEC monument COMMENT
E1F2J6K4+0011. Position of that monument is believed to be  COMMENT
valid to within 1 m horizontally; vertical accuracy         COMMENT
should be no worse than 3-times this value.                 COMMENT
                                                            COMMENT
Revised Rinex header created by UCSD GPS archive for        COMMENT
GSAC on 11-Nov-1999 (1999:315) 00:54:08 GMT                 COMMENT
For assistance contact dagnew@ucsd.edu or hjohnson@ucsd.edu COMMENT
                                                            COMMENT
LAW2 LAPW2__3103_9_WBC_1976_USGS                            MARKER NAME
CHS US GEOLOGICAL SURVEY                                    OBSERVER / AGENCY
597 ASHTECH Z-XII3 1E95                                     REC # / TYPE / VERS
330 DORNE-MARGOL. TYPE T                                    ANT # / TYPE
 -2357659.0000 -4703278.0000  3595250.0000                  APPROX POSITION XYZ
        1.3604        0.0000        0.0000                  ANTENNA: DELTA H/E/N
     1     1     0                                          WAVELENGTH FACT L1/2
     5    C1    L1    L2    P1    P2                        # / TYPES OF OBSERV
    30                                                      INTERVAL
  1998     1    27    16    54   30.000000                  TIME OF FIRST OBS
  1998     1    27    23    30   30.000000                  TIME OF LAST OBS
                                                            END OF HEADER
 98  1 27 16 54 30.0000000  0  4 14 16 18 19
  21314906.111      388894.65749    286438.11249  21314905.2984   21314910.6074
  20865559.784      217908.93249    158505.11149  20865558.4344   20865563.6944
  21745334.472      -47197.95049    -34309.01649  21745333.2194   21745337.5474
  22945801.727      -48544.13249    -35251.32149  22945800.9734   22945807.6664
 98  1 27 16 55  0.0000000  0  4 14 16 18 19
  21337231.816      506217.29749    377858.31849  21337230.8724   21337236.2954
  20877044.277      278260.62349    205532.38249  20877043.2144   20877048.2364
  21742227.889      -63522.05349    -47029.07349  21742226.9794   21742231.0564
  22942632.482      -65198.70449    -48228.87449  22942632.1964   22942638.1074
 98  1 27 16 55 30.0010000  0  5 14 16 18 19 22
  21359380.051      622606.98049    468551.53949  21359379.0004   21359384.5194
  20888366.954      337761.74049    251896.87249  20888365.5054   20888370.9604
  21738886.398      -81081.17749    -60711.48849  21738885.3134   21738889.7634
  22939228.585      -83087.66949    -62168.29649  22939227.4534   22939234.3494
  22123549.710      334280.63349    236385.58549  22123548.5964   22123553.5974
 98  1 27 16 56  0.0010000  0  5 14 16 18 19 22
  21381357.911      738101.26249    558547.04749  21381357.2344   21381362.4794
  20899539.099      396471.80049    297644.95449  20899537.8114   20899543.1754
  21735319.004      -99827.61049    -75319.08049  21735317.9334   21735322.5804
  22935598.895     -102161.98349    -77031.36349  22935598.1364   22935604.4644
  22144795.797      445932.12849    323386.74449  22144794.9774   22144799.9484
 98  1 27 16 56 30.0010000  0  5 14 16 18 19 22
  21403154.253      852641.55149    647799.18449  21403153.5254   21403158.8914
  20910554.111      454355.91549    342749.44249  20910552.8164   20910558.2804
  21731518.640     -119798.53149    -90880.82049  21731517.4044   21731522.3404
  22931734.188     -122471.63649    -92857.02949  22931733.6014   22931739.6114
  22165863.966      556644.41849    409656.06049  22165862.7734   22165867.6804
 98  1 27 16 57  0.0010000  0  5 14 16 18 19 22
  21424765.457      966208.81449    736293.12049  21424764.6944   21424770.0504
  20921409.841      511403.38149    387201.99849  20921408.6604   20921414.1374
  21727483.802     -141001.66349   -107402.72649  21727482.3774   21727487.0554
  22927633.156     -144023.25949   -109650.46249  22927631.9914   22927638.0944
  22186750.617      666403.70149    495182.77149  22186749.3734   22186754.0914
 98  1 27 16 57 30.0010000  0  5 14 16 18 19 22
  21446190.999     1078800.58549    824026.92849  21446190.1424   21446195.6654
  20932106.618      567615.06149    431003.29249  20932105.3754   20932110.9004
  21723212.813     -163445.75949   -124891.61649  21723211.8034   21723216.2594
  22923296.824     -166811.04949   -127407.14849  22923296.4824   22923302.0084
  22207456.159      775211.61049    579968.15649  22207454.8994   22207459.9124
 98  1 27 16 58  0.0010000  0  5 14 16 18 19 22
  21467454.469     1190540.71049    911097.11949  21467453.8214   21467459.0964
  20942670.386      623127.92649    474260.05249  20942669.3124   20942674.5994
  21718729.263     -187007.11449   -143251.10149  21718728.2874   21718732.8054
  22918751.850     -190695.11749   -146018.06649  22918751.0594   22918757.2134
  22228004.887      883195.80049    664111.67049  22228003.6334   22228008.8994
 98  1 27 16 58 30.0010000  0  5 14 16 18 19 22
  21488576.529     1301537.76549    997588.29449  21488575.8484   21488581.4114
  20953121.991      678051.28549    517057.45949  20953121.0064   20953126.2814
  21714055.088     -211570.09349   -162391.06449  21714053.9834   21714058.4984
  22914020.924     -215556.23649   -165390.32449  22914020.1844   22914025.7934
  22248420.720      990481.68249    747711.05849  22248419.3804   22248424.3254
 98  1 27 16 59  0.0010000  0  5 14 16 18 19 22
  21509562.605     1411820.25549   1083522.66449  21509561.6804   21509567.3024
  20963463.978      732398.44649    559405.87449  20963462.8274   20963468.2604
  21709191.956     -237125.85549   -182304.62949  21709190.7804   21709195.2804
  22909108.519     -241371.10949   -185505.76749  22909107.5154   22909113.7984
  22268707.653     1097090.09649    830782.54749  22268706.1564   22268711.6664
 98  1 27 16 59 30.0010000  0  5 14 16 18 19 22
  21530430.550     1521481.91549   1168973.26949  21530429.6944   21530435.5124
  20973715.234      786268.99249    601382.90649  20973714.1404   20973719.6334
  21704160.033     -263568.87949   -202909.56049  21704159.0934   21704163.6514
  22904033.235     -268042.10849   -206288.31449  22904032.4484   22904038.2674
  22288880.113     1203097.05049    913385.36749  22288878.8604   22288883.8964
 98  1 27 17  0  0.0010000  0  5 14 16 18 19 22
  21551191.428     1630581.04649   1253985.53649  21551190.6514   21551196.3264
  20983885.697      839714.90149    643029.05049  20983884.7194   20983890.1194
  21698975.037     -290816.49649   -224141.45149  21698973.9734   21698978.5404
  22898807.026     -295506.20549   -227688.87349  22898806.2264   22898812.3664
  22308949.210     1308560.31049    995564.52549  22308947.9274   22308952.9284
 98  1 27 17  0 30.0010000  0  5 14 16 18 19 22
  21571857.648     1739182.60949   1338610.09049  21571857.0544   21571862.5674
  20993985.251      892788.34549    684384.96049  20993984.0974   20993989.7354
  21693648.088     -318809.91449   -245954.48649  21693646.9014   21693651.3814
  22893439.131     -323714.55849   -249669.36649  22893438.1434   22893444.2104
  22328925.157     1413534.45149   1077362.54849  22328924.0284   22328928.9094
 98  1 27 17  1  0.0010000  0  6 14 29 16 18 19 22
  21592436.352     1847324.21549   1422876.23849  21592435.7384   21592441.2134
  24789624.083      357296.31649    257448.78849  24789623.0714   24789629.3314
  21004017.873      945510.17349    725466.88549  21004016.7724   21004022.1354
  21688185.798     -347514.41649   -268321.61949  21688184.9824   21688189.2944
  22887935.227     -352637.63849   -272206.79649  22887934.3134   22887939.7534
  22348811.817     1518039.37349   1158794.94849  22348810.5804   22348815.5444
 98  1 27 17  1 30.0010000  0  6 14 29 16 18 19 22
  21612932.001     1955029.34349   1506802.26849  21612931.3794   21612936.7164
  24811223.327      470807.91149    345899.29649  24811222.5484   24811229.5854
  21013988.590      997906.49949    766295.17249  21013987.5994   21013993.0304
  21682594.015     -376899.22949   -291218.86049  21682593.2834   21682597.5624
  22882299.203     -382254.87349   -295285.13849  22882297.9754   22882304.1484
  22368615.298     1622107.09049   1239886.66449  22368613.9714   22368618.7644
 98  1 27 17  2  0.0010000  0  6 14 29 16 18 19 22
  21633351.701     2062335.28649   1590417.24149  21633351.2634   21633356.6924
  24832697.687      583655.00949    433832.00349  24832696.8024   24832704.2194
  21023901.666     1049999.94849    806887.44849  21023900.6864   21023906.1344
  21676875.784     -406949.11349   -314634.34549  21676874.9224   21676879.4974
  22876534.102     -412550.51649   -318892.10449  22876532.5464   22876538.9274
  22388342.257     1725772.67049   1320665.02049  22388340.7944   22388345.7674
 98  1 27 17  2 30.0010000  0  6 14 29 16 18 19 22
  21653701.980     2169276.27449   1673747.83349  21653701.4144   21653707.0334
  24854046.518      695842.52449    521250.75349  24854046.0724   24854053.6834
  21033766.753     1101841.08249    847283.11649  21033765.7174   21033771.0424
  21671036.056     -437637.15949   -338547.09149  21671035.2344   21671039.5254
  22870646.064     -443491.73849   -343002.11749  22870645.4624   22870651.3724
  22407998.527     1829066.80249   1401153.93149  22407996.9574   22408002.2994
 98  1 27 17  3  0.0010000  0  7  3 14 29 16 18 19 22
  24914635.501     -102163.05749    -67569.88349  24914634.9974   24914642.0054
  21673985.256     2275865.03249   1756803.95949  21673984.7734   21673990.3194
  24875272.080      807382.82249    608165.17849  24875271.6484   24875277.8224
  21043588.433     1153454.32649    887501.20949  21043587.3084   21043592.7994
  21665081.115     -468930.58449   -362931.57449  21665080.3074   21665084.4984
  22864639.609     -475055.88049   -367597.53149  22864638.7004   22864644.7084
  22427588.202     1932011.15449   1481370.28949  22427586.7754   22427591.7394
 98  1 27 17  3 30.0010000  0  7  3 14 29 16 18 19 22
  24907754.111     -138330.27749    -95752.14149  24907752.5124   24907759.4044
  21694204.162     2382115.80849   1839596.72449  21694203.4054   21694208.9884
  24896376.966      918289.22549    694585.64849  24896376.2874   24896381.3794
  21053373.214     1204873.37349    927567.98049  21053372.1744   21053377.5974
  21659015.864     -500804.03949   -387768.02449  21659015.0264   21659019.4674
  22858518.842     -507220.76749   -392661.04749  22858518.2874   22858524.0014
  22447117.505     2034638.26149   1561339.43849  22447116.2154   22447121.1364
 98  1 27 17  4  0.0010000  0  7  3 14 29 16 18 19 22
  24900755.121     -175107.59749   -124409.79249  24900753.1074   24900760.8804
  21714359.948     2488034.68149   1922130.86449  21714359.0524   21714364.8024
  24917363.442     1028572.53749    780520.61049  24917362.4494   24917369.4724
  21063125.508     1256121.68449    967501.71149  21063124.4524   21063129.9664
  21652844.954     -533232.44649   -413036.90349  21652844.0084   21652848.3274
  22852288.433     -539961.78549   -418173.50449  22852287.5814   22852293.6634
  22466590.255     2136968.29949   1641077.10049  22466588.6044   22466593.9784
 98  1 27 17  4 30.0010000  0  7  3 14 29 16 18 19 22
  24893644.232     -212474.25449   -153526.69649  24893643.1394   24893650.8024
  21734449.256     2593604.54449   2004393.04349  21734448.8044   21734454.1534
  24938236.477     1138260.78949    865991.86349  24938236.7884   24938242.3954
  21072845.255     1307199.11049   1007302.28349  21072844.3534   21072849.8324
  21646568.962     -566213.11549   -438736.11549  21646567.8534   21646572.3384
  22845951.711     -573261.85349   -444121.58649  22845950.8674   22845956.7364
  22486007.138     2239004.52549   1720585.82549  22486005.7724   22486010.8144
 98  1 27 17  5  0.0010000  0  7  3 14 29 16 18 19 22
  24886424.596     -250413.33949   -183089.65449  24886423.2684   24886431.6604
  21754475.681     2698843.89949   2086397.68649  21754474.9404   21754480.3884
  24959000.664     1247378.00449    951018.15849  24959000.7134   24959007.3684
  21082531.499     1358100.46649   1046965.65749  21082530.4084   21082535.8234
  21640190.419     -599732.53049   -464855.13549  21640189.6184   21640194.1774
  22839512.111     -607101.91749   -470490.44149  22839511.3554   22839517.1464
  22505370.335     2340758.85349   1799874.88749  22505368.5884   22505374.0804
 98  1 27 17  5 30.0010000  0  7  3 14 29 16 18 19 22
  24879095.931     -288925.47449   -213099.13549  24879095.0514   24879102.2544
  21774442.578     2803770.39149   2168158.53949  21774441.8684   21774447.8084
  24979658.250     1355933.97849   1035607.12349  24979657.5534   24979666.0274
  21092186.856     1408839.42549   1086502.49149  21092185.7644   21092191.2824
  21633711.047     -633781.86049   -491387.07049  21633710.2344   21633714.9394
  22832973.721     -641461.66449   -497264.24449  22832972.7324   22832978.6044
  22524680.537     2442234.22349   1878946.57649  22524679.3594   22524684.2704
 98  1 27 17  6  0.0010000  0  7  3 14 29 16 18 19 22
  24871659.568     -328004.45249   -243550.31249  24871658.7894   24871665.6384
  21794353.224     2908401.14049   2249688.94249  21794352.6144   21794358.5554
  25000210.138     1463934.73749   1119763.46549  25000210.3654   25000217.3094
  21101814.536     1459433.11349   1125926.12549  21101813.2694   21101818.8034
  21627133.465     -668347.49249   -518321.32149  21627132.4884   21627137.1234
  22826341.413     -676314.66749   -524422.38949  22826340.7834   22826346.1184
  22543937.107     2543427.83149   1957798.71549  22543936.2884   22543941.3484
 98  1 27 17  6 30.0010000  0  7  3 14 29 16 18 19 22
  24864114.867     -367652.14349   -274444.62849  24864113.7324   24864122.3514
  21814212.910     3012764.22049   2331010.76949  21814212.3954   21814217.8934
  25020659.036     1571393.70749   1203497.63049  25020658.9984   25020666.2934
  21111417.437     1509896.70549   1165248.38749  21111416.3114   21111422.0064
  21620461.195     -703410.54949   -545643.17249  21620460.1874   21620464.4684
  22819618.543     -711643.70349   -551951.48549  22819617.1884   22819622.9924
  22563141.520     2644347.25849   2036437.19949  22563140.1834   22563145.4124
 98  1 27 17  7  0.0010000  0  7  3 14 29 16 18 19 22
  24856465.012     -407853.03049   -305770.00649  24856464.5284   24856470.7914
  21834026.637     3116885.87949   2412144.47849  21834025.8884   21834031.7204
  25041005.113     1678312.22149   1286810.64949  25041004.4134   25041012.4794
  21121000.776     1560257.30249   1204490.39049  21120999.5964   21121005.1274
  21613701.191     -738934.44949   -573324.11949  21613700.4674   21613704.5974
  22812807.479     -747435.85549   -579841.44149  22812806.8624   22812812.8644
  22582296.983     2745009.70149   2114875.44649  22582295.9324   22582300.7444
 98  1 27 17  7 30.0010000  0  7  3 14 29 16 18 19 22
  24848717.122     -448568.67449   -337496.47649  24848715.7924   24848723.3604
  21853796.681     3220777.87149   2493099.22349  21853795.7624   21853801.5774
  25061253.450     1784717.85249   1369724.03549  25061252.5764   25061261.2734
  21130572.252     1610555.59249   1243683.84049  21130571.1904   21130576.6354
  21606858.721     -774891.90149   -601342.90649  21606857.6744   21606862.0654
  22805913.190     -783665.48849   -608072.28449  22805912.9254   22805918.0174
  22601407.685     2845436.90549   2193130.38349  22601406.8024   22601411.2154
 98  1 27 17  8  0.0010000  0  6  3 14 16 18 19 22
  24840880.833     -489748.05049   -369584.26449  24840880.2964   24840884.9154
  21873526.059     3324456.18849   2573887.47049  21873525.3734   21873531.1164
  21140136.923     1660818.23249   1282849.51549  21140135.8584   21140141.4154
  21599938.644     -811257.00149   -629679.33649  21599937.7144   21599942.0854
  22798937.427     -820323.52049   -636636.94949  22798936.8144   22798942.5454
  22620479.409     2945659.24349   2271225.70049  22620478.1894   22620483.2624
 98  1 27 17  8 30.0010000  0  6  3 14 16 18 19 22
  24832961.339     -531364.68449   -402012.77849  24832959.5404   24832968.4184
  21893218.235     3427939.26249   2654523.57649  21893217.6014   21893223.3554
  21149696.888     1711055.82749   1321995.66749  21149695.9104   21149701.3344
  21592944.687     -848010.43749   -658318.36749  21592943.7964   21592948.3574
  22791881.075     -857404.79749   -665531.41449  22791880.4204   22791886.3344
  22639516.323     3045698.83949   2349178.61749  22639514.7404   22639520.2844
 98  1 27 17  9  0.0010000  0  6  3 14 16 18 19 22
  24824965.322     -573383.47249   -434754.65349  24824964.5254   24824972.7864
  21912875.064     3531236.59349   2735014.94749  21912874.3334   21912880.3864
  21159254.625     1761282.04549   1361132.95249  21159253.7734   21159259.1834
  21585879.229     -885139.73149   -687250.27249  21585878.2874   21585882.5644
  22784746.936     -894895.20149   -694744.68449  22784746.3184   22784752.5114
  22658521.992     3145574.52949   2427003.81149  22658520.8024   22658525.8224
 98  1 27 17  9 30.0010000  0  6  3 14 16 18 19 22
  24816893.653     -615800.04949   -467806.46849  24816892.0134   24816903.2314
  21932497.388     3634352.55649   2815364.99849  21932496.4994   21932502.8124
  21168807.324     1811481.57949   1400249.44949  21168806.2404   21168811.7704
  21578741.480     -922648.91249   -716478.18949  21578740.6794   21578745.0454
  22777532.900     -932804.91649   -724284.68449  22777531.9934   22777537.4544
  22677497.721     3245292.58149   2504706.17149  22677496.6764   22677501.2524
 98  1 27 17 10  0.0010000  0  6  3 14 16 18 19 22
  24808750.493     -658592.20649   -501150.95549  24808750.0404   24808757.3444
  21952091.138     3737318.10449   2895597.83649  21952090.4244   21952096.4314
  21178357.449     1861667.72449   1439355.51249  21178356.5194   21178361.9474
  21571537.234     -960507.43349   -745978.32349  21571536.4564   21571540.7214
  22770242.997     -971113.38349   -754135.39549  22770242.1494   22770247.9434
  22696448.313     3344878.54149   2582305.60149  22696447.1274   22696452.1114
 98  1 27 17 10 30.0010000  0  6  3 14 16 18 19 22
  24800536.062     -701759.25449   -534787.54949  24800536.3564   24800542.7374
  21971657.808     3840141.54649   2975719.94149  21971657.4284   21971663.2774
  21187902.331     1911826.34749   1478440.12749  21187901.2814   21187906.8944
  21564268.840     -998702.94649   -775741.04249  21564268.1684   21564272.3934
  22762881.061    -1009800.56449   -784281.21349  22762879.9964   22762885.6674
  22715374.752     3444337.56849   2659806.12349  22715373.5644   22715377.9704
 98  1 27 17 11  0.0010000  0  6  3 14 16 18 19 22
  24792253.646     -745284.18449   -568703.01449  24792253.0904   24792260.6004
  21991196.488     3942817.37849   3055727.02449  21991195.9824   21991201.6734
  21197444.496     1961970.64949   1517513.58249  21197443.4054   21197448.9794
  21556940.318    -1037214.53749   -805750.06249  21556939.4114   21556943.9454
  22755450.538    -1048848.06649   -814707.79949  22755449.7004   22755455.2454
  22734277.621     3543672.88049   2737210.23949  22734276.2584   22734281.1744
 98  1 27 17 11 30.0010000  0  6  3 14 16 18 19 22
  24783906.155     -789151.06449   -602884.92349  24783905.3994   24783912.0144
  22010710.915     4045365.93949   3135634.94149  22010710.6424   22010716.2664
  21206988.767     2012125.94549   1556595.60349  21206987.7784   21206993.2004
  21549556.725    -1076015.79949   -835984.79749  21549555.9434   21549560.2894
  22747955.765    -1088233.45449   -845397.67249  22747954.5594   22747960.1544
  22753156.686     3642883.03549   2814516.83749  22753155.5684   22753160.8764
 98  1 27 17 12  0.0010000  0  6  3 14 16 18 19 22
  24775494.864     -833353.01049   -637327.90749  24775494.0324   24775501.2834
  22030200.018     4147781.63049   3215439.31549  22030199.7304   22030205.3784
  21216539.155     2062313.37449   1595702.66749  21216538.2364   21216543.7464
  21542118.383    -1115104.70549   -866443.67249  21542117.7624   21542122.0924
  22740401.531    -1127930.72449   -876330.56449  22740400.5384   22740407.0264
  22772009.358     3741954.11149   2891715.05649  22772008.5574   22772013.4784
 98  1 27 17 12 30.0010000  0  6  3 14 16 18 19 22
  24767020.673     -877885.17549   -672028.21649  24767019.8594   24767027.1654
  22049664.197     4250066.12249   3295141.45549  22049663.7254   22049669.4334
  21226100.382     2112557.81449   1634854.15049  21226099.4874   21226104.9624
  21534627.644    -1154468.66149   -897116.87149  21534627.0584   21534631.0494
  22732791.081    -1167923.81249   -907493.97149  22732790.6664   22732796.4074
  22790837.496     3840896.33749   2968812.87749  22790836.0034   22790841.3614
 98  1 27 17 13  0.0010000  0  6  3 14 16 18 19 22
  24758488.342     -922723.25049   -706966.89049  24758487.8564   24758494.9734
  22069105.401     4352230.07049   3374749.67149  22069104.7574   22069110.7024
  21235677.172     2162883.99349   1674069.32949  21235676.2374   21235681.7214
  21527086.700    -1194096.47549   -927995.67749  21527086.1384   21527090.3414
  22725126.681    -1208200.54349   -938878.39649  22725125.9034   22725131.2524
  22809644.880     3939729.60649   3045825.80049  22809643.4524   22809648.8184
 98  1 27 17 13 30.0010000  0  6  3 14 16 18 19 22
  24749900.723     -967851.46249   -742131.63249  24749899.2214   24749906.6254
  22088527.623     4454294.15449   3454280.06649  22088527.2014   22088532.6684
  21245270.137     2213295.35149   1713350.88149  21245268.9964   21245274.7104
  21519495.601    -1233988.09349   -959080.03749  21519494.7644   21519499.2434
  22717408.347    -1248760.83749   -970483.78049  22717407.6864   22717413.6484
  22828435.865     4038476.89149   3122771.72149  22828435.0134   22828440.0364
 98  1 27 17 14  0.0010000  0  6  3 14 16 18 19 22
  24741261.726    -1013248.20649   -777505.60649  24741259.8324   24741267.8124
  22107931.252     4556260.69049   3533734.44849  22107930.6684   22107936.2174
  21254881.707     2263804.42349   1752708.57249  21254880.6724   21254886.5224
  21511856.616    -1274131.19649   -990360.36649  21511855.8124   21511860.2494
  22709639.043    -1289589.03249  -1002297.92149  22709637.9354   22709643.8394
  22847217.262     4137173.73949   3199678.33349  22847216.3214   22847220.6394
 98  1 27 17 14 30.0010000  0  6  3 14 16 18 19 22
  24732577.589    -1058882.36849   -813064.57649  24732575.7144   24732583.1694
  22127321.010     4658154.35949   3613132.04649  22127320.4954   22127326.3974
  21264513.560     2314420.00849   1792149.25949  21264512.7044   21264518.1664
  21504174.069    -1314503.20249  -1021819.06149  21504173.1214   21504177.4274
  22701819.958    -1330678.38349  -1034315.56949  22701818.8384   22701824.7064
  22865993.226     4235841.89549   3276562.58949  22865992.1134   22865997.0074
 98  1 27 17 15  0.0010000  0  6  3 14 16 18 19 22
  24723853.273    -1104727.93849   -848788.27749  24723852.0234   24723859.1404
  22146700.450     4759993.69849   3692487.30949  22146699.9794   22146705.3144
  21274166.535     2365146.52449   1831676.38649  21274165.6624   21274171.0254
  21496449.572    -1355095.65749  -1053449.53049  21496448.6384   21496453.0744
  22693951.024    -1372029.52949  -1066537.20449  22693950.0354   22693955.8554
  22884764.106     4334483.36349   3353426.04449  22884763.0184   22884767.6584
 98  1 27 17 15 30.0010000  0  6  3 14 16 18 19 22
  24715094.488    -1150755.12249   -884653.48649  24715093.9464   24715100.7474
  22166079.629     4861831.61149   3771841.46249  22166079.1634   22166085.0914
  21283851.455     2416040.87849   1871334.29249  21283850.6374   21283856.1954
  21488693.561    -1395853.96849  -1085209.23849  21488692.7984   21488697.3154
  22686040.408    -1413599.77749  -1098929.57749  22686039.1724   22686045.0674
  22903533.086     4433115.19649   3430281.99349  22903532.1554   22903537.0634
 98  1 27 17 16  0.0010000  0  6  3 14 16 18 19 22
  24706304.197    -1196947.89949   -920647.74549  24706303.2224   24706311.3674
  22185460.686     4963679.62849   3851203.48149  22185460.0264   22185465.8514
  21293572.373     2467124.49549   1911139.67349  21293571.4674   21293576.8324
  21480911.346    -1436749.54949  -1117075.91749  21480910.5154   21480915.0014
  22678094.150    -1455357.28249  -1131467.87349  22678093.5334   22678098.7154
  22922298.799     4531729.72649   3507124.44549  22922297.6944   22922302.7024
 98  1 27 17 16 30.0010000  0  6  3 14 16 18 19 22
  24697487.206    -1243280.96549   -956751.33349  24697486.1464   24697493.1374
  22204847.763     5065559.10249   3930590.01949  22204847.6044   22204852.8504
  21303329.895     2518400.35649   1951094.86349  21303328.8124   21303334.3844
  21473109.229    -1477749.82049  -1149024.16849  21473108.5364   21473113.1264
  22670114.702    -1497289.47149  -1164142.27049  22670113.9274   22670119.8214
  22941061.057     4630325.87949   3583952.59249  22941060.5344   22941064.9474
 98  1 27 17 17  0.0010000  0  6  3 14 16 18 19 22
  24688643.188    -1289756.68849   -992966.07149  24688642.2694   24688649.1464
  22224239.599     5167463.53149   4009995.99849  22224238.9304   22224244.7364
  21313126.857     2569883.63049   1991211.67449  21313125.7904   21313131.4794
  21465288.550    -1518847.77249  -1181048.53749  21465287.7904   21465292.2394
  22662104.311    -1539384.41549  -1196943.49849  22662103.7724   22662108.9964
  22959820.525     4728907.25349   3660769.20949  22959818.9084   22959824.4314
 98  1 27 17 17 30.0010000  0  6  3 14 16 18 19 22
  24679773.331    -1336367.94449  -1029286.43549  24679772.6394   24679779.0654
  22243634.595     5269384.70749   4089415.02449  22243634.0034   22243639.9024
  21322964.184     2621579.16349   2031493.88149  21322963.0604   21322968.8324
  21457451.042    -1560034.08149  -1213141.75549  21457450.0764   21457454.5344
  22654066.425    -1581624.02949  -1229857.44749  22654065.7374   22654071.2624
  22978577.698     4827476.73749   3737576.55849  22978576.5624   22978581.4534
 98  1 27 17 18  0.0010000  0  6  3 14 16 18 19 22
  24670881.346    -1383095.80049  -1065697.65849  24670881.1844   24670887.7784
  22263030.794     5371312.20649   4168838.98449  22263030.3654   22263036.3094
  21332840.045     2673477.16649   2071933.86049  21332839.0334   21332844.6704
  21449597.152    -1601306.44849  -1245302.02849  21449596.2934   21449600.7544
  22646002.569    -1623999.80349  -1262877.49449  22646002.1294   22646007.3534
  22997336.516     4926054.59449   3814390.44249  22997335.4464   22997340.3434
 98  1 27 17 18 30.0010000  0  6  3 14 16 18 19 22
  24661965.385    -1429949.42549  -1102206.89049  24661964.5474   24661970.8424
  22282427.364     5473241.57549   4248264.39349  22282427.1774   22282432.9144
  21342753.874     2725574.70949   2112529.32049  21342753.1094   21342758.6544
  21441726.175    -1642668.67249  -1277532.32649  21441725.4824   21441730.0014
  22637908.660    -1666533.55949  -1296020.64649  22637907.8534   22637913.0204
  23016099.331     5024653.67449   3891220.84949  23016097.8374   23016103.4654
 98  1 27 17 19  0.0010000  0  6  3 14 16 18 19 22
  24653027.293    -1476919.19249  -1138806.62949  24653026.4154   24653033.0824
  22301827.847     5575191.31849   4327705.68549  22301827.3164   22301833.5664
  21352711.036     2777899.73749   2153302.04249  21352710.1164   21352715.9524
  21433840.730    -1684106.83349  -1309821.79449  21433840.0114   21433844.5654
  22629788.503    -1709205.06249  -1329271.13049  22629787.5244   22629793.3184
  23034869.092     5123289.03949   3968079.53649  23034868.5324   23034873.3264
 98  1 27 17 19 30.0010000  0  6  3 14 16 18 19 22
  24644074.286    -1523967.32949  -1175467.44649  24644072.7234   24644079.9544
  22321237.413     5677188.87249   4407184.22649  22321236.7794   22321242.8804
  21362711.483     2830452.18149   2194251.97249  21362710.7134   21362716.1264
  21425947.785    -1725584.58549  -1342142.11349  21425947.0464   21425951.4424
  22621644.861    -1752000.02449  -1362617.81949  22621643.8124   22621649.4084
  23053650.835     5221987.59649   4044987.45649  23053649.9604   23053655.3624
 98  1 27 17 20  0.0010000  0  6  3 14 16 18 19 22
  24635107.837    -1571085.95549  -1212183.18449  24635106.6514   24635114.3664
  22340656.636     5779237.29249   4486702.40749  22340656.5554   22340662.6544
  21372753.879     2883224.95649   2235373.58849  21372753.0414   21372758.6594
  21418050.192    -1767086.76349  -1374481.46949  21418049.3734   21418053.8134
  22613476.678    -1794923.98449  -1396065.02549  22613475.9664   22613481.6354
  23072447.063     5320762.26649   4121954.69449  23072445.8984   23072450.6364
 98  1 27 17 20 30.0010000  0  6  3 14 16 18 19 22
  24626131.002    -1618259.11349  -1248941.41849  24626130.6254   24626136.9414
  22360087.145     5881344.91649   4566266.71749  22360086.8244   22360092.6384
  21382839.293     2936223.75549   2276671.32749  21382838.2994   21382843.9944
  21410148.342    -1808611.43249  -1406838.34549  21410147.6834   21410152.1774
  22605285.037    -1837971.24349  -1429608.30249  22605284.1674   22605289.9264
  23091257.760     5419612.82349   4198981.06549  23091256.3764   23091261.9724
 98  1 27 17 21  0.0010000  0  6  3 14 16 18 19 22
  24617146.955    -1665470.38649  -1285729.36249  24617145.0954   24617153.0914
  22379527.949     5983506.63049   4645873.17749  22379527.5854   22379533.4504
  21392966.601     2989443.00649   2318140.84649  21392965.6484   21392971.1914
  21402239.958    -1850170.23949  -1439221.82849  21402239.1884   21402243.6154
  22597072.739    -1881127.35749  -1463236.40349  22597072.4024   22597077.4204
  23110082.111     5518535.21449   4276063.40649  23110081.2744   23110086.3724
 98  1 27 17 21 30.0010000  0  6  3 14 16 18 19 22
  24608161.430    -1712689.27149  -1322523.23149  24608159.7464   24608166.9364
  22398981.518     6085735.45749   4725531.93849  22398980.8184   22398986.7144
  21403139.913     3042904.15449   2359798.85849  21403138.8654   21403144.5934
  21394327.716    -1891749.36649  -1471621.14249  21394327.0064   21394331.3784
  22588842.978    -1924374.95449  -1496935.78649  22588842.3204   22588847.4204
  23128925.734     5617558.71549   4353224.53549  23128924.9984   23128930.0284
 98  1 27 17 22  0.0010000  0  6  3 14 16 18 19 22
  24599171.702    -1759930.36349  -1359334.41149  24599170.7384   24599177.8554
  22418446.224     6188023.07049   4805236.49649  22418445.6234   22418452.0684
  21413362.062     3096621.89149   2401656.81149  21413360.9494   21413366.8044
  21386406.634    -1933375.03949  -1504056.72449  21386405.9494   21386410.1794
  22580596.681    -1967709.83849  -1530703.18749  22580595.8694   22580601.0004
  23147784.437     5716661.55449   4430447.48849  23147783.3534   23147788.3094
 98  1 27 17 22 30.0010000  0  6  3 14 16 18 19 22
  24590179.278    -1807185.74549  -1396156.74649  24590177.8644   24590186.2694
  22437923.547     6290376.79349   4884992.56949  22437923.3494   22437929.5324
  21423636.438     3150614.01449   2443728.56949  21423635.6464   21423641.1554
  21378476.670    -1975047.42149  -1536528.70449  21378475.8994   21378480.3694
  22572336.983    -2011114.65649  -1564525.08549  22572335.8674   22572341.0474
  23166655.910     5815831.88849   4507723.03349  23166654.5094   23166660.4284
 98  1 27 17 23  0.0010000  0  6  3 14 16 18 19 22
  24581181.051    -1854471.39649  -1433002.67049  24581180.1634   24581187.5504
  22457411.365     6392785.61649   4964791.58049  22457411.0584   22457416.8024
  21433963.985     3204885.26049   2486017.82449  21433963.1064   21433968.7734
  21370541.578    -2016746.74449  -1569021.67749  21370540.7824   21370545.2364
  22564063.219    -2054593.38049  -1598404.57149  22564062.1954   22564067.7174
  23185539.238     5915064.10949   4585046.79749  23185538.0764   23185543.6434
 98  1 27 17 23 30.0010000  0  6  3 14 16 18 19 22
  24572176.984    -1901787.57349  -1469872.39349  24572176.2564   24572183.3144
  22476910.536     6495254.13449   5044637.10549  22476909.9494   22476916.3584
  21444345.522     3259440.43349   2528528.31949  21444344.7694   21444350.1904
  21362608.768    -2058433.99849  -1601505.25149  21362607.9444   21362612.2414
  22555776.862    -2098138.70849  -1632335.96749  22555776.0214   22555780.9944
  23204435.251     6014362.68149   4662422.26849  23204434.2644   23204439.7604
 98  1 27 17 24  0.0010000  0  6  3 14 16 18 19 22
  24563170.586    -1949116.38149  -1506751.95349  24563169.4724   24563177.0284
  22496425.885     6597807.68949   5124548.90049  22496425.2694   22496431.5324
  21454783.122     3314290.11549   2571268.30549  21454782.1034   21454787.8464
  21354686.236    -2100067.50449  -1633946.93849  21354685.5094   21354689.8704
  22547483.812    -2141718.82049  -1666294.45649  22547482.9824   22547488.1894
  23223347.104     6113744.68749   4739862.76249  23223345.8924   23223350.2594
 98  1 27 17 24 30.0010000  0  6  3 14 16 18 19 22
  24554158.313    -1996475.98849  -1543655.53249  24554158.1604   24554164.6814
  22515951.969     6700417.63249   5204504.62549  22515951.3514   22515957.8384
  21465270.857     3369403.16449   2614213.50749  21465269.8634   21465275.5864
  21346772.983    -2141652.00149  -1666350.43449  21346772.2474   21346776.5894
  22539178.320    -2185364.14549  -1700303.76949  22539177.5624   22539182.7044
  23242272.822     6213199.94449   4817360.32949  23242272.5104   23242276.2534
 98  1 27 17 25  0.0010000  0  6  3 14 16 18 19 22
  24545148.659    -2043822.44249  -1580548.87949  24545148.9474   24545154.5854
  22535495.576     6803119.67549   5284532.12149  22535495.1814   22535501.4504
  21475813.354     3424804.16649   2657383.09249  21475812.5144   21475818.2854
  21338875.850    -2183151.92649  -1698688.03349  21338874.9944   21338879.2654
  22530866.649    -2229041.91449  -1734338.36349  22530865.6664   22530871.3604
  23261222.275     6312779.55649   4894954.78749  23261221.3424   23261226.9294
 98  1 27 17 25 30.0010000  0  6  3 14 16 18 19 22
  24536145.233    -2091136.45049  -1617416.93349  24536144.1114   24536150.9594
  22555057.742     6905919.20149   5364635.57649  22555057.3294   22555063.6904
  21486408.374     3480481.27849   2700767.82749  21486407.3904   21486413.1714
  21330989.177    -2224596.83149  -1730982.75849  21330988.4144   21330992.6104
  22522548.089    -2272756.10749  -1768401.34049  22522547.1454   22522552.5264
  23280194.351     6412478.09249   4972641.93449  23280192.9284   23280198.4464
 98  1 27 17 26  0.0010000  0  6  3 14 16 18 19 22
  24527154.343    -2138384.28049  -1654233.41849  24527153.5754   24527159.9284
  22574640.516     7008826.86949   5444823.29749  22574640.0124   22574646.6594
  21497060.381     3536457.68849   2744385.77749  21497059.3454   21497065.1024
  21323111.398    -2265995.06649  -1763241.12049  21323110.4984   21323114.7864
  22514223.029    -2316504.91149  -1802491.29049  22514222.4484   22514227.6054
  23299189.224     6512296.78249   5050422.69449  23299188.2584   23299193.3884
 98  1 27 17 26 30.0010000  0  6  3 14 16 18 19 22
  24518179.158    -2185549.53649  -1690985.55849  24518176.8294   24518183.7284
  22594243.866     7111842.78449   5525095.37049  22594243.1414   22594249.7604
  21507771.997     3592747.46449   2788247.91349  21507771.0204   21507776.7014
  21315240.281    -2307358.13349  -1795472.07349  21315239.2974   21315243.5814
  22505891.342    -2360288.16549  -1836608.06949  22505890.2264   22505895.6094
  23318206.710     6612234.47749   5128296.20049  23318205.4424   23318210.8824
 98  1 27 17 27  0.0010000  0  6  3 14 16 18 19 22
  24509215.686    -2232652.06749  -1727688.80349  24509212.9454   24509220.6584
  22613863.255     7214942.94049   5605433.07749  22613863.0884   22613869.4204
  21518538.385     3649325.04749   2832334.31149  21518537.5864   21518543.2974
  21307372.093    -2348705.68749  -1827690.94449  21307371.4244   21307375.6524
  22497549.296    -2404125.87049  -1870767.28449  22497548.3814   22497553.8924
  23337240.806     6712259.17349   5206237.47849  23337240.0454   23337244.7614
 98  1 27 17 27 30.0010000  0  6  3 14 16 18 19 22
  24500271.847    -2279651.53349  -1764311.75649  24500269.0274   24500277.2524
  22633505.353     7318162.57649   5685863.89949  22633504.9214   22633510.9464
  21529370.869     3706249.71549   2876691.16449  21529369.9874   21529375.5434
  21299515.659    -2389991.68449  -1859861.84349  21299515.0034   21299519.0964
  22489204.003    -2447980.61249  -1904939.77249  22489203.2994   22489208.5644
  23356294.284     6812385.65749   5284258.08849  23356293.2654   23356298.3744
 98  1 27 17 28  0.0010000  0  6  3 14 16 18 19 22
  24491347.044    -2326550.54549  -1800856.39549  24491346.6044   24491354.0124
  22653170.710     7421504.17949   5766389.75149  22653170.3474   22653176.8164
  21540271.572     3763533.04249   2921327.48849  21540270.6814   21540276.1924
  21291673.909    -2431200.21249  -1891972.38049  21291673.0614   21291677.4614
  22480858.667    -2491835.32249  -1939112.24849  22480858.0064   22480863.0754
  23375368.952     6912623.67349   5362365.59549  23375368.1594   23375373.1674
 98  1 27 17 28 30.0010000  0  7  3 14 16 31 18 19 22
  24482440.919    -2373352.70049  -1837325.56249  24482440.2794   24482447.0104
  22672860.477     7524974.07649   5847015.57249  22672860.0864   22672866.2004
  21551240.708     3821176.08749   2966244.11549  21551239.7574   21551245.4134
  25207592.261    -4228629.95649  -3289031.04249  25207592.4274   25207600.1514
  21283850.447    -2472312.71949  -1924008.09149  21283849.4684   21283853.9664
  22472517.733    -2535667.41949  -1973267.08949  22472516.5814   22472522.2694
  23394468.399     7012992.09149   5440574.71849  23394467.6074   23394472.1724
 98  1 27 17 29  0.0010000  0  7  3 14 16 31 18 19 22
  24473554.228    -2420052.80949  -1873715.21849  24473553.5014   24473560.1484
  22692573.190     7628564.74549   5927735.50249  22692572.6994   22692578.9364
  21562276.901     3879171.57549   3011435.37449  21562275.9874   21562281.5244
  25192231.591    -4309350.66449  -3351930.09349  25192229.6524   25192238.9684
  21276047.802    -2513315.91749  -1955958.62449  21276046.9794   21276051.2484
  22464181.020    -2579476.98349  -2007404.37649  22464180.1324   22464185.4414
  23413591.099     7113482.52749   5518878.91949  23413589.7494   23413595.1534
 98  1 27 17 29 30.0010000  0  7  3 14 16 31 18 19 22
  24464689.570    -2466637.16249  -1910014.66049  24464689.3284   24464695.3914
  22712310.412     7732284.21049   6008555.80149  22712309.6554   22712315.8124
  21573379.018     3937513.29649   3056896.42249  21573378.0514   21573383.7984
  25176826.995    -4390302.06249  -3415008.88649  25176825.5964   25176833.7964
  21268266.411    -2554207.36849  -1987822.08649  21268265.5664   21268269.9444
  22455849.912    -2623256.79649  -2041518.48549  22455848.8994   22455854.5314
  23432738.155     7214100.62849   5597282.60649  23432736.7744   23432742.1964
 98  1 27 17 30  0.0010000  0  7  3 14 16 31 18 19 22
  24455849.028    -2513094.79449  -1946215.35749  24455848.0594   24455854.8574
  22732076.003     7836153.16749   6089492.58149  22732075.3024   22732081.4334
  21584544.742     3996189.30349   3102617.95449  21584543.5814   21584549.4284
  25161384.029    -4471455.02249  -3478244.76249  25161382.2084   25161391.9664
  21260512.102    -2594956.40549  -2019574.57249  21260511.2244   21260515.5554
  22447528.456    -2666986.07349  -2075593.21249  22447527.8604   22447533.4714
  23451917.303     7314887.33349   5675817.66849  23451916.0864   23451921.3554
 98  1 27 17 30 30.0010000  0  7  3 14 16 31 18 19 22
  24447033.792    -2559419.91549  -1982312.78949  24447032.9314   24447039.6264
  22751868.803     7940164.65349   6170540.42649  22751868.1394   22751874.3294
  21595772.783     4055192.86849   3148594.72649  21595771.9184   21595777.5334
  25145905.772    -4552793.04449  -3541624.86149  25145905.0024   25145912.7944
  21252788.469    -2635544.44449  -2051201.60649  21252787.8214   21252792.1454
  22439215.265    -2710672.19549  -2109634.30849  22439214.5854   22439220.0324
  23471125.959     7415829.33149   5754473.75449  23471124.3894   23471130.0514
 98  1 27 17 31  0.0020000  0  7  3 14 16 31 18 19 22
  24438245.016    -2605605.39649  -2018301.40649  24438243.7964   24438250.0234
  22771689.710     8044324.02749   6251703.50449  22771689.4574   22771695.3324
  21607063.329     4114524.71449   3194827.30049  21607062.4324   21607068.1294
  25130390.479    -4634326.76949  -3605157.47249  25130389.3334   25130397.8914
  21245094.769    -2675975.07949  -2082705.98849  21245094.0374   21245098.3704
  22430907.233    -2754331.39949  -2143654.43049  22430906.3474   22430911.6454
  23490362.562     7516918.09349   5833244.19049  23490361.6814   23490365.7264
 98  1 27 17 31 30.0020000  0  7  3 14 16 31 18 19 22
  24429488.444    -2651621.67249  -2054158.19549  24429487.2784   24429492.6774
  22791542.990     8148653.72549   6332999.30149  22791542.3144   22791548.7464
  21618422.489     4174217.29049   3241340.95949  21618421.7784   21618427.3484
  25114844.547    -4716020.57049  -3668814.84049  25114842.9664   25114851.7174
  21237436.766    -2716218.19449  -2114064.25149  21237435.8994   21237440.4364
  22422609.894    -2797934.44349  -2177630.80049  22422609.2014   22422614.3684
  23509633.251     7618185.84749   5912154.09549  23509631.9204   23509637.4734
 98  1 27 17 32  0.0020000  0  7  3 14 16 31 18 19 22
  24420762.440    -2697476.48049  -2089889.14149  24420761.3394   24420766.7434
  22811425.078     8253134.92849   6414413.16249  22811424.1604   22811431.0184
  21629853.215     4234286.06349   3288147.76049  21629852.1154   21629857.7964
  25099266.358    -4797883.98949  -3732604.39149  25099264.3114   25099272.8844
  21229811.772    -2756287.73749  -2145287.26349  21229810.8284   21229815.1504
  22414320.453    -2841495.69949  -2211574.60449  22414319.9394   22414324.9264
  23528934.902     7719616.47549   5991190.90549  23528933.4884   23528939.2214
 98  1 27 17 32 30.0020000  0  7  3 14 16 31 18 19 22
  24412078.893    -2743108.47649  -2125446.47149  24412078.0004   24412083.5414
  22831340.079     8357788.72349   6495961.50749  22831339.8224   22831345.8894
  21641367.329     4294792.77749   3335295.81349  21641366.2744   21641372.1314
  25083661.188    -4879888.97149  -3796504.25149  25083660.6234   25083668.1524
  21222223.569    -2796163.97349  -2176359.65049  21222222.7814   21222227.1014
  22406044.777    -2884984.79749  -2245462.18049  22406043.5394   22406049.1524
  23548269.675     7821221.16549   6070363.36049  23548268.8134   23548274.7114
 98  1 27 17 33  0.0020000  0  7  3 14 16 31 18 19 22
  24403436.019    -2788526.36249  -2160836.96149  24403435.3134   24403440.7804
  22851284.762     8462598.50149   6577631.39949  22851284.8054   22851290.5024
  21652961.306     4355719.37549   3382771.04749  21652960.2084   21652966.1114
  25068025.086    -4962056.66949  -3860530.90549  25068023.5384   25068032.1634
  21214667.242    -2835872.71549  -2207301.51949  21214666.4824   21214670.9034
  22397781.305    -2928409.42849  -2279299.52149  22397780.4194   22397786.1064
  23567637.413     7922999.11649   6149670.81549  23567636.3354   23567641.5144
 98  1 27 17 33 30.0020000  0  7  3 14 16 31 18 19 22
  24394834.874    -2833725.18449  -2196056.75449  24394834.1784   24394840.0884
  22871258.058     8567558.37649   6659418.25349  22871257.8184   22871264.4984
  21664633.831     4417058.77049   3430567.94549  21664632.8674   21664638.5644
  25052360.509    -5044373.65849  -3924673.88249  25052359.2634   25052367.8594
  21207144.535    -2875404.85649  -2238105.77249  21207143.7904   21207148.0884
  22389531.872    -2971760.49949  -2313079.53849  22389531.1804   22389536.2654
  23587037.691     8024947.80249   6229111.29949  23587035.4854   23587042.1494
 98  1 27 17 34  0.0020000  0  8  3 14 16 31 18 19 27 22
  24386272.808    -2878718.77049  -2231116.61349  24386271.9554   24386278.4664
  22891257.508     8672655.72149   6741312.22149  22891256.5534   22891263.4554
  21676379.272     4478781.33149   3478663.41349  21676378.1364   21676383.8184
  25036664.940    -5126853.93549  -3988944.10749  25036663.0894   25036672.7624
  21199653.962    -2914768.27149  -2268778.55749  21199652.9364   21199657.1154
  22381294.763    -3015047.03249  -2346809.27149  22381293.7534   22381299.0674
  25647239.391    -3059961.03259  -2238851.20959  25647237.7074   25647246.4334
  23606464.386     8127035.78649   6308660.33249  23606463.2664   23606468.3034
 98  1 27 17 34 30.0020000  0  8  3 14 16 31 18 19 27 22
  24377754.553    -2923482.22549  -2265997.17449  24377753.9524   24377760.1794
  22911291.073     8777932.37449   6823345.91349  22911290.3044   22911297.0044
  21688199.247     4540895.56049   3527064.07549  21688198.3834   21688203.8014
  25020944.461    -5209464.63249  -4053315.93449  25020942.9924   25020952.0964
  21192205.577    -2953909.68949  -2299278.35249  21192204.5024   21192209.0584
  22373077.130    -3058230.74849  -2380458.87949  22373076.1424   22373081.3674
  25634252.439    -3128208.42549  -2292030.89549  25634251.9574   25634259.5274
  23625924.990     8229301.97949   6388348.22349  23625923.4844   23625929.1604
 98  1 27 17 35  0.0020000  0  8  3 14 16 31 18 19 27 22
  24369275.949    -2968037.34649  -2300715.38249  24369275.6724   24369282.6344
  22931359.596     8883392.60249   6905522.64949  22931358.9214   22931365.5304
  21700088.948     4603376.15649   3575750.22049  21700087.9424   21700093.6864
  25005199.045    -5292206.55549  -4117790.00949  25005197.5024   25005205.9584
  21184802.679    -2992812.20649  -2329591.99249  21184801.7874   21184806.3164
  22364878.465    -3101314.76849  -2414030.81149  22364877.6274   22364883.0074
  25621252.476    -3196523.65849  -2345263.43049  25621250.5274   25621260.3784
  23645420.390     8331751.12849   6468178.67449  23645419.5274   23645425.2554
 98  1 27 17 35 30.0020000  0  8  3 14 16 31 18 19 27 22
  24360837.400    -3012382.30449  -2335269.84049  24360836.7544   24360843.0054
  22951463.262     8989037.80649   6987843.52049  22951462.9734   22951469.7654
  21712049.583     4666229.54249   3624726.85249  21712048.5824   21712054.4984
  24989430.526    -5375070.25349  -4182358.95149  24989429.3784   24989437.3454
  21177448.641    -3031457.93749  -2359705.53449  21177447.8484   21177452.2724
  22356697.568    -3144305.39349  -2447529.95949  22356696.2614   22356701.6164
  25608243.229    -3264886.39949  -2398532.96749  25608241.6334   25608250.3844
  23664948.705     8434372.89749   6548143.63849  23664947.7084   23664952.9724
 98  1 27 17 36  0.0020000  0  8  3 14 16 31 18 19 27 22
  24352442.739    -3056496.47549  -2369644.46149  24352442.2354   24352448.4584
  22971606.104     9094888.60449   7070324.58849  22971605.4884   22971611.9864
  21724087.449     4729488.97849   3674019.88249  21724086.2984   21724092.1874
  24973642.885    -5458034.04849  -4247005.89449  24973641.5284   24973650.7064
  21170148.600    -3069819.79749  -2389597.88249  21170147.7224   21170152.2634
  22348539.641    -3187175.17449  -2480934.95349  22348538.6394   22348544.2374
  25595232.023    -3333260.23949  -2451811.17449  25595231.1804   25595239.2344
  23684514.202     8537189.80149   6628260.65049  23684514.0224   23684517.8194
 98  1 27 17 36 30.0020000  0  8  3 14 16 31 18 19 27 22
  24344096.837    -3100354.67549  -2403819.62149  24344096.3734   24344102.8384
  22991787.302     9200940.90249   7152962.68449  22991787.0374   22991793.4984
  21736204.311     4793163.49249   3723636.35649  21736203.2204   21736209.3844
  24957837.970    -5541089.13449  -4311723.96249  24957836.4694   24957844.2424
  21162902.571    -3107897.86049  -2419269.08749  21162901.7384   21162906.1934
  22340406.039    -3229917.20149  -2514240.39149  22340405.2094   22340410.7874
  25582220.449    -3401635.88249  -2505090.80149  25582218.1494   25582228.4684
  23704119.492     8640216.12949   6708540.85049  23704118.5304   23704123.5294
 98  1 27 17 37  0.0020000  0  8  3 14 16 31 18 19 27 22
  24335800.863    -3143950.13849  -2437790.05049  24335799.9464   24335806.4924
  23012003.011     9307174.71949   7235742.21249  23012002.2824   23012009.3154
  21748401.897     4857262.09649   3773583.28249  21748400.9954   21748406.9854
  24942016.140    -5624232.73749  -4376510.99349  24942014.4434   24942023.8334
  21155703.782    -3145727.75849  -2448746.91949  21155703.0624   21155707.3344
  22332294.729    -3272542.25349  -2547454.68349  22332293.8754   22332298.9774
  25569210.467    -3470003.57549  -2558364.26649  25569210.3644   25569216.8814
  23723759.790     8743426.67249   6788964.59349  23723757.9344   23723764.5154
 98  1 27 17 37 30.0020000  0  8  3 14 16 31 18 19 27 22
  24327557.956    -3187266.78449  -2471543.22349  24327557.1834   24327563.1274
  23032253.880     9413593.73649   7318666.06149  23032253.2334   23032260.4184
  21760682.430     4921796.70749   3823869.96149  21760681.2444   21760687.4874
  24926180.697    -5707448.46749  -4441354.23749  24926179.8554   24926186.6884
  21148551.400    -3183313.83249  -2478034.75449  21148550.5534   21148554.8574
  22324207.888    -3315038.97749  -2580568.97649  22324206.9734   22324212.4404
  25556204.242    -3538351.74649  -2611622.49249  25556203.6284   25556211.0434
  23743434.534     8846818.18249   6869529.34649  23743434.2724   23743439.7114
 98  1 27 17 38  0.0020000  0  8  3 14 16 31 18 19 27 22
  24319373.760    -3230274.94549  -2505056.01749  24319373.7784   24319379.4914
  23052543.062     9520214.13949   7401746.82849  23052542.4974   23052549.4084
  21773047.124     4986773.41949   3874501.12949  21773046.2144   21773052.2144
  24910335.723    -5790713.85949  -4506236.17549  24910334.0854   24910342.0054
  21141445.224    -3220657.07749  -2507133.38049  21141444.6024   21141448.8364
  22316149.774    -3357384.62749  -2613565.55049  22316148.9724   22316154.1914
  25543202.657    -3606675.24049  -2664861.51249  25543201.4804   25543209.6244
  23763147.123     8950408.32849   6950248.88049  23763145.9264   23763151.5094
 98  1 27 17 38 30.0020000  0  8  3 14 16 31 18 19 27 22
  24311233.735    -3273051.45449  -2538388.30849  24311233.2134   24311239.0384
  23072856.020     9626959.55649   7484925.00949  23072855.6844   23072862.0304
  21785479.965     5052108.36249   3925411.44149  21785479.0274   21785484.8704
  24894468.287    -5874097.07049  -4571209.91149  24894467.5694   24894475.4374
  21134369.046    -3257842.72049  -2536109.20049  21134368.3614   21134372.6714
  22308104.500    -3399662.70449  -2646509.47249  22308103.5614   22308109.1904
  25530189.447    -3675059.25449  -2718147.69249  25530188.3884   25530197.1174
  23782882.715     9054119.44349   7031062.67449  23782881.5944   23782887.8704
 98  1 27 17 39  0.0020000  0  8  3 14 16 31 18 19 27 22
  24303147.791    -3315544.08949  -2571499.39949  24303146.2524   24303153.7104
  23093206.462     9733901.55649   7568256.37049  23093205.8364   23093212.8424
  21797994.430     5117872.21749   3976655.96949  21797993.5934   21797999.5094
  24878592.658    -5957523.32749  -4636217.21949  24878590.9204   24878599.3244
  21127337.367    -3294794.68349  -2564902.92949  21127336.8494   21127341.0274
  22300083.941    -3441810.85449  -2679352.14649  22300083.1544   22300088.1364
  25517176.652    -3743441.79149  -2771432.72649  25517175.5674   25517183.9174
  23802654.940     9158022.92349   7112026.35749  23802653.6264   23802660.0594
 98  1 27 17 39 30.0020000  0  8  3 14 16 31 18 19 27 22
  24295108.262    -3357791.99549  -2604419.79749  24295107.9474   24295112.6644
  23113588.183     9841007.67249   7651715.61549  23113587.8864   23113594.6214
  21810579.520     5184006.85449   4028189.41949  21810578.5514   21810584.5124
  24862701.749    -6041030.37249  -4701287.47849  24862700.7804   24862707.2214
  21120348.743    -3331520.02149  -2593520.07049  21120347.9974   21120352.3254
  22292082.192    -3483860.31949  -2712117.92749  22292081.5134   22292086.7444
  25504156.104    -3811865.36149  -2824749.74649  25504155.6704   25504162.6744
  23822461.344     9262106.05049   7193130.03349  23822459.7744   23822465.0934
 98  1 27 17 40  0.0020000  0  8  3 14 16 31 18 19 27 22
  24287123.931    -3399750.01549  -2637114.32449  24287122.8854   24287129.6814
  23134006.798     9948308.04449   7735326.22849  23134005.6714   23134012.7034
  21823244.019     5250559.00349   4080048.20549  21823243.3734   21823248.9734
  24846803.491    -6124575.02949  -4766387.08849  24846801.8574   24846809.9534
  21113412.500    -3367970.29849  -2621922.87749  21113411.6994   21113415.7864
  22284106.448    -3525773.14649  -2744777.24049  22284105.8054   22284111.1254
  25491135.897    -3880286.95149  -2878065.21249  25491135.2944   25491142.7814
  23842310.189     9366412.09349   7274407.41449  23842308.9434   23842315.0464
 98  1 27 17 40 30.0020000  0  8  3 14 16 31 18 19 27 22
  24279192.597    -3441428.96549  -2669591.39749  24279191.1864   24279198.4914
  23154460.659    10055793.37649   7819080.96549  23154460.0614   23154466.7894
  21835990.280     5317540.66649   4132241.67549  21835989.1994   21835995.1304
  24830896.548    -6208165.80649  -4831522.61549  24830895.3494   24830903.1424
  21106531.521    -3404130.12449  -2650099.35749  21106530.7734   21106534.9664
  22276156.170    -3567552.28949  -2777332.38149  22276155.4884   22276160.5824
  25478114.742    -3948714.20949  -2931385.09849  25478114.1394   25478121.4454
  23862200.763     9470937.21249   7355855.49349  23862200.1434   23862205.3674
 98  1 27 17 41  0.0020000  0  8  3 14 16 31 18 19 27 22
  24271313.158    -3482835.48249  -2701856.17049  24271311.4714   24271318.5474
  23174945.816    10163443.05749   7902963.76249  23174945.5394   23174951.6984
  21848814.977     5384934.85249   4184756.58949  21848814.0814   21848820.0544
  24814977.454    -6291820.88349  -4896708.29249  24814974.6314   24814983.0354
  21099706.263    -3439997.04149  -2678047.59949  21099705.4284   21099709.6874
  22268228.143    -3609214.24149  -2809796.20849  22268227.3574   22268232.2024
  25465089.240    -4017164.36949  -2984722.82549  25465088.3364   25465095.7924
  23882130.987     9575670.43149   7437465.71949  23882129.7464   23882134.8344
 98  1 27 17 41 30.0020000  0  8  3 14 16 31 18 19 27 22
  24263497.175    -3523907.98549  -2733860.67849  24263496.3614   24263503.4884
  23195467.418    10271284.61549   7986996.06749  23195466.7234   23195472.9774
  21861724.851     5452776.37849   4237620.08349  21861723.9834   21861729.7084
  24799053.797    -6375499.57749  -4961912.35349  24799053.7024   24799059.9424
  21092944.710    -3475529.19649  -2705734.98549  21092943.9994   21092948.3014
  22260329.508    -3650721.76349  -2842139.69749  22260328.6654   22260334.0754
  25452067.026    -4085596.74649  -3038046.69249  25452066.7314   25452073.6344
  23902105.200     9680635.13249   7519256.33749  23902104.0484   23902109.0924
 98  1 27 17 42  0.0020000  0  8  3 14 16 31 18 19 27 22
  24255747.528    -3564631.82349  -2765593.49949  24255746.8464   24255753.8874
  23216026.103    10379320.49449   8071179.79949  23216025.8304   23216032.0304
  21874724.587     5521090.45949   4290851.80249  21874723.7044   21874729.5414
  24783127.266    -6459193.69849  -5027128.43849  24783126.8684   24783133.6374
  21086246.386    -3510729.18949  -2733163.54749  21086245.7364   21086249.8964
  22252460.477    -3692073.44149  -2874361.75749  22252459.6534   22252465.1044
  25439049.925    -4154002.29449  -3091349.63749  25439049.1734   25439055.7734
  23922121.955     9785823.23449   7601221.02549  23922120.7104   23922126.0394
 98  1 27 17 42 30.0020000  0  8  3 14 16 31 18 19 27 22
  24248058.632    -3605036.27149  -2797077.43449  24248056.9004   24248064.5354
  23236617.537    10487528.66849   8155497.79349  23236616.8954   23236623.1124
  21887806.533     5589836.44249   4344420.06949  21887805.4484   21887811.3694
  24767193.733    -6542924.63949  -5092373.20849  24767192.6894   24767200.0184
  21079606.760    -3545620.55849  -2760351.62049  21079606.0224   21079610.1604
  22244616.014    -3733296.23449  -2906483.38449  22244615.0434   22244620.0954
  25426033.159    -4222405.61649  -3144650.86549  25426031.7644   25426038.5754
  23942176.362     9891209.52149   7683340.13949  23942175.5974   23942180.9824
 98  1 27 17 43  0.0020000  0  8  3 14 16 31 18 19 27 22
  24240439.826    -3645072.61449  -2828274.53349  24240438.2744   24240445.5544
  23257249.465    10595949.71849   8239981.65249  23257248.5524   23257255.7274
  21900974.420     5659033.99949   4398340.21349  21900973.3224   21900979.4074
  24751262.936    -6626641.59449  -5157607.06849  24751261.9884   24751269.4804
  21073031.675    -3580172.86549  -2787275.49249  21073031.0944   21073035.1284
  22236803.581    -3774350.63049  -2938473.78949  22236802.7824   22236807.9984
  25413026.964    -4290753.05049  -3197908.51349  25413025.8084   25413033.4834
  23962274.189     9996824.42849   7765637.39549  23962272.9344   23962278.0354
 98  1 27 17 43 30.0020000  0  8  3 14 16 31 18 19 27 22
  24232886.967    -3684763.03049  -2859202.07749  24232886.0224   24232892.8434
  23277918.828    10704567.72849   8324618.98449  23277918.4324   23277925.1824
  21914225.246     5728667.69749   4452600.20749  21914224.1784   21914230.2134
  24735331.538    -6710361.41949  -5222843.17349  24735329.3984   24735337.5764
  21066516.001    -3614413.01049  -2813956.11649  21066515.2554   21066519.3944
  22229021.105    -3815247.64749  -2970341.56749  22229020.1104   22229025.2744
  25400030.015    -4359052.14649  -3251128.50749  25400029.2664   25400036.0654
  23982409.328    10102634.75049   7848086.92549  23982407.5654   23982413.4584
 98  1 27 17 44  0.0020000  0  8  3 14 16 31 18 19 27 22
  24225396.714    -3724124.56149  -2889873.34649  24225396.1574   24225402.9224
  23298628.162    10813395.87949   8409420.06949  23298627.1964   23298635.1134
  21927560.315     5798743.87549   4507204.99249  21927559.4864   21927565.4064
  24719400.996    -6794076.54149  -5288075.59749  24719399.7464   24719407.0744
  21060060.344    -3648337.76649  -2840390.98249  21060059.5544   21060063.6564
  22221271.383    -3855972.32849  -3002075.05849  22221270.5944   22221275.3444
  25387044.595    -4427290.60549  -3304301.24649  25387043.7254   25387051.7364
  24002583.675    10208651.25649   7930697.11649  24002582.6384   24002588.5874
 98  1 27 17 44 30.0020000  0  8  3 14 16 31 18 19 27 22
  24217971.860    -3763141.95049  -2920276.44849  24217970.8984   24217977.3404
  23319378.615    10922439.80649   8494389.28849  23319377.9914   23319384.8824
  21940976.632     5869247.18649   4562142.60649  21940975.5894   21940981.5444
  24703474.373    -6877770.96549  -5353291.88349  24703472.9124   24703481.0674
  21053666.756    -3681936.24649  -2866571.61049  21053665.9404   21053670.0804
  22213556.474    -3896514.18649  -3033666.09549  22213555.6754   22213560.7044
  25374071.564    -4495463.88549  -3357423.21749  25374071.2564   25374077.0404
  24022796.879    10314872.14849   8013466.56349  24022795.6054   24022801.2734
 98  1 27 17 45  0.0020000  0  8  3 14 16 31 18 19 27 22
  24210611.790    -3801819.11249  -2950414.44249  24210610.6934   24210616.7894
  23340166.726    11031681.82349   8579512.85749  23340165.4204   23340173.2674
  21954471.959     5940165.57149   4617403.65649  21954470.9564   21954476.7444
  24687549.233    -6961457.13249  -5418501.74049  24687547.9064   24687554.8824
  21047331.797    -3715226.63249  -2892512.16349  21047331.0864   21047335.3034
  22205874.647    -3936882.61749  -3065121.99049  22205873.8234   22205879.0674
  25361107.268    -4563591.36149  -3410509.48649  25361107.1814   25361111.7114
  24043044.838    10421275.90749   8096378.50649  24043043.4974   24043048.9554
 98  1 27 17 45 30.0020000  0  8  3 14 16 31 18 19 27 22
  24203315.175    -3840162.85649  -2980292.61449  24203314.9444   24203320.3484
  23360988.781    11141102.13649   8664775.36449  23360988.4044   23360994.9754
  21968043.850     6011486.00149   4672977.98649  21968042.9804   21968048.9074
  24671624.915    -7045139.30349  -5483708.46749  24671622.6914   24671630.9724
  21041053.409    -3748219.93649  -2918221.22349  21041052.7124   21041056.9924
  22198221.517    -3977100.20349  -3096460.34249  22198221.0814   22198226.0014
  25348147.666    -4631694.16249  -3463576.52649  25348146.5534   25348152.6004
  24063324.970    10527848.56649   8179422.04149  24063323.1684   24063329.7804
 98  1 27 17 46  0.0020000  0  8  3 14 16 31 18 19 27 22
  24196088.544    -3878138.95449  -3009884.29249  24196088.0874   24196093.8274
  23381846.499    11250709.96149   8750183.97749  23381846.0754   23381853.1134
  21981694.110     6083218.25249   4728873.21749  21981693.3104   21981699.1164
  24655708.080    -7128782.46349  -5548884.80049  24655706.6794   24655714.7534
  21034836.254    -3780891.26849  -2943679.39949  21034835.4664   21034839.7134
  22190599.212    -4017155.43049  -3127672.18449  22190598.5284   22190603.3614
  25335194.730    -4699761.59749  -3516615.99349  25335192.1314   25335202.8544
  24083640.328    10634606.44549   8262609.92049  24083639.1144   24083644.6314
 98  1 27 17 46 30.0020000  0  8  3 14 16 31 18 19 27 22
  24188941.454    -3915697.66649  -3039150.72949  24188940.9754   24188947.8994
  23402746.507    11360539.68949   8835765.51149  23402746.2864   23402753.6234
  21995428.743     6155394.04249   4785114.05549  21995427.8524   21995433.8044
  24639806.665    -7212344.60249  -5613998.00049  24639804.3684   24639812.9484
  21028690.403    -3813188.00549  -2968845.68449  21028689.7214   21028693.8984
  22183013.014    -4057020.96449  -3158736.21649  22183012.4304   22183017.5534
  25322254.948    -4767760.12649  -3569601.79349  25322253.7494   25322259.5474
  24103996.088    10741576.33649   8345962.99749  24103994.5124   24104001.8784
 98  1 27 17 47  0.0020000  0  8  3 14 16 31 18 19 27 22
  24181867.506    -3952871.58149  -3068117.32549  24181866.8024   24181873.0934
  23423684.081    11470567.11449   8921501.08049  23423684.1514   23423690.2454
  22009246.504     6228006.77449   4841695.37149  22009245.5264   22009251.4794
  24623916.682    -7295846.49049  -5679064.26449  24623914.9184   24623923.3034
  21022613.827    -3845120.71349  -2993728.30849  21022613.0184   21022617.3804
  22175458.349    -4096721.28349  -3189671.50949  22175457.6604   22175462.7754
  25309324.786    -4835708.91249  -3622548.85749  25309322.8904   25309330.4364
  24124387.451    10848733.03249   8429461.64249  24124386.4254   24124391.9664
 98  1 27 17 47 30.0020000  0  8  3 14 16 31 18 19 27 22
  24174863.832    -3989676.27749  -3096796.21449  24174863.0814   24174869.1564
  23444658.006    11580785.89649   9007385.76849  23444657.0024   23444664.4464
  22023146.032     6301049.20349   4898611.51649  22023145.1644   22023151.3114
  24608036.432    -7379297.36349  -5744090.80049  24608035.3624   24608042.7294
  21016607.703    -3876683.10749  -3018322.37649  21016606.9164   21016611.3034
  22167933.427    -4136265.05049  -3220484.81149  22167932.8094   22167937.7804
  25296403.819    -4903608.99049  -3675457.92949  25296403.4544   25296410.4724
  24144811.975    10956064.24749   8513096.28849  24144810.8954   24144816.3134
 98  1 27 17 48  0.0020000  0  9  3 14 16 31 18 19 27 13 22
  24167922.200    -4026154.73149  -3125220.88749  24167921.5064   24167926.3074
  23465663.433    11691170.22249   9093399.44349  23465663.8194   23465670.0574
  22037123.631     6374501.63049   4955847.14049  22037122.7474   22037128.9134
  24592158.511    -7462736.03149  -5809107.84049  24592156.8844   24592164.8744
  21010669.624    -3907887.98249  -3042637.85749  21010669.0764   21010673.1874
  22160434.908    -4175670.00149  -3251189.94649  22160434.0414   22160439.3944
  25283487.046    -4971486.72149  -3728349.59149  25283485.9974   25283491.9864
  24941795.283     -264963.98949   -196773.00549  24941794.8754   24941799.2064
  24165263.111    11063535.39949   8596839.97249  24165261.7774   24165268.6124
 98  1 27 17 48 30.0020000  0  9  3 14 16 31 18 19 27 13 22
  24161040.850    -4062316.71149  -3153398.96949  24161040.0404   24161046.3594
  23486699.701    11801716.15749   9179539.04549  23486699.4764   23486707.1004
  22051178.119     6448358.24349   5013397.71549  22051177.0484   22051183.1564
  24576281.088    -7546171.60549  -5874122.47549  24576280.2654   24576287.5784
  21004798.346    -3938741.75249  -3066679.74949  21004797.5514   21004801.8014
  22152964.642    -4214926.41649  -3281779.33849  22152963.8124   22152968.9774
  25270573.479    -5039347.06449  -3781227.69349  25270571.8674   25270578.4654
  24925049.141     -352960.11049   -265341.36649  24925049.6374   24925054.9324
  24185741.155    11171147.60549   8680693.57049  24185740.1214   24185746.0594
 98  1 27 17 49  0.0020000  0  9  3 14 16 31 18 19 27 13 22
  24154225.080    -4098134.04349  -3181308.51549  24154223.8694   24154229.5504
  23507767.062    11912425.63349   9265806.08449  23507766.0124   23507774.0564
  22065312.077     6522632.52049   5071273.74149  22065311.1534   22065317.1194
  24560407.074    -7629590.26049  -5939123.93349  24560406.2254   24560412.5664
  20998991.511    -3969256.93049  -3090457.80449  20998990.8414   20998995.0134
  22145527.135    -4254010.74149  -3312234.63349  22145526.2914   22145531.1954
  25257665.952    -5107176.00849  -3834081.33949  25257664.9624   25257672.1214
  24908294.168     -441010.67749   -333952.16649  24908295.2264   24908298.5034
  24206250.657    11278926.05849   8764676.72649  24206249.6124   24206254.6424
 98  1 27 17 49 30.0020000  0  9  3 14 16 31 18 19 27 13 22
  24147472.626    -4133617.85449  -3208958.17949  24147472.2434   24147477.5984
  23528858.599    12023261.72449   9352171.77549  23528858.1204   23528864.5794
  22079519.707     6597294.01849   5129451.49749  22079519.1274   22079524.9344
  24544531.113    -7713018.49149  -6004132.84849  24544529.6664   24544536.7654
  20993242.142    -3999469.96449  -3114000.42549  20993241.5114   20993245.7594
  22138116.938    -4292951.73949  -3342578.24349  22138116.5614   22138121.1954
  25244758.290    -5175006.10349  -3886935.88049  25244757.7884   25244764.6544
  24891527.569     -529120.79949   -402609.34949  24891526.5454   24891532.3124
  24226789.529    11386858.27349   8848779.69749  24226789.0234   24226794.1034
 98  1 27 17 50  0.0020000  0  9  3 14 16 31 18 19 27 13 22
  24140800.454    -4168679.62749  -3236278.98549  24140799.1334   24140805.1864
  23549986.796    12134290.88549   9438687.90949  23549985.5744   23549993.2004
  22093814.187     6672411.42149   5187984.50949  22093813.3814   22093819.5674
  24528670.613    -7796365.29149  -6069078.31549  24528669.4164   24528676.6484
  20987564.322    -4029306.96749  -3137250.03549  20987563.4724   20987567.8794
  22130747.903    -4331676.33249  -3372753.22349  22130747.1834   22130752.0454
  25231865.317    -5242758.83249  -3939730.12349  25231863.9844   25231871.3844
  24874764.802     -617209.34349   -471249.72649  24874764.9694   24874769.7544
  24247373.784    11495028.91649   8933068.44449  24247372.8634   24247377.8754
 98  1 27 17 50 30.0020000  0  9  3 14 16 31 18 19 27 13 22
  24134203.066    -4203348.39049  -3263293.57849  24134201.3304   24134207.4824
  23571141.398    12245458.74049   9525312.12249  23571141.3284   23571147.4154
  22108184.422     6747927.28149   5246828.00349  22108183.7234   22108189.5694
  24512818.677    -7879666.58549  -6133988.31149  24512816.9304   24512825.5584
  20981945.259    -4058835.19449  -3160259.03849  20981944.4624   20981948.8314
  22123408.985    -4370242.46849  -3402804.73049  22123408.1734   22123412.9534
  25218976.723    -5310488.68849  -3992506.55149  25218975.9364   25218982.4604
  24857995.370     -705333.20849   -539917.63049  24857995.5384   24858000.6884
  24267996.295    11603400.54249   9017513.82849  24267994.8674   24268001.6394
 98  1 27 17 51  0.0020000  0  9  3 14 16 31 18 19 27 13 22
  24127684.669    -4237602.01149  -3289984.68049  24127683.3624   24127690.0524
  23592325.065    12356778.77649   9612054.92049  23592325.2634   23592331.0824
  22122633.286     6823856.46449   5305993.56749  22122632.4004   22122638.2414
  24496980.715    -7962894.54749  -6198841.15749  24496979.9444   24496987.0344
  20976388.919    -4088033.92549  -3183011.30049  20976388.2894   20976392.4484
  22116100.652    -4408647.77149  -3432730.92149  22116099.8934   22116104.8174
  25206094.884    -5378182.95249  -4045255.24749  25206094.9044   25206101.3334
  24841218.064     -793498.40049   -608617.74049  24841217.8634   24841222.4764
  24288661.452    11711996.41949   9102133.93249  24288660.4304   24288667.5094
 98  1 27 17 51 30.0020000  0  9  3 14 16 31 18 19 27 13 22
  24121247.563    -4271428.85549  -3316343.25149  24121246.4594   24121252.5074
  23613543.687    12468283.11249   9698941.32149  23613543.0144   23613550.0004
  22137163.124     6900211.36149   5365490.85649  22137162.0224   22137168.2764
  24481163.242    -8046015.40249  -6263610.50449  24481162.2944   24481170.2664
  20970904.394    -4116855.15449  -3205469.39949  20970903.7354   20970907.9464
  22108827.268    -4446869.30249  -3462513.90549  22108826.2084   22108831.6524
  25193222.545    -5445827.65049  -4097965.32349  25193221.6964   25193229.2354
  24824436.621     -881685.60949   -677335.02049  24824436.0814   24824440.4294
  24309370.670    11820823.62749   9186934.30749  24309368.7744   24309374.6764
 98  1 27 17 52  0.0020000  0  9  3 14 16 31 18 19 27 13 22
  24114890.114    -4304836.50549  -3342375.16449  24114889.2704   24114895.6194
  23634797.893    12579974.62549   9785973.57049  23634797.4904   23634804.1154
  22151772.065     6976981.94349   5425312.05549  22151771.1784   22151777.2344
  24465366.998    -8129024.41049  -6328292.69649  24465365.3604   24465374.0594
  20965491.689    -4145299.23749  -3227633.61849  20965490.9534   20965495.2714
  22101588.745    -4484907.79249  -3492154.26449  22101588.0194   22101593.2084
  25180359.728    -5513422.20649  -4150636.33249  25180359.3404   25180365.5244
  24807647.217     -969914.54349   -746084.79249  24807647.5834   24807652.1454
  24330118.896    11929856.41749   9271894.85549  24330116.6314   24330123.6344
 98  1 27 17 52 30.0020000  0  9  3 14 16 31 18 19 27 13 22
  24108603.519    -4337872.31949  -3368117.36049  24108602.6524   24108608.8384
  23656078.708    12691805.79949   9873114.65649  23656077.6884   23656085.6024
  22166450.922     7054119.75349   5485419.40649  22166450.0064   22166456.0924
  24449581.834    -8211975.15849  -6392929.48049  24449581.1974   24449588.7404
  20960139.908    -4173423.00549  -3249548.24449  20960139.2684   20960143.3594
  22094377.236    -4522804.55149  -3521684.18449  22094376.5114   22094381.7644
  25167494.272    -5581030.52949  -4203318.07049  25167493.3574   25167500.4754
  24790841.482    -1058229.05349   -814901.26749  24790842.0874   24790846.1194
  24350893.707    12039029.09449   9356964.40949  24350891.9784   24350898.7804
 98  1 27 17 53  0.0020000  0  9  3 14 16 31 18 19 27 13 22
  24102385.118    -4370550.18349  -3393580.61149  24102384.4464   24102390.8614
  23677383.414    12803762.44049   9960353.48149  23677382.9794   23677390.3624
  22181198.146     7131616.75149   5545806.63749  22181197.1874   22181203.5384
  24433803.904    -8294888.68149  -6457537.23049  24433802.9104   24433809.9264
  20954850.406    -4201219.67449  -3271207.99249  20954849.8494   20954854.0454
  22087192.552    -4560560.11849  -3551104.09049  22087191.7154   22087197.1524
  25154626.407    -5648650.95649  -4256009.23649  25154625.4254   25154632.8164
  24774019.163    -1146631.04349   -883785.89449  24774018.6944   24774024.3244
  24371687.347    12148300.22549   9442110.69449  24371685.3134   24371692.4874
 98  1 27 17 53 30.0020000  0  9  3 14 16 31 18 19 27 13 22
  24096245.958    -4402811.87549  -3418719.58749  24096245.7464   24096251.8414
  23698722.872    12915902.09749  10047734.93249  23698721.8464   23698729.5714
  22196025.826     7209536.64549   5606523.40749  22196024.6824   22196030.9424
  24418042.463    -8377715.56949  -6522077.50249  24418041.6814   24418048.8924
  20949634.207    -4228630.92249  -3292567.40749  20949633.5214   20949637.5334
  22080045.542    -4598117.77649  -3580369.77549  22080044.7534   22080050.0314
  25141770.535    -5716208.71549  -4308651.57749  25141770.0554   25141776.8844
  24757194.109    -1235047.06749   -952681.46849  24757193.2024   24757199.3494
  24392506.147    12257703.73849   9527360.11249  24392504.0414   24392511.6534
 98  1 27 17 54  0.0020000  0  9  3 14 16 31 18 19 27 13 22
  24090178.337    -4434697.28149  -3443565.35449  24090177.9474   24090183.3544
  23720086.085    13028166.43849  10135213.54549  23720085.2074   23720093.4414
  22210927.163     7287843.65449   5667541.82849  22210926.0764   22210932.2174
  24402287.153    -8460510.01349  -6586592.51249  24402285.8194   24402293.6914
  20944480.761    -4255712.48049  -3313669.92249  20944480.2384   20944484.4064
  22072926.137    -4635530.48649  -3609522.51849  22072925.5224   22072930.3544
  25128919.319    -5783741.63549  -4361274.55449  25128918.2524   25128925.6654
  24740358.844    -1323517.09049  -1021619.12349  24740358.2964   24740363.5104
  24413341.910    12367196.32549   9612678.94249  24413341.1464   24413346.7284
 98  1 27 17 54 30.0020000  0  9  3 14 16 31 18 19 27 13 22
  24084193.518    -4466147.91849  -3468072.34049  24084192.8904   24084198.8984
  23741480.816    13140596.56149  10222821.32649  23741480.1354   23741487.5804
  22225910.327     7366580.78549   5728895.40649  22225909.3434   22225915.4674
  24386546.818    -8543225.28149  -6651045.82649  24386544.9764   24386553.3874
  20939401.979    -4282401.82649  -3334466.82249  20939401.4244   20939405.5874
  22065844.332    -4672745.77649  -3638521.42849  22065843.7944   22065848.4814
  25116083.537    -5851194.11149  -4413834.85849  25116082.5184   25116089.2844
  24723526.033    -1411973.93049  -1090546.50849  24723525.4304   24723528.5164
  24434206.758    12476841.12649   9698116.37249  24434206.2514   24434211.9974
 98  1 27 17 55  0.0020000  0  9  3 14 16 31 18 19 27 13 22
  24078279.782    -4497225.14549  -3492288.34849  24078279.6944   24078286.1344
  23762896.807    13253138.12449  10310515.92249  23762896.7394   23762905.0914
  22240963.632     7445686.29749   5790536.03249  22240962.7624   22240968.9644
  24370812.239    -8625910.28249  -6715475.57749  24370810.7594   24370818.5204
  20934390.082    -4308739.63049  -3354989.79249  20934389.3744   20934393.4644
  22058787.459    -4709829.78649  -3667418.04449  22058786.7704   22058791.9574
  25103256.278    -5918602.04349  -4466360.43849  25103255.1184   25103261.7414
  24706684.569    -1500476.70149  -1159509.69149  24706685.1884   24706689.9864
  24455092.731    12586596.95149   9783640.31049  24455091.5324   24455098.0854
 98  1 27 17 55 30.0020000  0  9  3 14 16 31 18 19 27 13 22
  24072451.909    -4527851.58849  -3516153.09249  24072451.5194   24072457.3694
  23784346.328    13365855.25049  10398347.34349  23784345.5704   23784354.4304
  22256100.765     7525232.58249   5852520.12349  22256099.8834   22256106.2024
  24355102.657    -8708463.38249  -6779802.54249  24355101.1244   24355108.3224
  20929458.456    -4334655.59549  -3375184.05449  20929457.6684   20929461.6964
  22051768.835    -4746713.04949  -3696158.23149  22051767.9394   22051772.8884
  25090450.239    -5985898.70649  -4518799.32249  25090449.9334   25090456.4154
  24689848.286    -1588951.74449  -1228451.29549  24689848.7534   24689852.4394
  24476019.506    12696567.67049   9869331.70749  24476018.2754   24476024.9374
 98  1 27 17 56  0.0020000  0  9  3 14 16 31 18 19 27 13 22
  24066696.453    -4558097.00549  -3539720.92449  24066696.2834   24066701.6014
  23805812.838    13478661.72749  10486248.38449  23805812.4794   23805820.3274
  22271306.195     7605137.81649   5914783.90549  22271305.2064   22271311.5404
  24339406.464    -8790946.48549  -6844074.95049  24339405.2504   24339412.5424
  20924595.880    -4360208.46349  -3395095.38249  20924595.1244   20924599.3254
  22044776.083    -4783460.07649  -3724792.26049  22044775.3404   22044780.5014
  25077649.060    -6053169.55849  -4571218.08349  25077648.1954   25077655.5504
  24673002.503    -1677476.60649  -1297431.67749  24673002.8464   24673007.9894
  24496974.734    12806687.65949   9955139.41049  24496973.2584   24496980.2824
 98  1 27 17 56 30.0020000  0  9  3 14 16 31 18 19 27 13 22
  24061012.776    -4587965.14149  -3562994.77249  24061012.4284   24061018.7154
  23827294.965    13591550.60449  10574213.63549  23827294.7374   23827302.5094
  22286577.561     7685389.20949   5977317.42549  22286576.8144   22286583.1884
  24323724.624    -8873354.29949  -6908288.69249  24323723.5874   24323731.3154
  20919803.738    -4385391.30049  -3414718.37649  20919803.0624   20919807.4144
  22037807.917    -4820078.00349  -3753325.69749  22037807.2044   22037812.0404
  25064852.371    -6120416.47349  -4623618.19649  25064851.0454   25064858.4784
  24656145.338    -1766061.11049  -1366458.55149  24656143.8074   24656150.0944
  24517956.015    12916944.87749  10041054.04249  24517955.3734   24517960.5134
 98  1 27 17 57  0.0020000  0  9  3 14 16 31 18 19 27 13 22
  24055403.260    -4617443.60649  -3585964.98449  24055402.3514   24055408.3314
  23848795.497    13704536.20149  10662254.25149  23848795.6424   23848802.2084
  22301919.767     7766012.72749   6040140.91249  22301918.9634   22301924.9434
  24308064.103    -8955650.68049  -6972415.59149  24308062.8184   24308069.7554
  20915084.120    -4410193.10349  -3434044.46249  20915083.4294   20915087.7074
  22030868.163    -4856546.59849  -3781742.76849  22030867.6384   22030872.7024
  25052062.160    -6187628.93749  -4675991.47049  25052060.7294   25052068.2204
  24639279.325    -1854692.16049  -1435521.66749  24639278.4724   24639284.0654
  24538965.096    13027348.21849  10127082.53949  24538964.1994   24538970.2514
 98  1 27 17 57 30.0020000  0  9  3 14 16 31 18 19 27 13 22
  24049864.164    -4646551.84949  -3608646.70149  24049862.9364   24049869.0384
  23870305.546    13817571.50749  10750333.60049  23870305.4814   23870313.1384
  22317325.680     7846971.25349   6103225.44349  22317325.0574   22317330.9764
  24292418.780    -9037867.05249  -7036480.16349  24292418.0594   24292424.3224
  20910429.732    -4434652.00549  -3453103.34849  20910429.0614   20910433.2864
  22023952.589    -4892888.12849  -3810060.82949  22023951.9054   22023957.0614
  25039268.433    -6254859.75149  -4728379.04949  25039267.4164   25039274.2444
  24622397.756    -1943405.47549  -1504648.88149  24622397.5494   24622403.6014
  24559993.457    13137852.38749  10213189.59449  24559993.1714   24559998.5644
 98  1 27 17 58  0.0020000  0  9  3 14 16 31 18 19 27 13 22
  24044402.845    -4675250.52649  -3631009.27949  24044402.9964   24044407.7584
  23891835.621    13930712.07649  10838494.95749  23891835.1074   23891842.8764
  22332799.773     7928287.89049   6166589.02649  22332799.2654   22332805.2144
  24276793.187    -9119979.58749  -7100463.82149  24276791.5274   24276799.7284
  20905849.126    -4458723.24949  -3471860.16049  20905848.4724   20905852.8864
  22017069.964    -4929056.58149  -3838244.01849  22017069.3304   22017074.3674
  25026479.932    -6322063.14049  -4780745.24849  25026478.5394   25026485.7364
  24605511.189    -2032145.41049  -1573796.86449  24605511.1694   24605514.6264
  24581045.124    13248479.39749  10299392.35349  24581044.5974   24581050.4054
 98  1 27 17 58 30.0020000  0  9  3 14 16 31 18 19 27 13 22
  24039024.843    -4703511.48749  -3653030.78849  24039023.6404   24039029.5504
  23913391.577    14043989.06949  10926762.62449  23913392.1634   23913398.9454
  22348345.379     8009980.17849   6230245.32149  22348344.6134   22348350.7044
  24261192.655    -9201960.72949  -7164345.10449  24261191.5874   24261198.3654
  20901342.628    -4482405.33049  -3490313.72849  20901342.0224   20901346.3164
  22010224.699    -4965028.46749  -3866274.04349  22010223.8394   22010228.8714
  25013702.675    -6389207.88049  -4833065.77649  25013701.8954   25013708.3274
  24588625.730    -2120878.93149  -1642939.83349  24588625.9584   24588629.4844
  24602124.825    13359253.26449  10385709.55749  24602123.5444   24602130.2494
 98  1 27 17 59  0.0020000  0  9  3 14 16 31 18 19 27 13 22
  24033727.993    -4731346.35549  -3674720.28349  24033727.8364   24033733.1214
  23934970.282    14157385.82949  11015123.59949  23934970.2354   23934977.6004
  22363959.334     8092031.98649   6294181.76049  22363958.2844   22363964.4844
  24245614.978    -9283822.27649  -7228133.21949  24245613.7114   24245620.1564
  20896904.170    -4505729.75249  -3508488.60449  20896903.5054   20896907.6934
  22003415.111    -5000813.04849  -3894158.11549  22003414.6534   22003419.5634
  25000932.209    -6456316.62349  -4885358.26049  25000930.2264   25000937.4694
  24571739.773    -2209615.61149  -1712085.27149  24571739.4894   24571744.7044
  24623230.552    13470163.87549  10472133.31049  24623229.4434   24623235.3284
 98  1 27 17 59 30.0020000  0  9  3 14 16 31 18 19 27 13 22
  24028507.776    -4758778.70149  -3696096.10549  24028507.0714   24028513.6594
  23956566.790    14270875.86249  11103557.25549  23956566.5344   23956574.9604
  22379634.457     8174404.95249   6358368.45049  22379633.7424   22379639.5734
  24230051.796    -9365607.05049  -7291861.50749  24230051.0054   24230057.0004
  20892529.203    -4528720.38949  -3526403.38849  20892528.4834   20892532.7164
  21996634.111    -5036447.66649  -3921925.33749  21996633.4984   21996638.2214
  24988163.712    -6523414.97649  -4937642.64849  24988162.9654   24988169.3244
  24554847.587    -2298384.96249  -1781256.16449  24554847.2634   24554851.1324
  24644355.684    13581176.37649  10558636.45949  24644354.3194   24644360.9324
 98  1 27 18  0  0.0020000  0  9  3 14 16 31 18 19 27 13 22
  24023362.871    -4785815.23249  -3717163.50749  24023361.8234   24023367.8394
  23978182.781    14384467.90649  11192070.40149  23978182.1704   23978190.2094
  22395372.718     8257109.77249   6422813.72849  22395372.0074   22395377.8574
  24214504.581    -9447308.33649  -7355524.74949  24214503.4684   24214509.5394
  20888218.730    -4551372.26649  -3544054.20349  20888218.0384   20888222.2154
  21989879.847    -5071941.41349  -3949582.78649  21989879.4734   21989884.1574
  24975399.615    -6590490.52749  -4989909.27049  24975397.9524   24975405.9654
  24537950.567    -2387179.49649  -1850446.68049  24537949.9714   24537955.4224
  24665499.071    13692285.24149  10645214.68549  24665497.9914   24665504.2194
 98  1 27 18  0 30.0020000  0  9  3 14 16 31 18 19 27 13 22
  24018297.062    -4812435.65649  -3737906.67749  24018295.8104   24018302.5224
  23999818.802    14498165.77249  11280666.00049  23999818.6414   23999826.1044
  22411179.944     8340176.89649   6487541.32549  22411179.3134   22411185.3004
  24198978.496    -9528898.44749  -7419101.37449  24198976.5274   24198983.7764
  20883976.112    -4573667.47349  -3561427.09349  20883975.5254   20883979.7144
  21983152.644    -5107293.35449  -3977129.73549  21983151.7414   21983156.9324
  24962641.503    -6657534.01549  -5042150.90749  24962640.8834   24962647.2374
  24521044.947    -2476019.10149  -1919672.32549  24521044.6744   24521048.1814
  24686663.672    13803505.53549  10731879.75449  24686662.5894   24686669.3364
 98  1 27 18  1  0.0020000  0  9  3 14 16 31 18 19 27 13 22
  24013311.433    -4838635.20049  -3758321.88249  24013310.5914   24013317.1604
  24021476.812    14611978.89849  11369351.41649  24021476.9984   24021484.5064
  22427057.147     8423611.55949   6552555.30849  22427056.3224   22427062.3824
  24183474.582    -9610371.56649  -7482586.80649  24183473.1504   24183479.5134
  20879809.366    -4595563.92849  -3578489.26749  20879808.4694   20879812.8124
  21976453.552    -5142497.15149  -4004561.24749  21976452.8484   21976457.8644
  24949890.360    -6724541.26649  -5094364.31449  24949888.8514   24949896.1054
  24504131.531    -2564899.63249  -1988929.82949  24504131.4634   24504135.7524
  24707848.993    13914834.76149  10818629.70049  24707847.7534   24707853.5314
 98  1 27 18  1 30.0020000  0  9  3 14 16 31 18 19 27 13 22
  24008405.616    -4864415.45749  -3778410.37149  24008405.0574   24008410.7764
  24043155.534    14725900.58549  11458121.41149  24043155.3204   24043163.1754
  22443002.379     8507404.09049   6617848.15149  22443001.5334   22443007.6654
  24167991.762    -9691733.85349  -7545985.88149  24167990.5184   24167996.4144
  20875720.334    -4617051.72549  -3595233.00849  20875719.3604   20875723.6064
  21969779.852    -5177567.61349  -4031888.86749  21969779.1084   21969784.1834
  24937146.239    -6791511.51449  -5146548.86849  24937145.4234   24937152.2044
  24487208.508    -2653830.57749  -2058226.64449  24487207.8194   24487212.6004
  24729051.494    14026254.75549  10905450.36549  24729050.2754   24729055.6894
 98  1 27 18  2  0.0020000  0  9  3 14 16 31 18 19 27 13 22
  24003567.800    -4889838.59749  -3798220.57549  24003567.3664   24003572.6284
  24064843.207    14839869.88249  11546928.50049  24064842.1564   24064851.1364
  22459003.472     8591490.21349   6683369.76649  22459002.5364   22459008.8314
  24152520.344    -9773036.37649  -7609338.39249  24152519.4594   24152526.9464
  20871696.213    -4638198.41849  -3611710.95149  20871695.5464   20871699.7274
  21963121.047    -5212559.95549  -4059155.61249  21963120.4184   21963125.4594
  24924398.772    -6858499.84949  -5198747.53249  24924398.3084   24924403.8524
  24470264.765    -2742870.32849  -2127608.23549  24470264.4784   24470269.7404
  24750261.558    14137713.66449  10992301.37549  24750260.4114   24750265.0584
 98  1 27 18  2 30.0020000  0  9  3 14 16 31 18 19 27 13 22
  23998804.615    -4914869.79949  -3817725.38749  23998803.8444   23998809.4054
  24086543.850    14953907.07449  11635788.49849  24086543.3534   24086551.3494
  22475062.379     8675880.17449   6749128.14849  22475061.6094   22475067.6824
  24137063.588    -9854261.90549  -7672630.91749  24137062.3094   24137068.2964
  20867742.838    -4658973.49749  -3627899.32249  20867742.0634   20867746.3054
  21956483.082    -5247442.72149  -4086336.96749  21956482.4434   21956487.5784
  24911654.072    -6925474.21849  -5250935.31649  24911652.8424   24911660.2794
  24453306.388    -2831987.20849  -2197049.93649  24453306.7784   24453311.0864
  24771484.250    14249239.14849  11079204.24149  24771481.9104   24771489.3354
 98  1 27 18  3  0.0020000  0  9  3 14 16 31 18 19 27 13 22
  23994128.377    -4939444.01049  -3836874.10149  23994127.4714   23994134.3814
  24108269.153    15068073.43849  11724749.14749  24108269.7024   24108275.9404
  22491189.607     8760629.23649   6815166.33249  22491189.0044   22491195.4274
  24121632.889    -9935350.48349  -7735816.71349  24121631.4524   24121638.0414
  20863871.140    -4679319.57949  -3643753.41749  20863870.6634   20863874.8854
  21949880.824    -5282137.75549  -4113372.04449  21949880.0544   21949885.0664
  24898922.950    -6992376.05649  -5303066.57149  24898922.2754   24898927.9634
  24436352.743    -2921079.36149  -2266472.37449  24436353.1854   24436356.1644
  24792732.849    14360901.59149  11166213.84149  24792732.0094   24792736.9614
 98  1 27 18  3 30.0020000  0  9  3 14 16 31 18 19 27 13 22
  23989525.448    -4963632.89149  -3855722.54949  23989524.2484   23989530.1344
  24130003.731    15182288.47249  11813747.75749  24130003.6664   24130011.4524
  22507372.995     8845673.14949   6881434.27549  22507372.1314   22507378.2454
  24106217.356   -10016359.33549  -7798940.39949  24106216.5744   24106221.9514
  20860062.772    -4699333.01249  -3659348.30549  20860062.2194   20860066.4214
  21943301.721    -5316710.97149  -4140312.20349  21943301.1094   21943306.3114
  24886191.633    -7059279.32649  -5355198.95449  24886189.8494   24886196.4624
  24419390.229    -3010218.18349  -2335931.18649  24419389.5184   24419394.4494
  24813996.987    14472644.78649  11253286.37249  24813995.2994   24814002.0304
 98  1 27 18  4  0.0020000  0  9  3 14 16 31 18 19 27 13 22
  23984992.683    -4987452.97849  -3874283.60949  23984991.2664   23984997.2544
  24151743.116    15296528.57149  11902765.89049  24151743.4464   24151750.6744
  22523609.765     8930997.74049   6947920.93449  22523608.8904   22523615.1454
  24090815.298   -10097297.73549  -7862009.15349  24090813.5974   24090821.1924
  20856315.465    -4719025.14149  -3674692.81749  20856314.6944   20856318.9984
  21936744.178    -5351171.04449  -4167164.18949  21936743.6584   21936748.2994
  24873454.690    -7126211.62049  -5407353.95649  24873454.2764   24873461.5634
  24402418.084    -3099407.14649  -2405429.03849  24402417.1884   24402422.0234
  24835272.638    14584448.20449  11340405.82349  24835270.9104   24835277.0134
 98  1 27 18  4 30.0020000  0  9  3 14 16 31 18 19 27 13 22
  23980543.691    -5010832.15249  -3892501.13649  23980543.1554   23980548.7964
  24173496.066    15410840.50049  11991839.98149  24173495.8174   24173502.4444
  22539912.311     9016668.26949   7014677.15149  22539911.6044   22539917.5984
  24075440.359   -10178093.16849  -7924966.52249  24075439.4304   24075443.8204
  20852643.682    -4738320.34449  -3689728.04449  20852643.1364   20852647.3434
  21930218.998    -5385461.03749  -4193883.65249  21930218.4964   21930223.0104
  24860722.591    -7193118.85549  -5459489.43549  24860722.7204   24860727.5794
  24385449.425    -3188577.39849  -2474912.31449  24385449.3254   24385452.6744
  24856567.969    14696355.94649  11427606.55249  24856566.0674   24856573.0494
 98  1 27 18  5  0.0020000  0  9  3 14 16 31 18 19 27 13 22
  23976162.637    -5033854.49749  -3910440.59249  23976161.8394   23976166.9884
  24195245.950    15525136.68949  12080901.80249  24195246.0304   24195253.9584
  22556265.218     9102603.13949   7081639.35449  22556264.1734   22556270.5844
  24060082.191   -10258799.85549  -7987854.73149  24060081.4224   24060087.6124
  20849030.955    -4757305.46249  -3704521.64149  20849030.2474   20849034.5604
  21923710.618    -5419662.98449  -4220534.50749  21923709.8224   21923714.8924
  24847978.134    -7260091.27949  -5511675.68549  24847977.5834   24847984.7194
  24368468.899    -3277810.07949  -2544444.24549  24368467.7614   24368472.2614
  24877866.568    14808280.08949  11514820.09549  24877864.9134   24877871.6444
 98  1 27 18  5 30.0020000  0  9  3 14 16 31 18 19 27 13 22
  23971869.649    -5056413.58249  -3928019.08449  23971868.0614   23971874.5704
  24217011.565    15639515.36849  12170027.88949  24217011.9814   24217019.7244
  22572687.850     9188904.47049   7148887.10749  22572687.0144   22572693.3404
  24044761.759   -10339308.77649  -8050588.84149  24044760.8584   24044766.8054
  20845498.680    -4775867.73749  -3718985.75149  20845498.0024   20845502.3524
  21917237.270    -5453680.75549  -4247041.85149  21917236.7334   21917241.5244
  24835242.995    -7327014.72549  -5563823.77649  24835242.4594   24835248.5384
  24351495.295    -3367006.57949  -2613947.97949  24351494.8014   24351499.7184
  24899182.966    14920298.45249  11602107.04649  24899181.1464   24899187.6154
 98  1 27 18  6  0.0020000  0  9  3 14 16 31 18 19 27 13 22
  23967651.542    -5078579.29549  -3945291.04149  23967650.3714   23967657.3934
  24238776.541    15753890.18449  12259150.98149  24238776.5844   24238784.5014
  22589161.884     9275476.09249   7216345.48049  22589160.6694   22589167.0814
  24029461.055   -10419713.92349  -8113242.08449  24029459.8114   24029466.1154
  20842033.894    -4794075.29449  -3733173.45949  20842033.2414   20842037.4734
  21910781.923    -5487603.77849  -4273475.36449  21910781.1224   21910785.8814
  24822504.124    -7393958.21949  -5615987.49049  24822503.4984   24822509.8264
  24334514.922    -3456239.28649  -2683479.94049  24334515.6054   24334518.9214
  24920498.726    15032313.34649  11689391.28849  24920497.6784   24920504.1834
 98  1 27 18  6 30.0020000  0  9  3 14 16 31 18 19 27 13 22
  23963517.244    -5100304.96949  -3962220.11249  23963515.9034   23963522.7114
  24260550.242    15868310.78049  12348309.74549  24260550.4504   24260557.3244
  22605693.756     9362351.50049   7284040.56049  22605692.6654   22605699.6374
  24014187.832   -10499974.68149  -8175782.84849  24014186.1054   24014192.6984
  20838643.212    -4811893.44249  -3747057.72949  20838642.5284   20838646.8814
  21904352.642    -5521389.71749  -4299802.06349  21904351.9234   21904356.5954
  24809771.368    -7460869.64149  -5668126.21849  24809770.8034   24809777.3864
  24317534.149    -3545474.27749  -2753013.66149  24317534.0714   24317538.2954
  24941824.772    15144381.99249  11776717.44449  24941824.4044   24941831.2704
 98  1 27 18  7  0.0020000  0  9  3 14 16 31 18 19 27 13 22
  23959486.318    -5121487.75749  -3978726.16149  23959486.6334   23959491.1564
  24282355.267    15982895.70649  12437596.55449  24282356.2154   24282363.6264
  22622303.391     9449635.62049   7352054.12449  22622302.4264   22622309.1324
  23998961.368   -10579989.78449  -8238132.21149  23998959.7964   23998965.7914
  20835345.912    -4829220.84149  -3760559.60049  20835345.2614   20835349.5234
  21897971.909    -5554920.65549  -4325930.05649  21897971.2904   21897976.1204
  24797064.842    -7527643.24449  -5720157.54349  24797064.1604   24797070.8084
  24300573.422    -3634603.76449  -2822465.18649  24300572.4444   24300576.2154
  24963183.940    15256624.59949  11864179.12949  24963183.3884   24963190.2894
 98  1 27 18  7 30.0020000  0  9  3 14 16 31 18 19 27 13 22
  23955539.494    -5142228.57749  -3994887.81749  23955538.3964   23955544.3054
  24304169.612    16097529.47649  12526921.40449  24304170.1934   24304177.2724
  22638968.720     9537212.45449   7420295.77449  22638967.8894   22638974.0194
  23983759.334   -10659876.79949  -8300381.78149  23983758.5794   23983763.6484
  20832123.213    -4846156.36349  -3773756.11049  20832122.5524   20832126.7934
  21891618.455    -5588308.48449  -4351946.53349  21891617.9384   21891622.5984
  24784364.352    -7594385.19749  -5772164.20749  24784363.4824   24784370.2584
  24283610.978    -3723741.96849  -2891923.50949  24283610.6064   24283614.2384
  24984557.148    15368941.11749  11951698.40949  24984556.1924   24984562.6614
 98  1 27 18  8  0.0020000  0  9  3 14 16 31 18 19 27 13 22
  23951681.722    -5162501.29849  -4010684.72549  23951680.9064   23951686.5564
  24325996.934    16212231.57449  12616299.48949  24325996.3434   24326005.2744
  22655691.425     9625090.62249   7488772.22849  22655691.0314   22655696.9274
  23968588.590   -10739599.46349  -8362503.26849  23968586.9234   23968592.9494
  20828979.092    -4862678.79349  -3786630.73549  20828978.5684   20828982.7784
  21885296.351    -5621531.11349  -4377834.29349  21885295.6754   21885300.4874
  24771671.911    -7661084.64049  -5824137.75549  24771670.9894   24771677.7384
  24266648.591    -3812879.89349  -2961381.60349  24266648.5294   24266652.6944
  25005952.499    15481373.68749  12039308.12149  25005951.3604   25005957.6144
 98  1 27 18  8 30.0020000  0  9  3 14 16 31 18 19 27 13 22
  23947895.441    -5182398.28049  -4026188.85649  23947894.4684   23947901.6954
  24347821.026    16326916.97449  12705664.56049  24347820.4254   24347828.3024
  22672454.543     9713181.08849   7557414.10549  22672453.9874   22672460.0274
  23953437.238   -10819220.41349  -8424545.51549  23953436.2214   23953441.4454
  20825896.096    -4878880.09449  -3799255.12949  20825895.4134   20825899.7054
  21878989.988    -5654671.28749  -4403657.79349  21878989.5114   21878994.1894
  24758966.978    -7727849.80849  -5876162.52549  24758965.9054   24758972.9484
  24249668.627    -3902110.13349  -3030911.63249  24249667.5944   24249672.1984
  25027352.696    15593831.89649  12126937.80749  25027351.1454   25027358.1444
 98  1 27 18  9  0.0020000  0  9  3 14 16 31 18 19 27 13 22
  23944203.897    -5201797.54849  -4041305.16049  23944203.9334   23944209.4784
  24369663.281    16441697.78049  12795103.97649  24369663.3634   24369670.5584
  22689282.036     9801609.83849   7626319.58349  22689281.2774   22689287.2484
  23938331.614   -10898600.69449  -8486400.20949  23938330.1894   23938337.0074
  20822900.649    -4894621.46949  -3811521.14049  20822900.0664   20822904.3294
  21872722.056    -5687609.57249  -4429323.97649  21872721.1504   21872725.9524
  24746274.168    -7794550.57849  -5928137.11049  24746274.0714   24746279.9694
  24232695.091    -3991306.47149  -3100415.24649  24232694.4254   24232699.4014
  25048779.772    15706431.47449  12214677.64649  25048778.4224   25048785.0974
 98  1 27 18  9 30.0020000  0  9  3 14 16 31 18 19 27 13 22
  23940592.476    -5220775.83949  -4056093.42949  23940591.9134   23940597.8834
  24391508.835    16556496.29549  12884557.18349  24391508.6104   24391516.0364
  22706159.746     9890302.53349   7695430.73649  22706158.8134   22706164.9384
  23923257.253   -10977816.83449  -8548127.01449  23923255.3654   23923263.1464
  20819979.914    -4909969.96449  -3823481.00749  20819979.0684   20819983.2234
  21866476.133    -5720431.78749  -4454899.72149  21866475.6044   21866480.2714
  24733580.597    -7861255.12049  -5980114.63349  24733579.2994   24733586.0874
  24215711.455    -4080556.17849  -3169960.44549  24215710.7024   24215715.1364
  25070215.811    15819078.26449  12302454.26049  25070215.4114   25070221.9574
 98  1 27 18 10  0.0020000  0  9  3 14 16 31 18 19 27 13 22
  23937057.829    -5239350.92149  -4070567.53049  23937057.7804   23937062.7644
  24413355.215    16671299.19549  12974013.81249  24413355.6864   24413362.9504
  22723087.311     9979257.43849   7764746.19549  22723086.3854   22723092.4584
  23908210.509   -11056887.27349  -8609740.28149  23908209.2914   23908216.4744
  20817130.235    -4924944.89549  -3835149.78949  20817129.5114   20817133.6734
  21860251.094    -5753144.87049  -4480390.42649  21860250.4744   21860255.4004
  24720883.955    -7927976.46349  -6032105.26449  24720883.7184   24720890.0334
  24198716.307    -4169866.05749  -3239552.51949  24198716.5174   24198719.8294
  25091656.439    15931748.82649  12390249.41249  25091655.4284   25091661.9984
 98  1 27 18 10 30.0020000  0  9  3 14 16 31 18 19 27 13 22
  23933616.386    -5257436.29549  -4084660.03849  23933615.7434   23933620.6234
  24435217.614    16786186.01049  13063535.84049  24435217.0314   24435225.7934
  22740082.244    10068566.18149   7834337.38049  22740081.3794   22740087.7294
  23893205.421   -11135739.06549  -8671183.17049  23893204.0794   23893210.9204
  20814368.074    -4939460.37249  -3846460.55249  20814367.3434   20814371.5934
  21854061.864    -5785669.52849  -4505734.30449  21854061.3184   21854066.0024
  24708201.996    -7994620.74749  -6084035.84449  24708200.9084   24708207.4304
  24181725.540    -4259152.62249  -3309126.44249  24181725.6604   24181729.3144
  25113114.358    16044510.70449  12478115.71549  25113113.8834   25113120.2224
 98  1 27 18 11  0.0020000  0  9  3 14 16 31 18 19 27 13 22
  23930263.027    -5275058.60149  -4098391.72649  23930261.8444   23930268.6654
  24457088.060    16901115.08549  13153090.77949  24457087.7014   24457095.7974
  22757137.785    10158193.61149   7904176.88949  22757137.0824   22757143.1674
  23878233.206   -11214418.40949  -8732491.70149  23878232.3544   23878238.9684
  20811688.268    -4953542.58649  -3857433.70749  20811687.7084   20811691.9454
  21847901.309    -5818043.27449  -4530960.59049  21847900.5534   21847905.0444
  24695531.506    -8061204.30549  -6135919.09749  24695530.4204   24695537.3174
  24164734.550    -4348440.93149  -3378701.70949  24164734.6224   24164738.8384
  25134583.654    16157332.71149  12566028.87849  25134582.1114   25134588.4144
 98  1 27 18 11 30.0020000  0  9  3 14 16 31 18 19 27 13 22
  23926992.592    -5292244.63249  -4111783.47849  23926991.4984   23926998.5754
  24478957.661    17016040.63349  13242642.96949  24478956.3914   24478966.5964
  22774244.790    10248091.54149   7974227.17549  22774244.0194   22774250.2764
  23863285.171   -11292970.66349  -8793701.19749  23863284.5224   23863290.3144
  20809082.599    -4967235.59949  -3868103.59249  20809081.9424   20809086.2164
  21841764.240    -5850293.84649  -4556090.89549  21841763.4724   21841768.5384
  24682863.275    -8127775.91649  -6187793.04649  24682862.3304   24682868.9134
  24147738.984    -4437753.38049  -3448295.79449  24147739.2984   24147743.2084
  25156056.162    16270171.75349  12653955.29349  25156054.0564   25156062.4924
 98  1 27 18 12  0.0020000  0  9  3 14 16 31 18 19 27 13 22
  23923796.951    -5309037.70449  -4124869.01649  23923796.2504   23923802.2474
  24500813.416    17130893.59549  13332138.59549  24500813.6604   24500822.2954
  22791391.115    10338196.07749   8044438.45749  22791390.0194   22791396.5904
  23848354.310   -11371432.43749  -8854840.19749  23848353.3294   23848359.2974
  20806539.176    -4980601.46049  -3878518.54749  20806538.5034   20806542.7374
  21835641.809    -5882467.35149  -4581161.14449  21835640.9904   21835645.7294
  24670185.232    -8194399.38549  -6239707.40049  24670183.9574   24670191.2684
  24130731.589    -4527127.78349  -3517938.17449  24130732.0424   24130735.5544
  25177523.364    16382982.86749  12741859.94549  25177521.1454   25177529.4544
 98  1 27 18 12 30.0020000  0  9  3 14 16 31 18 19 27 13 22
  23920685.580    -5325387.76449  -4137609.35249  23920684.4054   23920691.7374
  24522668.247    17245740.89449  13421629.80749  24522667.9304   24522676.6364
  22808585.794    10428554.72049   8114847.73649  22808585.3054   22808591.5784
  23833454.140   -11449732.83749  -8915853.44649  23833452.7144   23833459.7324
  20804070.520    -4993574.20549  -3888627.18449  20804069.9224   20804074.1494
  21829544.529    -5914508.55949  -4606128.30549  21829543.7214   21829548.6484
  24657507.701    -8261020.32149  -6291619.77649  24657506.7234   24657513.6464
  24113724.722    -4616499.20949  -3587578.20949  24113724.3364   24113729.2484
  25198993.858    16495810.50149  12829777.46549  25198993.8404   25198999.7294
 98  1 27 18 13  0.0020000  0  9  3 14 16 31 18 19 27 13 22
  23917651.462    -5341332.19049  -4150033.60649  23917650.0554   23917657.0994
  24544516.807    17360554.98149  13511095.13749  24544516.2054   24544525.9084
  22825824.910    10519146.38849   8185438.60449  22825824.1514   22825830.6544
  23818582.133   -11527885.19149  -8976751.33249  23818580.4004   23818588.5654
  20801672.485    -5006176.10749  -3898446.84649  20801671.7624   20801676.0784
  21823470.027    -5946429.93549  -4631002.09049  21823469.4174   21823474.2134
  24644824.880    -8327669.21449  -6343553.93649  24644824.2134   24644829.7994
  24096717.794    -4705870.67749  -3657218.29649  24096716.7504   24096721.5744
  25220462.597    16608628.39949  12917687.41249  25220461.2284   25220468.1394
 98  1 27 18 13 30.0020000  0  9  3 14 16 31 18 19 27 13 22
  23914706.793    -5356806.43649  -4162091.49249  23914706.4234   23914711.6834
  24566372.078    17475404.72349  13600588.23649  24566370.7154   24566380.9664
  22843123.302    10610049.88449   8256272.44549  22843121.9664   22843128.6544
  23803752.580   -11605813.96449  -9037474.97249  23803751.1964   23803758.3354
  20799357.077    -5018343.43849  -3907927.88949  20799356.3754   20799360.6454
  21817431.896    -5978160.47449  -4655727.17149  21817431.3874   21817436.4494
  24632148.099    -8394285.89749  -6395462.99449  24632146.9204   24632152.6424
  24079723.538    -4795176.07649  -3726806.89149  24079723.2844   24079727.0164
  25241940.064    16721492.53949  13005633.38149  25241938.9894   25241945.6324
 98  1 27 18 14  0.0020000  0  9  3 14 16 31 18 19 27 13 22
  23911835.708    -5371894.32949  -4173848.29149  23911834.6814   23911840.8944
  24588221.163    17590221.79449  13690055.88849  24588219.2004   24588229.9664
  22860466.940    10701191.43549   8327291.78949  22860466.3384   22860472.8334
  23788952.864   -11683586.60249  -9098076.94449  23788951.5524   23788958.3944
  20797111.277    -5030145.26349  -3917124.11849  20797110.6904   20797115.0404
  21811413.826    -6009785.57649  -4680370.08949  21811413.1434   21811417.9944
  24619464.209    -8460939.72449  -6447400.99549  24619462.6114   24619470.3174
  24062726.860    -4884493.87849  -3796405.14049  24062727.2114   24062730.5964
  25263410.992    16834322.96449  13093553.09949  25263410.7554   25263417.8924
 98  1 27 18 14 30.0020000  0  9  3 14 16 31 18 19 27 13 22
  23909040.101    -5386585.39349  -4185295.87049  23909039.0574   23909045.3714
  24610067.802    17705025.82349  13779513.34249  24610067.1154   24610076.6914
  22877858.592    10792585.00449   8398507.50549  22877858.4384   22877864.9454
  23774185.584   -11761188.60949  -9158545.96649  23774184.1954   23774191.8184
  20794939.478    -5041558.34749  -3926017.43449  20794938.9034   20794943.1834
  21805417.014    -6041299.15849  -4704926.11549  21805416.4544   21805421.4414
  24606778.271    -8527604.04449  -6499347.17349  24606776.5634   24606783.8784
  24045730.877    -4973808.02449  -3866000.53849  24045730.0274   24045734.9874
  25284878.372    16947134.66849  13181458.21449  25284876.7944   25284884.6944
 98  1 27 18 15  0.0020000  0  9  3 14 16 31 18 19 27 13 22
  23906336.903    -5400791.33249  -4196365.42349  23906337.0874   23906340.8824
  24631921.208    17819865.63349  13868998.71349  24631921.8354   24631931.1024
  22895309.332    10884289.01149   8469965.12049  22895308.6684   22895315.2134
  23759463.798   -11838552.06049  -9218829.08749  23759463.0964   23759469.6644
  20792852.792    -5052523.97649  -3934562.08549  20792852.1684   20792856.5174
  21799452.687    -6072641.77249  -4729348.91849  21799452.4134   21799456.8964
  24594104.074    -8594206.85249  -6551245.41549  24594103.9464   24594110.2774
  24028746.771    -5063059.90849  -3935547.43049  24028747.0554   24028751.5944
  25306359.087    17060016.30849  13269417.84149  25306357.7034   25306363.9414
 98  1 27 18 15 30.0020000  0  9  3 14 16 31 18 19 27 13 22
  23903714.727    -5414570.89749  -4207102.70749  23903713.9034   23903720.3184
  24653766.824    17934664.37449  13958452.08349  24653766.3334   24653775.9964
  22912801.451    10976210.64849   8541592.32349  22912800.8084   22912807.2904
  23744772.833   -11915754.01149  -9278986.36749  23744771.9764   23744778.2114
  20790835.551    -5063124.70849  -3942822.39949  20790834.8954   20790839.1994
  21793504.424    -6103900.47149  -4753706.32849  21793503.8414   21793508.6214
  24581426.604    -8660827.22949  -6603157.35049  24581425.2734   24581432.2824
  24011756.251    -5152345.82549  -4005120.83949  24011756.1074   24011760.5194
  25327840.237    17172900.09349  13357379.14049  25327838.9424   25327846.7654
 98  1 27 18 16  0.0020000  0  9  3 14 16 31 18 19 27 13 22
  23901175.165    -5427916.00949  -4217501.45449  23901174.4514   23901179.7504
  24675603.997    18049419.13349  14047871.17349  24675603.4554   24675614.3434
  22930331.612    11068332.09749   8613375.21349  22930330.7524   22930337.5654
  23730112.250   -11992796.09849  -9339019.10449  23730111.7954   23730117.2774
  20788887.063    -5073364.15549  -3950801.19749  20788886.4534   20788890.5864
  21787570.870    -6135081.58249  -4778003.28849  21787570.2594   21787575.0614
  24568744.709    -8727470.60649  -6655087.21849  24568743.8734   24568750.8744
  23994757.525    -5241674.94749  -4074727.93349  23994757.5754   23994761.4624
  25349322.042    17285787.56849  13445343.29849  25349320.4814   25349328.3044
 98  1 27 18 16 30.0020000  0  9  3 14 16 31 18 19 27 13 22
  23898726.402    -5440784.13549  -4227528.51349  23898724.7874   23898730.6054
  24697437.104    18164152.39549  14137273.48849  24697437.0104   24697447.1184
  22947906.103    11160686.39549   8685339.54549  22947905.3364   22947912.0284
  23715486.537   -12069654.73249  -9398908.86449  23715485.3414   23715492.2254
  20787011.070    -5083222.58049  -3958483.09549  20787010.4124   20787014.6564
  21781658.203    -6166152.69649  -4802214.53549  21781657.4224   21781662.2654
  24556063.568    -8794110.39649  -6707014.27249  24556063.2814   24556068.9894
  23977753.503    -5331031.43049  -4144356.32249  23977753.2574   23977757.6814
  25370811.119    17398713.21649  13533337.23249  25370809.6044   25370817.2754
 98  1 27 18 17  0.0020000  0  8  3 14 16 31 18 19 27 13
  23896379.539    -5453116.28349  -4237137.92449  23896378.9114   23896385.0904
  24719275.763    18278914.92649  14226698.60549  24719275.3924   24719285.1474
  22965533.400    11253318.24149   8757520.14749  22965532.9224   22965539.2734
  23700903.188   -12146290.76849  -9458625.19249  23700902.1774   23700907.5444
  20785217.979    -5092645.32249  -3965825.49949  20785217.3834   20785221.5494
  21775778.149    -6197052.45749  -4826292.26149  21775777.5934   21775782.3484
  24543390.154    -8860709.67949  -6758909.77449  24543389.9754   24543395.8684
  23960752.844    -5420370.80349  -4213971.39549  23960752.7464   23960757.3644
 98  1 27 18 17 30.0020000  0  8  3 14 16 31 18 19 27 13
  23894131.682    -5464928.47949  -4246342.18549  23894130.7374   23894136.4374
  24741119.972    18393706.39749  14316146.24449  24741119.4994   24741130.1664
  22983211.368    11346216.23949   8829908.13549  22983211.0544   22983217.0824
  23686361.597   -12222707.29949  -9518170.47049  23686359.8444   23686365.7684
  20783508.569    -5101628.40749  -3972825.31449  20783507.9074   20783512.1294
  21769931.043    -6227779.09049  -4850235.08549  21769930.6214   21769935.5024
  24530724.805    -8927266.76249  -6810772.38849  24530724.6734   24530730.8314
  23943754.605    -5509696.69149  -4283575.95649  23943753.9144   23943758.9994
 98  1 27 18 18  0.0020000  0  8  3 14 16 31 18 19 27 13
  23891972.921    -5476272.93349  -4255181.95449  23891972.6814   23891977.6704
  24762961.533    18508484.01949  14405583.10749  24762961.8084   24762971.3404
  23000932.748    11439342.29549   8902473.84049  23000932.3564   23000938.5154
  23671852.891   -12298950.57649  -9577580.72549  23671851.2084   23671856.9114
  20781875.843    -5110208.21249  -3979510.88749  20781875.2074   20781879.5484
  21764110.749    -6258365.12249  -4874068.34649  21764110.0604   21764114.9164
  24518061.597    -8993812.52749  -6862626.17949  24518060.8404   24518067.4044
  23926753.115    -5599039.66649  -4353193.83549  23926753.1334   23926757.6184
 98  1 27 18 18 30.0020000  0  8  3 14 16 31 18 19 27 13
  23889915.217    -5487086.28749  -4263607.88849  23889914.5464   23889919.9844
  24784814.768    18623322.74749  14495067.60049  24784814.9104   24784823.7514
  23018710.802    11532766.37949   8975271.76549  23018710.1094   23018716.5754
  23657393.489   -12374934.88549  -9636789.19349  23657392.7884   23657398.2284
  20780336.658    -5118296.91049  -3985813.77749  20780336.0734   20780340.3004
  21758332.550    -6288729.57349  -4897728.95249  21758331.8304   21758336.7514
  24505415.797    -9060266.60249  -6914408.52949  24505415.2644   24505421.0994
  23909767.215    -5688301.56449  -4422748.53149  23909766.9834   23909771.3284
 98  1 27 18 19  0.0020000  0  8  3 14 16 31 18 19 27 13
  23887947.264    -5497428.08449  -4271666.37349  23887946.6494   23887951.8484
  24806672.719    18738186.00249  14584571.19349  24806673.4074   24806681.7414
  23036533.045    11626422.44349   9048250.45349  23036532.1714   23036538.3624
  23642978.877   -12450684.11549  -9695814.50149  23642978.1374   23642983.5274
  20778885.116    -5125924.93149  -3991757.70049  20778884.6874   20778888.9234
  21752586.164    -6318927.13549  -4921259.51449  21752585.7384   21752590.2294
  24492777.959    -9126679.13049  -6966158.50149  24492777.4234   24492783.1934
  23892791.116    -5777511.66349  -4492262.86949  23892790.1564   23892796.5364
 98  1 27 18 19 30.0020000  0  8  3 14 16 31 18 19 27 13
  23886053.123    -5507381.49149  -4279422.23049  23886051.5114   23886058.4094
  24828518.934    18852987.37049  14674026.57649  24828519.2844   24828528.4254
  23054384.894    11720233.97749   9121350.29249  23054384.0024   23054390.5794
  23628600.401   -12526243.38549  -9754691.77649  23628600.0614   23628605.5054
  20777506.733    -5133168.41149  -3997401.98149  20777506.2124   20777510.5214
  21746855.556    -6349041.86749  -4944725.53349  21746855.0854   21746859.8614
  24480133.475    -9193126.14749  -7017935.35349  24480132.4174   24480138.1614
  23875813.497    -5866729.30049  -4561783.09049  23875812.6994   23875817.9034
 98  1 27 18 20  0.0020000  0  8  3 14 16 31 18 19 27 13
  23884249.159    -5516861.01449  -4286808.83749  23884248.5294   23884255.0224
  24850369.006    18967809.55249  14763498.16349  24850369.0874   24850379.2374
  23072284.851    11814298.95949   9194647.61749  23072284.2204   23072290.2184
  23614277.996   -12601508.17249  -9813339.59649  23614277.4464   23614283.5134
  20776221.114    -5139924.68549  -4002666.61949  20776220.5524   20776224.6854
  21741157.409    -6378986.07949  -4968058.68549  21741156.9004   21741161.7494
  24467494.061    -9259546.21849  -7069691.20349  24467493.1974   24467499.4374
  23858853.950    -5955852.27149  -4631229.53149  23858853.0804   23858857.8204
 98  1 27 18 20 30.0020000  0  8  3 14 16 31 18 19 27 13
  23882521.392    -5525940.47849  -4293883.70249  23882520.8254   23882526.1204
  24872205.959    19082562.33949  14852915.67549  24872206.1504   24872215.5044
  23090216.779    11908531.54249   9268075.54549  23090216.0364   23090222.1574
  23600000.521   -12676536.54449  -9871803.18749  23599998.5114   23600006.5924
  20775013.540    -5146270.64749  -4007611.53249  20775012.7184   20775017.0464
  21735475.037    -6408847.16949  -4991327.06149  21735474.2144   21735479.0054
  24454843.000    -9326027.60649  -7121494.83749  24454841.0864   24454847.1834
  23841898.701    -6044952.67549  -4700658.38749  23841899.0374   23841902.5744
 98  1 27 18 21  0.0020000  0  8  3 14 16 31 18 19 27 13
  23880873.567    -5534600.02849  -4300631.38449  23880873.2854   23880878.1284
  24894027.941    19197236.37049  14942271.80649  24894027.6534   24894037.2624
  23108186.242    12002961.66249   9341657.39649  23108185.2664   23108191.6904
  23585771.141   -12751311.33749  -9930069.19849  23585769.6714   23585775.9034
  20773884.429    -5152204.06049  -4012234.97949  20773883.6704   20773887.8504
  21729812.555    -6438603.45549  -5014513.76949  21729811.6744   21729816.7334
  24442185.303    -9392543.50749  -7173325.36849  24442184.3584   24442189.8254
  23824946.877    -6134035.35149  -4770073.43849  23824946.9724   23824950.9754
 98  1 27 18 21 30.0020000  0  8  3 14 16 31 18 19 27 13
  23879317.403    -5542777.87749  -4307003.71549  23879316.5534   23879321.5804
  24915840.030    19311858.85949  15031587.75049  24915839.6834   24915849.1574
  23126206.800    12097660.33649   9415448.50549  23126205.5214   23126212.3694
  23571598.208   -12825789.85449  -9988104.34149  23571596.4434   23571603.8784
  20772842.059    -5157681.76349  -4016503.32849  20772841.4114   20772845.7694
  21724185.158    -6468175.54649  -5037556.95249  21724184.5404   21724189.2124
  24429534.156    -9459025.25049  -7225129.28249  24429533.1164   24429539.6474
  23808008.798    -6223045.39049  -4839431.88049  23808009.0284   23808012.7394
 98  1 27 18 22  0.0020000  0  8  3 14 16 31 18 19 27 13
  23877861.883    -5550426.68949  -4312963.82949  23877861.9904   23877867.0864
  24937650.487    19426472.64349  15120896.90949  24937650.0344   24937660.6744
  23144286.653    12192670.74049   9489482.52449  23144285.8844   23144292.5544
  23557484.550   -12899957.28249 -10045897.09549  23557484.7334   23557489.3594
  20771892.081    -5162673.78349  -4020393.22349  20771891.4894   20771895.7254
  21718601.375    -6497518.68849  -5060421.73249  21718600.5164   21718605.5564
  24416901.270    -9525411.41249  -7276858.72749  24416900.8514   24416905.8984
  23791090.107    -6311953.46749  -4908710.87249  23791089.5814   23791092.9734
 98  1 27 18 22 30.0020000  0  8  3 14 16 31 18 19 27 13
  23876493.349    -5557618.36049  -4318567.73949  23876493.4384   23876497.6194
  24959442.763    19540990.99449  15210131.68949  24959442.1284   24959452.3594
  23162407.524    12287896.61249   9563684.44049  23162406.2704   23162413.3444
  23543410.651   -12973916.35449 -10103527.49649  23543408.9374   23543415.9094
  20771014.407    -5167285.96849  -4023987.14349  20771013.7264   20771018.0044
  21713043.960    -6526723.04849  -5083178.37349  21713042.9634   21713047.9104
  24404274.679    -9591764.88849  -7328562.70449  24404273.9534   24404280.3304
  23774170.457    -6400866.47449  -4977993.71149  23774170.0154   23774173.7064
 98  1 27 18 23  0.0020000  0  8  3 14 16 31 18 19 27 13
  23875206.646    -5564379.41349  -4323836.10949  23875206.1894   23875211.5704
  24981211.464    19655385.03049  15299269.61749  24981210.7184   24981221.1094
  23180562.998    12383303.89649   9638027.71549  23180562.0614   23180569.2754
  23529367.108   -13047715.91849 -10161033.60449  23529366.1494   23529371.8294
  20770203.036    -5171549.72949  -4027309.56349  20770202.3684   20770206.5804
  21707506.419    -6555822.88049  -5105853.56149  21707505.5574   21707510.4354
  24391646.523    -9658126.75449  -7380273.20449  24391645.2854   24391652.1514
  23757241.616    -6489827.72649  -5047314.13249  23757242.5334   23757245.0904
 98  1 27 18 23 30.0020000  0  8  3 14 16 31 18 19 27 13
  23874021.344    -5570608.14749  -4328689.69449  23874020.5694   23874026.0214
  25002977.249    19769763.54449  15388395.44049  25002977.0594   25002986.8474
  23198764.902    12478955.47149   9712561.34749  23198764.5594   23198770.9654
  23515369.956   -13121271.64549 -10218349.70949  23515368.4794   23515373.8664
  20769477.310    -5175363.46349  -4030281.31249  20769476.7504   20769480.9034
  21702001.788    -6584749.90949  -5128394.09949  21702001.2774   21702006.0084
  24379029.711    -9724428.47749  -7431936.84149  24379028.7904   24379034.9984
  23740321.318    -6578744.50149  -5116599.89149  23740321.1384   23740324.6894
 98  1 27 18 24  0.0020000  0  8  3 14 16 31 18 19 27 13
  23872932.075    -5576332.10549  -4333149.95649  23872930.5844   23872938.1704
  25024738.538    19884118.79949  15477503.15149  25024738.0944   25024747.9184
  23217003.837    12574801.71649   9787246.66249  23217002.9734   23217010.5784
  23501415.568   -13194602.42849 -10275490.53349  23501412.9004   23501420.2844
  20768832.243    -5178753.45249  -4032922.86949  20768831.8374   20768835.9954
  21696518.811    -6613562.98649  -5150845.84449  21696518.2234   21696523.2404
  24366415.677    -9790715.48549  -7483589.00649  24366415.1724   24366421.4064
  23723401.014    -6667661.23449  -5185885.62149  23723400.9414   23723404.5264
 98  1 27 18 24 30.0020000  0  8  3 14 16 31 18 19 27 13
  23871956.049    -5581461.07049  -4337146.58649  23871954.6104   23871961.9164
  25046511.126    19998533.04849  15566656.82049  25046512.3204   25046520.4604
  23235292.892    12670911.24949   9862137.15249  23235292.2924   23235298.9624
  23487525.017   -13267596.97549 -10332369.35349  23487524.4154   23487529.5194
  20768286.459    -5181621.72449  -4035157.89349  20768285.8854   20768289.9184
  21691074.553    -6642172.66949  -5173139.09749  21691073.8124   21691078.6304
  24353818.736    -9856913.00849  -7535171.43149  24353817.2934   24353824.3904
  23706500.420    -6756474.13449  -5255090.43849  23706499.6024   23706503.9874
 98  1 27 18 25  0.0020000  0  8  3 14 16 31 18 19 27 13
  23871073.623    -5586098.36849  -4340760.10549  23871073.0704   23871078.1074
  25068274.012    20112896.78249  15655771.11149  25068272.9364   25068282.6844
  23253611.767    12767176.86549   9937149.25449  23253611.0804   23253617.6564
  23473682.248   -13340340.46949 -10389052.54949  23473680.5394   23473686.9944
  20767822.324    -5184060.82849  -4037058.50049  20767821.7464   20767825.9044
  21685650.587    -6670675.62849  -5195349.19349  21685649.7874   21685654.8184
  24341219.420    -9923122.60549  -7586763.26949  24341218.1254   24341224.6144
  23689606.566    -6845251.22349  -5324267.35549  23689606.4174   23689609.8654
 98  1 27 18 25 30.0020000  0  8  3 14 16 31 18 19 27 13
  23870293.766    -5590196.86649  -4343953.76649  23870293.6404   23870298.7754
  25090038.200    20227267.41749  15744890.78049  25090037.4784   25090049.1164
  23271971.136    12863655.59149  10012327.41649  23271970.4904   23271977.2694
  23459901.521   -13412757.87949 -10445481.66349  23459900.8194   23459906.6134
  20767450.383    -5186015.63549  -4038581.73249  20767449.9144   20767454.0614
  21680258.668    -6699010.31749  -5217428.16349  21680258.0504   21680262.8084
  24328631.254    -9989273.45149  -7638309.31949  24328629.7504   24328636.5764
  23672734.173    -6933915.93049  -5393356.69149  23672734.5474   23672738.1934
 98  1 27 18 26  0.0020000  0  8  3 14 16 31 18 19 27 13
  23869612.804    -5593775.51949  -4346742.34949  23869612.7514   23869617.6214
  25111798.231    20341615.99249  15833993.24349  25111797.7344   25111809.0534
  23290371.263    12960348.52149  10087672.49049  23290370.4624   23290377.1214
  23446181.981   -13484854.45349 -10501660.80449  23446180.6374   23446186.4694
  20767168.817    -5187495.06049  -4039734.53649  20767168.0494   20767172.2154
  21674898.616    -6727177.50749  -5239376.61849  21674897.8204   21674902.9274
  24316052.962   -10055372.76949  -7689815.22449  24316052.7974   24316058.3344
  23655884.921    -7022459.09449  -5462351.32649  23655884.8024   23655889.7314
 98  1 27 18 26 30.0020000  0  8  3 14 16 31 18 19 27 13
  23869030.810    -5596834.51849  -4349125.99949  23869030.8844   23869035.8684
  25133548.979    20455916.31049  15923058.08749  25133548.7864   25133559.7694
  23308812.863    13057259.47049  10163187.45249  23308812.4054   23308818.9214
  23432522.380   -13556635.87649 -10557594.34649  23432521.2534   23432527.7204
  20766977.183    -5188502.09249  -4040519.23849  20766976.6014   20766980.7864
  21669570.874    -6755175.02149  -5261192.85549  21669570.2994   21669575.0674
  24303483.293   -10121426.60649  -7741285.68149  24303482.7094   24303488.6524
  23639061.149    -7110868.54049  -5531241.76249  23639060.9894   23639065.0484
 98  1 27 18 27  0.0020000  0  8  3 14 16 31 18 19 27 13
  23868537.798    -5599425.55949  -4351145.00349  23868536.4364   23868543.4344
  25155283.348    20570130.05649  16012055.46749  25155283.5904   25155293.8774
  23327289.483    13154354.29349  10238845.69149  23327288.9744   23327295.6754
  23418912.950   -13628153.74749 -10613322.53349  23418912.7744   23418918.2104
  20766866.884    -5189081.83749  -4040970.99249  20766866.2784   20766870.6994
  21664266.153    -6783051.31549  -5282914.63849  21664265.5314   21664270.4854
  24290912.299   -10187487.36549  -7792761.54249  24290911.4224   24290917.5894
  23622250.619    -7199208.43449  -5600078.00349  23622250.6964   23622254.6714
 98  1 27 18 27 30.0020000  0  8  3 14 16 31 18 19 27 13
  23868128.051    -5601578.93149  -4352822.95849  23868127.1894   23868131.8194
  25176998.858    20684244.13349  16100975.19449  25176999.3864   25177009.8534
  23345797.203    13251612.57849  10314631.30249  23345796.1524   23345803.4054
  23405351.329   -13699420.79749 -10668855.25249  23405350.3434   23405356.5134
  20766835.190    -5189248.21349  -4041100.63349  20766834.5304   20766838.8944
  21658980.697    -6810826.62049  -5304557.72049  21658980.3404   21658984.9774
  24278334.610   -10253583.35949  -7844264.84449  24278334.1394   24278339.2584
  23605444.148    -7287527.38349  -5668897.91649  23605442.9824   23605447.5084
 98  1 27 18 28  0.0020000  0  8  3 14 16 31 18 19 27 13
  23867811.513    -5603242.24449  -4354119.02649  23867810.3094   23867814.8274
  25198702.648    20798296.48049  16189846.80149  25198703.6704   25198712.5824
  23364343.256    13349072.11049  10390573.73149  23364342.2124   23364349.3124
  23391846.043   -13770391.15849 -10724156.77649  23391844.7834   23391851.4294
  20766891.343    -5188953.19449  -4040870.75349  20766890.6814   20766895.0754
  21653722.813    -6838457.06149  -5326087.93349  21653722.3404   21653726.9104
  24265757.774   -10319674.57449  -7895764.44149  24265756.8864   24265763.4964
  23588649.893    -7375781.68549  -5737667.46249  23588648.8784   23588654.3144
 98  1 27 18 28 30.0020000  0  8  3 14 16 31 18 19 27 13
  23867604.996    -5604327.16149  -4354964.40149  23867604.2314   23867608.8344
  25220413.866    20912387.96149  16278748.92149  25220413.8914   25220425.5204
  23382944.007    13446819.18149  10466740.21949  23382943.4354   23382949.7404
  23378414.550   -13840973.83649 -10779156.20849  23378413.8114   23378419.5934
  20767050.020    -5188119.47049  -4040221.10049  20767049.4214   20767053.6534
  21648510.966    -6865845.52049  -5347429.57749  21648510.3284   21648515.2684
  24253201.157   -10385659.64649  -7947181.32849  24253200.3794   24253205.8264
  23571882.406    -7463895.16749  -5806327.28549  23571882.8354   23571886.0674
 98  1 27 18 29  0.0020000  0  8  3 14 16 31 18 19 27 13
  23867496.335    -5604898.01449  -4355409.19949  23867496.0964   23867500.9664
  25242124.007    21026474.41649  16367647.08349  25242124.3514   25242135.1184
  23401590.477    13544806.72949  10543094.08249  23401589.6574   23401596.8254
  23365047.956   -13911215.98849 -10833890.29749  23365047.4144   23365053.0734
  20767302.772    -5186791.34949  -4039186.20649  20767302.1464   20767306.4394
  21643337.812    -6893030.77449  -5368612.88949  21643337.2294   21643342.1414
  24240656.719   -10451580.61649  -7998548.26449  24240656.1634   24240661.9544
  23555132.666    -7551915.54249  -5874914.56449  23555133.4004   23555136.2014
 98  1 27 18 29 30.0020000  0  8  3 14 16 31 18 19 27 13
  23867476.472    -5605002.18349  -4355490.33449  23867474.8714   23867482.2174
  25263819.616    21140484.80649  16456485.96649  25263819.9114   25263831.3414
  23420272.387    13642980.19949  10619592.82349  23420271.5834   23420278.5994
  23351737.314   -13981164.37649 -10888395.47749  23351736.7794   23351742.6594
  20767639.619    -5185021.29749  -4037806.95049  20767638.9334   20767643.1424
  21638192.318    -6920070.48349  -5389682.78449  21638191.8024   21638196.2924
  24228114.467   -10517490.50349  -8049906.56249  24228114.1064   24228119.9944
  23538394.500    -7639875.24749  -5943454.55549  23538395.0884   23538399.0844
 98  1 27 18 30  0.0020000  0  8  3 14 16 31 18 19 27 13
  23867552.949    -5604600.47349  -4355177.27349  23867552.6074   23867558.8284
  25285501.070    21254420.30149  16545266.47449  25285501.9514   25285512.1024
  23438993.014    13741357.35249  10696250.27849  23438992.0934   23438998.7664
  23338481.644   -14050823.54749 -10942675.30049  23338480.5564   23338486.3254
  20768062.424    -5182799.37049  -4036075.58449  20768061.7004   20768065.9674
  21633077.302    -6946950.20749  -5410628.02049  21633076.6234   21633081.3534
  24215579.181   -10583363.72749  -8101236.30849  24215578.4344   24215584.6204
  23521674.165    -7727740.97449  -6011921.32349  23521673.0854   23521678.5664
 98  1 27 18 30 30.0020000  0  8  3 14 16 31 18 19 27 13
  23867710.805    -5603771.09449  -4354530.96349  23867709.7284   23867716.1434
  25307154.029    21368205.85249  16633930.16249  25307154.4324   25307166.5444
  23457738.820    13839866.83349  10773010.85449  23457738.0564   23457745.0554
  23325267.475   -14120264.66349 -10996785.21149  23325266.0944   23325271.7504
  20768560.156    -5180183.77249  -4034037.46449  20768559.5054   20768563.9494
  21627979.378    -6973740.12949  -5431503.28149  21627978.7424   21627983.5484
  24203038.025   -10649267.51449  -8152589.84349  24203037.1864   24203043.5904
  23504956.048    -7815595.14849  -6080379.08349  23504955.5784   23504960.3834
 98  1 27 18 31  0.0020000  0  8  3 14 16 31 18 19 27 13
  23867957.278    -5602475.47649  -4353521.33949  23867956.2484   23867963.0634
  25328785.659    21481879.14149  16722506.36049  25328786.5564   25328796.7374
  23476515.825    13938540.54249  10849899.39049  23476515.1974   23476521.8024
  23312104.846   -14189434.63649 -11050683.82249  23312103.4974   23312109.6324
  20769144.285    -5177114.10949  -4031645.52449  20769143.5914   20769147.7564
  21622906.489    -7000398.51949  -5452276.04449  21622906.0144   21622910.5964
  24190498.104   -10715164.97349  -8203938.46349  24190497.3174   24190502.8624
  23488250.168    -7903385.04849  -6148786.77649  23488249.5534   23488253.8004
 98  1 27 18 31 30.0020000  0  9  3 14 16 31 18 19 27 13  2
  23868290.687    -5600723.17349  -4352155.85549  23868289.7974   23868295.7524
  25350390.195    21595409.67749  16810971.35449  25350391.3394   25350400.2614
  23495313.850    14037324.30549  10926873.68849  23495312.9934   23495320.3644
  23298988.403   -14258361.50249 -11104393.01349  23298987.0674   23298993.1874
  20769810.161    -5173615.13749  -4028919.05849  20769809.6104   20769813.8944
  21617851.073    -7026964.80249  -5472977.03949  21617850.3144   21617855.1364
  24177955.397   -10781077.19749  -8255298.57649  24177954.2414   24177960.7714
  23471551.119    -7991138.94049  -6217166.38949  23471551.6534   23471555.4384
  25677571.731    -3338664.67749  -2357162.23549  25677570.0484   25677580.4154
 98  1 27 18 32  0.0020000  0  9  3 14 16 31 18 19 27 13  2
  23868711.722    -5598510.38249  -4350431.56049  23868711.4554   23868716.5074
  25371971.185    21708816.33449  16899339.79549  25371971.4204   25371982.2094
  23514130.550    14136206.31849  11003924.53749  23514129.7974   23514136.8074
  23285921.934   -14327026.17949 -11157897.88949  23285921.2424   23285927.3414
  20770559.699    -5169676.38949  -4025849.91149  20770559.2414   20770563.4064
  21612815.282    -7053428.22549  -5493597.88549  21612814.4904   21612819.3784
  24165412.624   -10846989.98949  -8306659.13749  24165411.3444   24165418.3514
  23454858.654    -8078858.63449  -6285519.37449  23454858.0704   23454862.7454
  25660475.189    -3428507.09549  -2427169.08749  25660473.9044   25660483.4804
 98  1 27 18 32 30.0020000  0  9  3 10 16 31 18 19 27 13  2
  23869209.836    -5595893.13949  -4348392.09349  23869209.2604   23869215.3644
  25441495.047    -4306910.76649  -3345703.20549  25441492.7814   25441503.1464
  23532955.298    14235130.92849  11081008.58749  23532954.4254   23532962.0074
  23272902.063   -14395446.12249 -11211212.07149  23272901.4064   23272907.1684
  20771383.989    -5165344.94749  -4022474.76849  20771383.2514   20771387.5884
  21607790.986    -7079830.92349  -5514171.41249  21607790.2684   21607795.1444
  24152859.697   -10912956.01849  -8358061.18449  24152858.6144   24152865.0134
  23438163.498    -8166592.13249  -6353883.11749  23438162.7184   23438166.7904
  25643383.242    -3518325.83149  -2497157.48749  25643381.6264   25643391.1614
 98  1 27 18 33  0.0020000  0  9  3 10 16 31 18 19 27 13  2
  23869804.237    -5592769.43049  -4345957.99249  23869804.0494   23869809.5564
  25428645.078    -4374437.82349  -3398321.69249  25428643.5564   25428650.5554
  23551802.435    14334173.41049  11158184.47549  23551801.6274   23551809.1754
  23259944.166   -14463540.57049 -11264272.62749  23259943.5664   23259949.0804
  20772294.801    -5160558.67349  -4018745.21349  20772294.4104   20772298.6364
  21602792.814    -7106096.49749  -5534638.09249  21602792.2184   21602797.0224
  24140311.230   -10978898.65949  -8409445.01649  24140309.9014   24140316.6884
  23421482.190    -8254252.77649  -6422190.07849  23421481.8754   23421486.0324
  25626310.429    -3608043.08049  -2567066.82649  25626308.7764   25626317.9104
 98  1 27 18 33 30.0020000  0  9  3 10 16 31 18 19 27 13  2
  23870488.898    -5589171.77949  -4343154.57649  23870488.2654   23870494.4754
  25415862.317    -4441611.43549  -3450664.75549  25415860.6164   25415867.7654
  23570664.114    14433291.87649  11235419.57549  23570663.5494   23570671.2304
  23247038.809   -14531358.85149 -11317117.98549  23247038.1004   23247043.1844
  20773282.039    -5155370.82049  -4014702.73749  20773281.4174   20773285.6014
  21597809.937    -7132281.81049  -5555042.22849  21597809.1584   21597814.1934
  24127757.719   -11044867.52449  -8460849.28749  24127756.7824   24127762.9654
  23404803.946    -8341897.63249  -6490484.75249  23404804.0314   23404807.4984
  25609247.876    -3697706.88649  -2636934.53049  25609246.3884   25609255.1274
 98  1 27 18 34  0.0020000  0  9  3 10 16 31 18 19 27 13  2
  23871272.929    -5585051.34449  -4339943.82049  23871271.9224   23871277.4484
  25403152.856    -4508399.80849  -3502707.65249  25403151.7244   25403158.5574
  23589553.965    14532558.49049  11312770.12449  23589552.8424   23589560.0914
  23234195.894   -14598848.67049 -11369707.38649  23234194.7224   23234199.8034
  20774353.594    -5149740.06249  -4010315.14349  20774352.9054   20774357.4494
  21592855.457    -7158317.92149  -5575330.10549  21592854.9984   21592859.6484
  24115208.489   -11110814.11649  -8512236.20049  24115207.1994   24115213.7264
  23388139.892    -8429468.14649  -6558721.49049  23388139.5284   23388143.7544
  25592202.919    -3787277.92149  -2706729.94849  25592201.1484   25592210.1544
 98  1 27 18 34 30.0020000  0  9  3 10 16 31 18 19 27 13  2
  23872148.905    -5580447.87949  -4336356.67549  23872149.5654   23872153.9934
  25390505.907    -4574859.84949  -3554494.68949  25390503.7804   25390513.0004
  23608467.717    14631950.41749  11390218.30749  23608467.5584   23608473.8014
  23221404.693   -14666066.56049 -11422084.91049  23221402.9374   23221409.0954
  20775502.083    -5143704.67349  -4005612.25149  20775501.3504   20775505.6054
  21587922.906    -7184238.99949  -5595528.34449  21587922.1824   21587926.7804
  24102654.617   -11176785.24749  -8563642.22249  24102654.6194   24102659.3354
  23371483.640    -8516997.53349  -6626926.16949  23371483.5394   23371486.8954
  25575167.218    -3876800.73549  -2776487.80049  25575165.1724   25575175.0234
 98  1 27 18 35  0.0020000  0  9  3 10 16 31 18 19 27 13  2
  23873110.554    -5575394.08149  -4332418.64549  23873109.6804   23873116.4284
  25377917.731    -4641011.41849  -3606041.36749  25377915.2554   25377924.0614
  23627400.046    14731439.89549  11467742.50649  23627399.4824   23627406.1704
  23208658.470   -14733047.70149 -11474277.94449  23208656.8714   23208661.8954
  20776724.775    -5137279.36749  -4000605.53049  20776723.9934   20776728.3434
  21583006.292    -7210075.95149  -5615661.03149  21583005.5564   21583010.4844
  24090091.134   -11242806.69649  -8615087.46649  24090089.8984   24090095.8124
  23354831.394    -8604505.41249  -6695114.10649  23354830.9074   23354835.1454
  25558136.211    -3966298.72749  -2846226.29749  25558134.5924   25558142.9214
 98  1 27 18 35 30.0020000  0  9  3 10 16 31 18 19 27 13  2
  23874161.732    -5569870.18649  -4328114.30849  23874160.9324   23874167.6714
  25365394.792    -4706820.41849  -3657321.08149  25365393.8534   25365400.4774
  23646355.740    14831052.37449  11545362.54649  23646355.4194   23646362.0554
  23195965.679   -14799748.50549 -11526252.53949  23195964.4084   23195970.2124
  20778028.835    -5130426.65449  -3995265.76649  20778028.2104   20778032.5154
  21578112.951    -7235790.53849  -5635698.37149  21578112.5244   21578117.0944
  24077523.592   -11308849.75849  -8666549.55749  24077522.8084   24077528.7824
  23338191.633    -8691947.58649  -6763250.83449  23338192.0064   23338194.7514
  25541116.649    -4055736.19749  -2915917.64549  25541115.3744   25541123.2664
 98  1 27 18 36  0.0020000  0  9  3 10 16 31 18 19 27 13  2
  23875310.012    -5563835.81049  -4323412.20349  23875309.4374   23875313.5684
  25352944.605    -4772246.47949  -3708302.40249  25352943.2334   25352950.4534
  23665341.891    14930824.84749  11623107.24749  23665340.3464   23665347.9454
  23183335.774   -14866119.01049 -11577969.77349  23183334.8714   23183340.3984
  20779422.091    -5123105.01749  -3989560.60949  20779421.3164   20779425.6894
  21573250.939    -7261340.86049  -5655607.71249  21573250.3104   21573254.9424
  24064958.701   -11374878.69149  -8718000.62849  24064957.6964   24064963.8634
  23321575.751    -8779264.86249  -6831290.23749  23321575.3494   23321579.5614
  25524119.839    -4145053.80249  -2985515.58949  25524117.9514   25524126.2634
 98  1 27 18 36 30.0020000  0  9  3 10 16 31 18 19 27 13  2
  23876533.684    -5557405.48649  -4318401.57449  23876532.6504   23876538.1784
  25340547.258    -4837394.23449  -3759066.86849  25340544.7164   25340554.3984
  23684333.859    15030628.10449  11700875.95249  23684332.6484   23684339.7184
  23170750.476   -14932254.97149 -11629504.23049  23170748.9244   23170754.9374
  20780885.097    -5115416.93949  -3983569.90749  20780884.4234   20780888.6074
  21568395.174    -7286858.12149  -5675491.28549  21568394.4814   21568399.3614
  24052373.117   -11441016.16749  -8769536.27149  24052371.9594   24052377.2064
  23304960.228    -8866580.05749  -6899328.02149  23304960.0124   23304964.4124
  25507125.841    -4234356.59249  -3055101.99849  25507124.4254   25507133.2614
 98  1 27 18 37  0.0020000  0  9  3 10 16 31 18 19 27 13  2
  23877855.486    -5550459.57749  -4312989.19249  23877854.9154   23877859.5734
  25328228.734    -4902128.44749  -3809509.08749  25328226.6644   25328235.2644
  23703350.636    15130561.82549  11778746.30449  23703349.4434   23703356.8384
  23158237.725   -14998009.61049 -11680741.56249  23158236.2174   23158242.6614
  20782439.012    -5107251.17949  -3977206.99249  20782438.4574   20782442.7514
  21563566.672    -7312232.14149  -5695263.24849  21563565.9344   21563570.7344
  24039791.253   -11507133.84749  -8821056.50449  24039790.1504   24039796.4254
  23288368.196    -8953771.69849  -6967269.53149  23288368.2084   23288371.2044
  25490157.256    -4323525.88749  -3124584.37949  25490153.9544   25490163.7704
 98  1 27 18 37 30.0020000  0  9  3 10 16 31 18 19 27 13  2
  23879266.981    -5543042.36649  -4307209.56449  23879266.2784   23879272.0594
  25315978.223    -4966505.66749  -3859673.14149  25315977.5934   25315983.9074
  23722384.179    15230583.85449  11856685.46449  23722383.4164   23722390.0764
  23145791.182   -15063416.63849 -11731708.02649  23145790.2734   23145795.6264
  20784073.469    -5098661.96149  -3970514.10849  20784072.6264   20784076.9824
  21558755.920    -7337512.73649  -5714962.41149  21558754.9554   21558759.9404
  24027204.024   -11573279.86149  -8872598.80849  24027202.6444   24027209.2474
  23271790.995    -9040885.62949  -7035150.48549  23271790.3454   23271794.6294
  25473207.060    -4412598.54449  -3193991.44749  25473204.4084   25473214.1614
 98  1 27 18 38  0.0020000  0  9  3 10 16 31 18 19 27 13  2
  23880785.246    -5535063.83949  -4300992.55049  23880784.0974   23880790.2254
  25303812.400    -5030437.12149  -3909489.84849  25303811.4464   25303818.7984
  23741453.275    15330792.51849  11934770.05349  23741452.3454   23741459.5734
  23133428.431   -15128382.81949 -11782330.97749  23133426.8924   23133432.8734
  20785807.649    -5089548.74449  -3963412.91349  20785806.9554   20785811.1524
  21553980.907    -7362605.57649  -5734515.27149  21553980.1904   21553984.9094
  24014630.515   -11639354.15149  -8924085.23349  24014629.3484   24014634.9904
  23255245.933    -9127830.45149  -7102899.68549  23255245.9984   23255249.3584
  25456292.884    -4501482.10449  -3263251.16749  25456291.2564   25456301.1944
 98  1 27 18 38 30.0020000  0  9  3 10 16 31 18 19 27 13  2
  23882398.197    -5526587.99249  -4294388.01649  23882397.7604   23882402.4784
  25291721.988    -5093972.74949  -3958998.09449  25291720.8164   25291727.6894
  23760548.467    15431138.17649  12012961.39949  23760547.9254   23760554.6454
  23121141.572   -15192950.45349 -11832643.37649  23121140.0184   23121145.8224
  20787633.742    -5079952.59849  -3955935.40849  20787633.0514   20787637.2884
  21549235.321    -7387543.78649  -5753947.63749  21549234.5054   21549239.3224
  24002065.293   -11705384.69749  -8975537.57749  24002064.2674   24002070.1114
  23238723.525    -9214656.39049  -7170556.23049  23238723.4474   23238727.7324
  25439404.989    -4590227.86649  -3332403.52949  25439403.3484   25439413.4574
 98  1 27 18 39  0.0020000  0  9  3 10 16 31 18 19 27 13  2
  23884090.785    -5517693.45849  -4287457.23649  23884089.8194   23884095.2144
  25279689.384    -5157204.16249  -4008269.31149  25279687.5074   25279694.7964
  23779654.169    15531538.74649  12091195.52949  23779653.4884   23779660.0214
  23108912.592   -15257214.01949 -11882718.84549  23108911.4534   23108916.6674
  20789534.621    -5069963.46849  -3948151.68449  20789533.8854   20789538.1264
  21544504.402    -7412404.82149  -5773319.87049  21544503.5414   21544508.4544
  23989493.490   -11771449.54349  -9027016.63849  23989492.5004   23989498.4244
  23222210.781    -9301431.26649  -7238172.99349  23222209.4394   23222214.6224
  25422528.069    -4678915.31049  -3401510.41149  25422526.4414   25422536.9144
 98  1 27 18 39 30.0020000  0  9  3 10 16 31 18 19 27 13  2
  23885881.865    -5508281.20049  -4280123.05449  23885880.8994   23885887.4684
  25267729.318    -5220054.64849  -4057243.69449  25267727.8264   25267736.0734
  23798789.255    15632093.90049  12169550.11249  23798787.9824   23798795.6714
  23096753.506   -15321109.87949 -11932507.79049  23096752.4414   23096757.6904
  20791529.243    -5059481.60949  -3939984.01649  20791528.7944   20791533.0584
  21539808.869    -7437080.01249  -5792547.29149  21539808.0714   21539812.8914
  23976932.021   -11837460.28349  -9078453.54449  23976930.8664   23976936.7074
  23205724.727    -9388066.03949  -7305680.57849  23205723.8224   23205728.3314
  25405678.888    -4767457.02049  -3470503.74049  25405677.5954   25405686.7204
 98  1 27 18 40  0.0020000  0  9  3 10 16 31 18 19 27 13  2
  23887758.965    -5498416.92949  -4272436.63249  23887758.9494   23887763.5234
  25255830.209    -5282584.58849  -4105968.29749  25255828.5544   25255836.1514
  23817938.107    15732721.52249  12247961.15849  23817937.6754   23817943.9674
  23084649.663   -15384715.86449 -11982070.84449  23084648.6204   23084653.4694
  20793604.680    -5048575.49549  -3931485.76049  20793604.0474   20793608.4074
  21535138.088    -7461625.05249  -5811673.29649  21535137.4854   21535142.1294
  23964368.044   -11903484.48749  -9129900.94349  23964367.1944   23964372.3434
  23189251.224    -9474634.87349  -7373136.79249  23189251.2154   23189254.6204
  25388841.576    -4855937.41949  -3539449.28149  25388840.9514   25388848.8654
 98  1 27 18 40 30.0020000  0  9  3 10 16 31 18 19 27 13  2
  23889728.734    -5488065.68549  -4264370.76349  23889728.2254   23889733.7274
  25243996.034    -5344773.57849  -4154427.22149  25243994.5764   25244002.2814
  23837104.593    15833441.76349  12326444.37649  23837103.1074   23837110.9454
  23072604.863   -15448011.81849 -12031392.31249  23072604.0394   23072608.9604
  20795766.724    -5037214.06249  -3922632.71149  20795766.1814   20795770.3434
  21530496.178    -7486018.36249  -5830681.06749  21530495.2284   21530500.1264
  23951805.108   -11969502.73949  -9181343.70249  23951803.9114   23951810.4804
  23172793.372    -9561121.29949  -7440528.78649  23172792.6994   23172796.4084
  25372016.807    -4944351.85049  -3608343.44749  25372015.4594   25372023.9244
 98  1 27 18 41  0.0020000  0  9  3 10 16 31 18 19 27 13  2
  23891797.005    -5477196.73549  -4255901.48949  23891796.3144   23891802.4674
  25232231.583    -5406596.49649  -4202600.90249  25232230.4204   25232238.2194
  23856291.227    15934267.83149  12405010.06649  23856290.9634   23856297.3394
  23060622.066   -15510981.76949 -12080459.75749  23060621.2144   23060626.1544
  20798016.901    -5025389.54449  -3913418.82049  20798016.1534   20798020.4694
  21525883.244    -7510259.49149  -5849570.26549  21525882.4124   21525887.2224
  23939243.210   -12035516.18949  -9232782.73549  23939242.3074   23939248.3764
  23156353.574    -9647512.70549  -7507846.74149  23156353.1904   23156356.8264
  25355203.818    -5032703.60649  -3677188.76049  25355202.8284   25355211.5524
 98  1 27 18 41 30.0020000  0  9  3 10 16 31 18 19 27 13  2
  23893964.080    -5465808.75549  -4247027.77249  23893963.2734   23893969.5144
  25220541.674    -5468028.28149  -4250469.81449  25220540.3434   25220548.4674
  23875501.491    16035218.26549  12483672.65049  23875500.3154   23875507.8894
  23048708.821   -15573586.23949 -12129242.41449  23048708.3014   23048712.5004
  20800361.638    -5013067.90449  -3903817.55749  20800361.1304   20800365.4284
  21521301.791    -7534335.18949  -5868330.55449  21521300.9234   21521305.8834
  23926687.277   -12101498.21049  -9284197.24849  23926685.9504   23926691.7104
  23139934.549    -9733794.81949  -7575079.53249  23139933.7074   23139937.9094
  25338406.669    -5120972.12649  -3745969.24349  25338404.7074   25338414.1734
 98  1 27 18 42  0.0020000  0  9  3 10 16 31 18 19 27 13  2
  23896240.740    -5453844.75849  -4237705.20549  23896239.2984   23896245.6684
  25208940.669    -5528992.47349  -4297974.35549  25208939.3044   25208947.2554
  23894746.750    16136352.68049  12562478.59449  23894746.4814   23894753.2564
  23036884.962   -15635721.09449 -12177659.14149  23036883.9174   23036888.6854
  20802813.883    -5000181.13949  -3893775.93949  20802813.1024   20802817.4114
  21516760.804    -7558198.34549  -5886925.22649  21516760.1174   21516764.6904
  23914149.841   -12167383.08249  -9335536.07849  23914148.4804   23914155.2614
  23123551.777    -9819886.95849  -7642164.28649  23123551.5484   23123555.8684
  25321641.504    -5209072.87249  -3814618.98849  25321639.8044   25321649.0794
 98  1 27 18 42 30.0020000  0  9  3 10 16 31 18 19 27 13  2
  23898601.401    -5441440.04749  -4228039.23649  23898601.0934   23898606.1664
  25197406.553    -5589604.48649  -4345204.47749  25197405.3294   25197412.6034
  23914001.024    16237534.35249  12641321.36549  23914000.9824   23914006.4684
  23025127.370   -15697507.41949 -12225804.29249  23025126.0274   23025131.8994
  20805348.304    -4986862.84249  -3883398.06149  20805347.4584   20805351.9484
  21512232.474    -7581994.85849  -5905467.97349  21512231.8724   21512236.7054
  23901606.619   -12233297.90149  -9386898.22649  23901605.6734   23901610.7734
  23107182.433    -9905908.50149  -7709194.03749  23107182.1314   23107185.1454
  25304888.549    -5297109.83849  -3883219.04549  25304887.4014   25304896.0294
 98  1 27 18 43  0.0020000  0  9  3 10 16 31 18 19 27 13  2
  23901050.502    -5428570.25449  -4218010.84949  23901049.6184   23901054.8554
  25185948.922    -5649814.55849  -4392121.39049  25185947.8614   25185954.6854
  23933267.193    16338778.04449  12720212.45949  23933266.6044   23933273.3964
  23013444.233   -15758902.36049 -12273644.46649  23013443.3554   23013448.3534
  20807966.863    -4973102.19049  -3872675.49049  20807966.1454   20807970.7914
  21507721.549    -7605700.04949  -5923939.55549  21507720.7154   21507725.5244
  23889061.968   -12299220.13449  -9438266.16149  23889061.6074   23889067.7004
  23090835.466    -9991812.25949  -7776132.00949  23090835.0484   23090838.3384
  25288159.804    -5385019.12649  -3951719.61549  25288158.0524   25288166.9174
 98  1 27 18 43 30.0020000  0  9  3 10 16 31 18 19 27 13  2
  23903602.486    -5415159.91749  -4207561.26049  23903601.6614   23903607.6934
  25174581.295    -5709551.84549  -4438669.91449  25174579.4614   25174587.8454
  23952554.531    16440133.19449  12799190.39549  23952554.5924   23952561.7674
  23001848.230   -15819839.47749 -12321127.90449  23001847.1734   23001853.0084
  20810682.792    -4958829.73349  -3861554.12149  20810682.0254   20810686.3034
  21503244.458    -7629227.28249  -5942272.48249  21503243.8844   21503248.5044
  23876530.060   -12365075.37149  -9489581.90149  23876529.0834   23876535.6854
  23074524.358   -10077527.69049  -7842923.25049  23074524.0294   23074528.6544
  25271473.146    -5472707.42449  -4020047.98749  25271471.7244   25271480.4184
 98  1 27 18 44  0.0020000  0  9  3 10 16 31 18 19 27 13  2
  23906263.383    -5401177.10349  -4196665.58749  23906261.9594   23906268.9544
  25163306.850    -5768798.86649  -4484836.40349  25163305.7364   25163313.1964
  23971863.563    16541602.11449  12878256.99649  23971862.7254   23971869.7914
  22990337.381   -15880328.96449 -12368262.52649  22990336.3114   22990342.2504
  20813493.914    -4944057.34549  -3850043.18249  20813493.1794   20813497.4544
  21498804.940    -7652557.16349  -5960451.61149  21498804.1984   21498809.0634
  23864010.217   -12430867.22349  -9540848.24049  23864008.7314   23864015.3694
  23058250.542   -10163047.15049  -7909561.75949  23058250.3654   23058253.7074
  25254827.620    -5560179.75449  -4088208.07249  25254826.2884   25254835.5164
 98  1 27 18 44 30.0020000  0  9  3 10 16 31 18 19 27 13  2
  23909004.599    -5386772.00949  -4185440.86249  23909003.9514   23909009.6674
  25152096.017    -5827711.84949  -4530742.61349  25152094.1284   25152101.5034
  23991165.392    16643033.37249  12957294.23949  23991164.2334   23991171.1774
  22978877.754   -15940549.47849 -12415187.55949  22978876.3554   22978882.3784
  20816368.335    -4928952.19549  -3838272.95049  20816367.7094   20816371.9744
  21494373.776    -7675843.07249  -5978596.47849  21494372.9354   21494377.7384
  23851472.096   -12496755.31649  -9592189.57449  23851470.9004   23851477.5484
  23041981.558   -10248541.08349  -7976180.39149  23041981.7084   23041984.9994
  25238190.026    -5647610.60349  -4156335.82649  25238188.4364   25238197.8574
 98  1 27 18 45  0.0020000  0  9  3 10 16 31 18 19 27 13  2
  23911835.261    -5371896.64149  -4173849.70549  23911833.8424   23911839.1834
  25140954.960    -5886258.62649  -4576363.45649  25140953.8704   25140959.9134
  24010470.457    16744482.26249  13036345.21949  24010470.0874   24010476.8814
  22967479.386   -16000448.29549 -12461861.93649  22967478.8454   22967484.0084
  20819319.003    -4913446.37649  -3826190.51449  20819318.5664   20819322.7664
  21489962.356    -7699025.22549  -5996660.49749  21489961.7294   21489966.4324
  23838926.268   -12562683.96149  -9643562.51349  23838925.0064   23838931.5284
  23025727.886   -10333954.45449  -8042736.23849  23025727.6504   23025731.6804
  25221567.367    -5734962.65449  -4224402.18549  25221565.6934   25221574.2524
 98  1 27 18 45 30.0020000  0  9  3 10 16 31 18 19 27 13  2
  23914770.601    -5356471.37249  -4161830.05249  23914770.6094   23914775.6384
  25129897.387    -5944366.79349  -4621642.51749  25129895.0364   25129902.5374
  24029798.387    16846050.56049  13115489.24549  24029798.3374   24029804.4044
  22956157.280   -16059946.53249 -12508224.16849  22956156.6434   22956161.2964
  20822366.157    -4897433.79449  -3813713.19449  20822365.5364   20822369.8234
  21485588.122    -7722011.86449  -6014572.16649  21485587.2174   21485592.1904
  23826393.370   -12628544.58549  -9694882.45349  23826392.8714   23826398.4494
  23009504.529   -10419208.24749  -8109167.74149  23009504.0524   23009508.1654
  25204970.993    -5822177.07649  -4292361.29449  25204969.9624   25204977.9724
 98  1 27 18 46  0.0020000  0  9  3 10 16 31 18 19 27 13  2
  23917797.642    -5340563.88949  -4149434.64949  23917797.1344   23917802.2684
  25118914.110    -6002084.17449  -4666617.09349  25118912.4694   25118920.0464
  24049143.620    16947709.82949  13194704.15349  24049143.3154   24049150.0044
  22944902.785   -16119089.51349 -12554309.57849  22944901.9854   22944907.1834
  20825503.132    -4880949.04849  -3800867.95649  20825502.3854   20825506.6324
  21481237.574    -7744874.17349  -6032386.95749  21481236.9594   21481241.4414
  23813864.457   -12694384.27549  -9746186.08249  23813863.9754   23813869.4714
  22993304.131   -10504341.71449  -8175505.48649  22993304.3174   22993308.0174
  25188390.003    -5909310.07549  -4360256.95749  25188389.0414   25188397.6364
 98  1 27 18 46 30.0020000  0  9  3 10 16 31 18 19 27 13  2
  23920916.519    -5324173.80949  -4136663.21349  23920916.1744   23920921.4324
  25108008.097    -6059395.39149  -4711275.17049  25108006.2594   25108013.9614
  24068507.364    17049466.57849  13273995.02149  24068506.7004   24068513.6294
  22933722.465   -16177842.32549 -12600090.95549  22933721.6754   22933727.1824
  20828735.082    -4863964.72849  -3787633.44249  20828734.1774   20828738.7024
  21476911.018    -7767610.47449  -6050103.56549  21476910.2644   21476915.1684
  23801342.208   -12760188.94049  -9797462.42049  23801341.2544   23801347.2484
  22977130.820   -10589332.60549  -8241732.13549  22977130.3944   22977134.5824
  25171829.991    -5996332.79149  -4428066.67249  25171829.2554   25171836.7874
 98  1 27 18 47  0.0020000  0  9  3 10 16 31 18 19 27 13  2
  23924121.059    -5307333.57949  -4123541.00649  23924120.8364   23924126.4894
  25097173.489    -6116331.67149  -4755641.07749  25097172.7194   25097179.0214
  24087880.758    17151274.00149  13353325.36649  24087879.3484   24087887.3864
  22922610.975   -16236233.36049 -12645590.42849  22922609.8674   22922615.4774
  20832056.939    -4846508.33949  -3774031.07849  20832056.4774   20832060.7194
  21472602.247    -7790253.36849  -6067747.38049  21472601.6474   21472606.2874
  23788819.085   -12825998.57749  -9848742.62749  23788818.1444   23788823.9554
  22960980.282   -10674204.14149  -8307865.78149  22960980.6044   22960984.0724
  25155284.255    -6083280.57649  -4495818.00349  25155283.5604   25155290.0384
 98  1 27 18 47 30.0020000  0  9  3 10 16 31 18 19 27 13  2
  23927431.351    -5289937.86749  -4109985.94149  23927430.5454   23927436.2814
  25086428.470    -6172797.13849  -4799640.11649  25086427.7374   25086433.7674
  24107281.470    17253224.84849  13432767.48249  24107280.8074   24107288.1934
  22911585.123   -16294174.03749 -12690738.97949  22911584.4004   22911589.4414
  20835480.346    -4828518.39949  -3760012.95949  20835479.7484   20835483.9454
  21468326.610    -7812721.75349  -6085255.21449  21468326.0074   21468330.7024
  23776310.046   -12891733.97449  -9899964.99049  23776309.4534   23776315.1244
  22944868.851   -10758870.26449  -8373839.35449  22944868.4384   22944872.3264
  25138769.692    -6170064.43849  -4563441.58649  25138766.9444   25138775.6534
 98  1 27 18 48  0.0020000  0  9  3 10 16 31 18 19 27 13  2
  23930856.785    -5271937.60849  -4095959.80949  23930855.7034   23930862.1714
  25075782.269    -6228743.33149  -4843234.54349  25075781.7784   25075786.5804
  24126715.537    17355351.03949  13512346.22249  24126715.2734   24126721.6044
  22900655.213   -16351610.82249 -12735494.88849  22900653.6674   22900659.4384
  20839010.862    -4809965.52649  -3745556.19649  20839010.3134   20839014.5134
  21464092.144    -7834974.07649  -6102594.69549  21464091.6494   21464096.3344
  23763818.820   -12957375.59849  -9951114.29149  23763817.7614   23763823.6684
  22928805.065   -10843285.97849  -8439617.81149  22928804.8094   22928808.9234
  25122299.528    -6256615.38949  -4630883.69149  25122298.2354   25122305.9414
 98  1 27 18 48 30.0020000  0  9  3 10 16 31 18 19 27 13  2
  23934371.518    -5253467.91149  -4081567.87249  23934371.6094   23934376.0814
  25065202.712    -6284338.71949  -4886555.61049  25065201.5324   25065209.1274
  24146150.103    17457480.10249  13591927.20549  24146149.3494   24146156.8414
  22889792.344   -16408695.25149 -12779976.23249  22889791.2274   22889796.4964
  20842615.908    -4791020.95449  -3730794.20649  20842615.2884   20842619.5714
  21459872.942    -7857146.05949  -6119871.56549  21459872.2504   21459877.0024
  23751314.935   -13023083.77349 -10002315.44349  23751314.1674   23751319.9434
  22912758.645   -10927610.31549  -8505325.06349  22912758.2084   22912762.1614
  25105843.610    -6343090.75349  -4698266.87949  25105841.5784   25105849.8094
 98  1 27 18 49  0.0020000  0  9  3 10 16 31 18 19 27 13  2
  23938003.158    -5234383.62749  -4066697.02949  23938002.8154   23938008.2844
  25054716.655    -6339442.82349  -4929493.87449  25054715.2124   25054722.2554
  24165613.099    17559758.17849  13671624.28849  24165612.6244   24165620.1074
  22879020.881   -16465299.44449 -12824083.36849  22879019.5044   22879024.9084
  20846322.249    -4771544.12249  -3715617.47249  20846321.6224   20846325.8984
  21455698.579    -7879082.44349  -6136964.86049  21455697.9694   21455702.7844
  23738827.390   -13088706.35449 -10053449.89749  23738826.9424   23738832.2454
  22896757.422   -11011697.19849  -8570847.29749  22896757.2354   22896761.5584
  25089429.292    -6429346.98849  -4765479.34849  25089428.1204   25089436.3534
 98  1 27 18 49 30.0020000  0  9  3 10 16 31 18 19 27 13  2
  23941740.066    -5214746.05149  -4051395.03649  23941741.2274   23941745.5504
  25044314.020    -6394108.96249  -4972090.84549  25044313.8524   25044318.8304
  24185091.234    17662115.73649  13751383.31749  24185090.8004   24185097.5264
  22868331.698   -16521471.14849 -12867853.48749  22868331.0344   22868336.1804
  20850119.371    -4751590.13749  -3700068.92849  20850118.5834   20850122.9224
  21451558.360    -7900839.40549  -6153918.33749  21451557.5364   21451562.3184
  23726346.793   -13154292.25149 -10104555.76849  23726345.8934   23726352.0944
  22880791.000   -11095601.48949  -8636227.24749  22880790.3184   22880794.4234
  25073047.993    -6515429.92449  -4832556.76849  25073045.7824   25073054.3204
 98  1 27 18 50  0.0020000  0  9  3 10 16 31 18 19 27 13  2
  23945570.380    -5194618.01249  -4035710.87149  23945570.6264   23945575.3634
  25033986.837    -6448378.74049  -5014378.96749  25033985.7624   25033993.6914
  24204573.540    17764495.49449  13831159.64349  24204572.7534   24204579.3474
  22857718.140   -16577245.55149 -12911314.02749  22857717.1824   22857722.5074
  20854003.104    -4731180.80849  -3684165.57249  20854002.5444   20854006.9264
  21447445.297    -7922453.66349  -6170760.62149  21447444.4734   21447449.3824
  23713863.476   -13219892.31649 -10155672.67449  23713863.0444   23713868.0264
  22864849.678   -11179373.73149  -8701504.29849  22864849.5144   22864853.5234
  25056691.444    -6601383.28849  -4899533.23849  25056689.4954   25056697.8794
 98  1 27 18 50 30.0020000  0  9  3 10 16 31 18 19 27 13  2
  23949493.906    -5174000.06149  -4019644.95849  23949492.0324   23949499.4344
  25023737.116    -6502241.28749  -5056349.77849  25023735.1094   25023743.4924
  24224058.962    17866891.54749  13910948.66449  24224058.6034   24224066.3074
  22847180.020   -16632623.62349 -12954465.73949  22847178.9674   22847184.4804
  20857973.994    -4710313.84449  -3667905.61849  20857973.2964   20857977.8194
  21443360.176    -7943921.01549  -6187488.43149  21443359.5014   21443364.4144
  23701380.980   -13285488.20149 -10206786.33649  23701380.0764   23701385.8804
  22848935.174   -11263005.06249  -8766671.55249  22848935.3314   22848938.8524
  25040356.713    -6687222.08349  -4966420.45649  25040355.3634   25040363.5834
 98  1 27 18 51  0.0020000  0  9  3 10 16 31 18 19 27 13  2
  23953513.615    -5152876.52949  -4003185.08349  23953512.9684   23953518.0704
  25013575.576    -6555640.21149  -5097959.32549  25013574.7234   25013582.4344
  24243552.421    17969329.87549  13990770.61649  24243551.4094   24243558.7544
  22836724.913   -16687565.66449 -12997277.67849  22836724.2454   22836729.1494
  20862041.417    -4688939.26849  -3651250.12249  20862040.7604   20862045.1444
  21439308.043    -7965214.97549  -6204081.13749  21439307.1174   21439312.2214
  23688905.757   -13351045.69849 -10257870.08249  23688904.9024   23688910.2754
  22833055.868   -11346451.50049  -8831694.73349  22833055.9544   22833059.1564
  25024051.379    -6772906.51849  -5033187.39549  25024049.7414   25024056.9464
 98  1 27 18 51 30.0020000  0  9  3 10 16 31 18 19 27 13  2
  23957651.976    -5131129.56249  -3986239.42649  23957651.9634   23957657.0364
  25003524.436    -6608459.01149  -5139116.80949  25003524.3904   25003530.3784
  24263077.772    18071936.08949  14070723.40149  24263076.2624   24263084.9334
  22826378.346   -16741937.37449 -13039645.20349  22826377.2684   22826382.3964
  20866230.512    -4666925.41949  -3634096.49349  20866229.8504   20866234.4484
  21435311.724    -7986215.90849  -6220445.50649  21435311.1234   21435316.0144
  23676460.890   -13416443.98949 -10308829.76349  23676460.2784   23676465.6554
  22817231.437   -11429609.62349  -8896493.24049  22817231.0204   22817234.9094
  25007798.599    -6858314.32649  -5099738.78849  25007796.6134   25007805.2264
 98  1 27 18 52  0.0020000  0  9  3 10 16 31 18 19 27 13  2
  23961886.093    -5108878.89749  -3968901.27449  23961884.9124   23961891.5424
  24993559.433    -6660824.97349  -5179921.43049  24993557.7604   24993565.6954
  24282615.019    18174604.77749  14150724.86449  24282613.8564   24282622.3384
  22816117.632   -16795857.84949 -13081661.10549  22816116.5114   22816121.3454
  20870517.360    -4644398.03749  -3616542.70949  20870516.9424   20870521.2294
  21431348.606    -8007042.30649  -6236673.87449  21431347.7474   21431352.6744
  23664022.449   -13481808.34949 -10359763.00349  23664020.8094   23664027.1384
  22801438.863   -11512600.31449  -8961161.29949  22801438.5534   22801442.5444
  24991573.172    -6943578.51049  -5166178.28649  24991571.3954   24991579.3324
 98  1 27 18 52 30.0020000  0  9  3 10 16 31 18 19 27 13  2
  23966223.662    -5086084.36349  -3951139.33249  23966222.9994   23966228.7804
  24983685.985    -6712709.76649  -5220351.13049  24983684.4554   24983691.8684
  24302167.249    18277351.81849  14230787.38049  24302165.6314   24302174.1844
  22805946.112   -16849309.38549 -13123311.59649  22805945.2734   22805950.3794
  20874905.594    -4621337.95349  -3598573.82949  20874904.9444   20874909.3874
  21427420.849    -8027682.70249  -6252757.30249  21427420.1664   21427424.9844
  23651594.067   -13547119.72449 -10410654.96249  23651592.8534   23651598.8034
  22785683.964   -11595392.68549  -9025674.81449  22785683.7394   22785687.6504
  24975379.125    -7028678.12249  -5232489.54349  24975377.2364   24975386.5514
 98  1 27 18 53  0.0020000  0  9  3 10 16 31 18 19 27 13  2
  23970652.244    -5062811.60049  -3933004.74349  23970651.8634   23970658.3094
  24973888.707    -6764195.37849  -5260469.79349  24973887.5074   24973895.5584
  24321721.092    18380107.22549  14310856.41749  24321721.0934   24321728.1314
  22795852.537   -16902351.44049 -13164643.02249  22795851.3804   22795856.8544
  20879384.430    -4597801.53049  -3580233.77749  20879383.8434   20879388.1744
  21423513.309    -8048216.91849  -6268757.99249  21423512.5814   21423517.5244
  23639161.241   -13612454.53049 -10461565.18249  23639160.2504   23639166.3734
  22769952.316   -11678062.80849  -9090093.06449  22769951.9804   22769956.0064
  24959205.117    -7113671.96949  -5298718.40749  24959203.5534   24959212.0094
 98  1 27 18 53 30.0020000  0  9  3 10 16 31 18 19 27 13  2
  23975203.911    -5038892.60249  -3914366.60949  23975202.6534   23975209.6284
  24964195.558    -6815133.76349  -5300162.03049  24964194.2284   24964200.7944
  24341307.790    18483035.32449  14391060.02049  24341306.5044   24341315.3254
  22785868.393   -16954818.35749 -13205526.30749  22785867.0924   22785872.6564
  20883979.832    -4573652.70649  -3561416.53949  20883979.1224   20883983.4244
  21419654.702    -8068494.24949  -6284558.52049  21419654.0724   21419658.9514
  23626755.835   -13677645.54049 -10512363.35749  23626755.0184   23626760.1464
  22754273.953   -11760452.95949  -9154293.17249  22754273.4944   22754277.9984
  24943081.701    -7198400.66649  -5364740.66349  24943080.3254   24943088.6804
 98  1 27 18 54  0.0020000  0  9  3 10 16 31 18 19 27 13  2
  23979847.002    -5014493.23249  -3895354.16649  23979846.0184   23979853.1934
  24954577.553    -6865676.63449  -5339546.07849  24954577.5454   24954584.0914
  24360890.288    18585941.85549  14471246.79949  24360890.0274   24360897.2174
  22775963.574   -17006868.31949 -13246084.67549  22775962.4594   22775967.6794
  20888657.382    -4549072.22949  -3542262.94149  20888656.8444   20888661.1224
  21415812.604       -4322.04849                  21415811.782    21415816.8364
  23614345.427   -13742862.37949 -10563181.65249  23614344.7494   23614350.2054
  22738621.822   -11842705.11349  -9218385.73449  22738621.6904   22738625.4454
  24926976.989    -7283031.33149  -5430686.55549  24926975.6544   24926983.4464
 98  1 27 18 54 30.0020000  0  9  3 10 16 31 18 19 27 13  2
  23984586.341    -4989588.25349  -3875947.72849  23984585.2274   23984592.5164
  24945041.484    -6915789.16049  -5378594.79349  24945039.4694   24945048.3854
  24380471.321    18688840.65749  14551427.56249  24380471.0014   24380477.7964
  22766145.619   -17058462.03049 -13286287.53749  22766144.5264   22766150.2794
  20893425.044    -4524018.01349  -3522740.19749  20893424.1734   20893428.8204
  21411993.155      -31769.20249    -19960.70049  21411992.5164   21411997.6224
  23601940.449   -13808050.58849 -10613977.63749  23601939.3074   23601945.4234
  22723002.762   -11924783.67649  -9282343.04549  22723003.2224   22723006.2714
  24910901.920    -7367506.16449  -5496511.01549  24910900.6024   24910908.6014
 98  1 27 18 55  0.0020000  0  9  3 10 16 31 18 19 27 13  2
  23989427.234    -4964149.70949  -3856125.53649  23989426.2464   23989431.7354
  24935594.621    -6965432.20149  -5417277.67449  24935594.3274   24935600.1494
  24400060.392    18791781.48249  14631641.06349  24400059.8304   24400067.2094
  22756424.265   -17109547.58749 -13326094.43849  22756423.0064   22756428.0584
  20898289.746    -4498453.75849  -3502820.01949  20898289.0264   20898293.4084
  21408209.588      -51652.67949    -35454.32749  21408208.8654   21408213.7984
  23589553.567   -13873143.87249 -10664699.65749  23589553.1124   23589558.8034
  22707427.638   -12006631.51749  -9346120.57049  22707427.3854   22707431.2014
  24894866.787    -7451770.85449  -5562171.73149  24894866.0534   24894873.6544
 98  1 27 18 55 30.0020000  0  9  3 10 16 31 18 19 27 13  2
  23994349.995    -4938280.82149  -3835967.99949  23994349.7374   23994354.5034
  24926220.218    -7014695.64449  -5455664.75949  24926219.6374   24926226.4554
  24419637.965    18894662.05049  14711807.63749  24419636.8774   24419645.2564
  22746778.295   -17160237.46849 -13365593.01249  22746777.5444   22746782.7654
  20903229.446    -4472495.49949  -3482592.82549  20903228.8864   20903233.3384
  21404446.598      -71427.17049    -50863.02549  21404445.9604   21404450.9434
  23577165.175   -13938245.37749 -10715428.07449  23577164.1594   23577169.9364
  22691879.700   -12088336.42549  -9409786.71149  22691879.3094   22691882.7304
  24878852.833    -7535925.09949  -5627746.40449  24878852.2194   24878859.8674
 98  1 27 18 56  0.0020000  0  9  3 10 16 31 18 19 27 13  2
  23999358.527    -4911961.03849  -3815459.12649  23999358.2804   23999363.9074
  24916922.929    -7063553.95249  -5493736.16049  24916921.6944   24916928.5234
  24439208.497    18997505.70049  14791945.43449  24439208.5584   24439216.3184
  22737208.840   -17210525.09149 -13404778.14249  22737208.1084   22737213.3734
  20908251.025    -4446107.02949  -3462030.39949  20908250.4394   20908254.8184
  21400710.559      -91060.91249    -66162.04549  21400709.9474   21400714.6464
  23564777.975   -14003340.49749 -10766151.51349  23564777.5144   23564782.8024
  22676363.165   -12169876.30249  -9473324.26449  22676363.1304   22676366.6894
  24862863.807    -7619948.35449  -5693219.01349  24862862.5784   24862870.8294
 98  1 27 18 56 30.0020000  0  9  3 10 16 31 18 19 27 13  2
  24004467.441    -4885113.67049  -3794539.17249  24004466.9234   24004473.1374
  24907714.896    -7111942.56849  -5531441.57649  24907713.4494   24907721.2874
  24458789.948    19100407.23049  14872128.31749  24458788.1534   24458795.9214
  22727726.532   -17260355.02749 -13443606.64849  22727725.6434   22727730.8824
  20913368.768    -4419213.33049  -3441074.29449  20913368.1964   20913372.7014
  21397016.819     -110471.84549    -81287.45049  21397016.2344   21397020.9354
  23552405.486   -14068358.48149 -10816814.85249  23552404.8694   23552410.7004
  22660891.934   -12251178.42549  -9536676.55649  22660891.4714   22660894.7594
  24846914.520    -7703761.85449  -5758528.17249  24846914.0094   24846921.9074
 98  1 27 18 57  0.0020000  0  9  3 10 16 31 18 19 27 13  2
  24009667.441    -4857788.15149  -3773246.58449  24009666.1644   24009672.1214
  24898588.059    -7159904.70749  -5568814.66849  24898586.8974   24898593.6024
  24478374.944    19203326.67049  14952325.14849  24478373.8944   24478381.3524
  22718318.915   -17309792.21849 -13482129.11749  22718318.0964   22718322.7434
  20918569.090    -4391885.62749  -3419780.00249  20918568.3664   20918572.8274
  21393354.785     -129715.87649    -96282.80049  21393354.1794   21393358.8294
  23540033.138   -14133375.77049 -10867477.63649  23540032.4354   23540037.5014
  22645455.713   -12332296.28949  -9599885.25749  22645455.4274   22645459.7974
  24830992.370    -7787432.94449  -5823726.36749  24830991.4324   24830999.5094
 98  1 27 18 57 30.0020000  0  9  3 10 16 31 18 19 27 13  2
  24014960.991    -4829970.20749  -3751570.30249  24014958.3704   24014966.3354
  24889547.095    -7207415.04849  -5605835.71349  24889545.7864   24889553.5144
  24497965.311    19306273.77949  15032543.54249  24497964.0724   24497972.8284
  22708990.379   -17358813.96249 -13520327.85849  22708989.3044   22708994.2194
  20923856.019    -4364102.84649  -3398131.10349  20923855.4764   20923859.9374
  21389724.491     -148793.33949   -111148.35549  21389723.9624   21389728.5824
  23527662.444   -14198384.20949 -10918133.53949  23527661.2294   23527667.0674
  22630056.114   -12413221.68149  -9662943.98449  22630055.8384   22630059.9344
  24815098.757    -7870954.80549  -5888808.26849  24815096.7364   24815105.1124
 98  1 27 18 58  0.0020000  0  9  3 10 16 31 18 19 27 13  2
  24020350.442    -4801647.96149  -3729501.07649  24020350.0184   24020356.0454
  24880594.328    -7254461.59449  -5642495.36849  24880592.3044   24880599.9504
  24517563.205    19409261.21749  15112793.33749  24517561.8354   24517570.2034
  22699748.686   -17407379.11349 -13558170.81649  22699747.8724   22699753.2564
  20929235.143    -4335835.42349  -3376104.56149  20929234.5024   20929238.9464
  21386126.555     -167700.59749   -125881.28949  21386125.7634   21386130.7024
  23515296.449   -14263367.97749 -10968770.20749  23515295.9894   23515301.6254
  22614696.696   -12493935.96849  -9725838.21849  22614696.5414   22614699.9844
  24799235.024    -7954319.16449  -5953767.43149  24799233.2784   24799241.9874
 98  1 27 18 58 30.0020000  0  9  3 10 16 31 18 19 27 13  2
  24025824.413    -4772882.30449  -3707086.29249  24025824.0784   24025829.6914
  24871717.691    -7301108.36849  -5678843.49649  24871716.2294   24871723.7574
  24537155.923    19512220.99949  15193021.59749  24537154.3524   24537162.7984
  22690587.023   -17455523.90249 -13595686.21849  22690586.3944   22690590.8614
  20934695.078    -4307143.25349  -3353747.04749  20934694.5634   20934698.9614
  21382548.622     -186502.79049   -140532.35349  21382547.8604   21382552.9084
  23502922.909   -14328391.46949 -11019437.83949  23502921.9064   23502927.5464
  22599366.866   -12574494.77149  -9788611.29149  22599366.9544   22599369.9644
  24783390.912    -8037580.78549  -6018646.54649  24783389.9964   24783397.2184
 98  1 27 18 59  0.0020000  0  9  3 10 16 31 18 19 27 13  2
  24031399.818    -4743583.38449  -3684256.01249  24031399.3784   24031406.5074
  24862934.882    -7347262.41849  -5714807.68749  24862933.2394   24862941.2724
  24556758.014    19615230.61249  15273288.69049  24556756.7314   24556765.2284
  22681527.113   -17503134.01449 -13632784.99749  22681526.2764   22681530.8344
  20940255.479    -4277923.22249  -3330978.21449  20940254.8434   20940259.3234
  21379005.680     -205121.08249   -155040.12049  21379004.8534   21379009.8824
  23490558.779   -14393365.14849 -11070066.65249  23490557.5654   23490564.1054
  22584084.133   -12654806.20349  -9851191.61849  22584083.8644   22584087.5114
  24767583.136    -8120650.95449  -6083376.46849  24767581.4004   24767590.3554
 98  1 27 18 59 30.0020000  0  9  3 10 16 31 18 19 27 13  2
  24037066.241    -4713806.47149  -3661053.25549  24037066.0554   24037071.9874
  24854231.950    -7392996.66149  -5750444.75649  24854230.1454   24854237.0464
  24576356.733    19718222.05449  15353541.63349  24576356.2034   24576364.0224
  22672560.107   -17550255.93149 -13669503.35549  22672558.9444   22672564.0654
  20945909.637    -4248210.34049  -3307825.33649  20945909.0794   20945913.6274
  21375484.785     -223623.50249   -169457.59249  21375484.2404   21375488.8354
  23478192.211   -14458351.74249 -11120705.53849  23478191.2764   23478197.4024
  22568839.129   -12734919.15949  -9913617.27649  22568838.8784   22568843.0444
  24751801.512    -8203583.28649  -6147998.98049  24751800.2354   24751807.6224
 98  1 27 19  0  0.0020000  0  9  3 10 16 31 18 19 27 13  2
  24042847.556    -4683425.99149  -3637380.16649  24042846.3544   24042852.2684
  24845628.422    -7438208.60549  -5785674.84249  24845626.6714   24845634.4474
  24595970.510    19821292.26549  15433855.93149  24595969.3454   24595977.6874
  22663704.730   -17596791.39149 -13705764.73949  22663703.6744   22663708.6894
  20951678.200    -4217896.47549  -3284204.16149  20951677.5354   20951682.0714
  21372007.204     -241898.33949   -183697.72849  21372006.4384   21372011.3054
  23465841.445   -14523255.38949 -11171279.78849  23465840.6674   23465845.4354
  22553650.595   -12814735.53349  -9975811.83649  22553650.5234   22553654.3734
  24736067.409    -8286266.25449  -6212427.16649  24736066.3184   24736072.7724
 98  1 27 19  0 30.0020000  0  9  3 10 16 31 18 19 27 13  2
  24048736.070    -4652482.13349  -3613268.08849  24048735.7774   24048741.0784
  24837116.500    -7482938.88549  -5820529.59249  24837115.7734   24837123.2714
  24615589.718    19924391.33049  15514192.72649  24615588.9624   24615597.2794
  22654947.995   -17642808.34549 -13741622.09049  22654947.2464   22654951.6014
  20957551.959    -4187029.96449  -3260152.35449  20957551.2194   20957555.8494
  21368562.410     -260000.70349   -197803.47349  21368561.5834   21368566.4284
  23453499.319   -14588113.56649 -11221818.61249  23453498.7214   23453503.8294
  22538508.242   -12894309.19449 -10037817.27349  22538508.4254   22538511.9664
  24720373.254    -8368739.44449  -6276691.88449  24720372.5124   24720379.0504
 98  1 27 19  1  0.0020000  0  9  3 10 16 31 18 19 27 13  2
  24054725.613    -4621007.36649  -3588742.32549  24054724.4314   24054732.0684
  24828694.736    -7527195.97949  -5855015.61849  24828692.7444   24828700.7734
  24635208.310    20027487.15749  15594526.98649  24635207.8314   24635215.9794
  22646282.607   -17688345.56649 -13777105.62549  22646281.5064   22646286.7714
  20963525.613    -4155638.22849  -3235691.28049  20963525.1244   20963529.5594
  21365146.184     -277953.15449   -211792.40549  21365145.5974   21365150.4994
  23441162.379   -14652944.37749 -11272336.10449  23441161.7514   23441166.9134
  22523405.750   -12973673.20649 -10099659.34149  22523405.5414   22523409.0804
  24704712.535    -8451036.64649  -6340819.47949  24704710.2754   24704718.5474
 98  1 27 19  1 30.0020000  0  9  3 10 16 31 18 19 27 13  2
  24060815.628    -4589004.16249  -3563804.78249  24060815.7044   24060820.4064
  24820365.718    -7570965.24149  -5889121.53149  24820363.9104   24820371.6314
  24654824.606    20130570.92749  15674851.85149  24654824.2104   24654832.7744
  22637705.435   -17733419.05849 -13812227.81849  22637704.4434   22637708.8964
  20969595.780    -4123739.39949  -3210835.06949  20969595.2014   20969599.6434
  21361759.908     -295748.17149   -225658.66049  21361759.2024   21361764.0624
  23428831.081   -14717745.76249 -11322830.67649  23428830.0884   23428835.4524
  22508341.346   -13052837.28849 -10161345.62649  22508341.0604   22508344.6344
  24689082.779    -8533171.21849  -6404820.33749  24689081.1954   24689088.8004
 98  1 27 19  2  0.0020000  0  9  3 10 16 31 18 19 27 13  2
  24066997.368    -4556519.10349  -3538491.76249  24066996.6754   24067002.5334
  24812124.770    -7614271.48649  -5922866.64849  24812123.4844   24812130.0674
  24674428.465    20233589.35149  15755125.81049  24674428.6584   24674435.8354
  22629206.415   -17778081.61549 -13847029.79549  22629205.3274   22629210.3684
  20975750.164    -4091398.03549  -3185634.02749  20975749.4314   20975753.9104
  21358394.726     -313432.27249   -239438.48349  21358394.0314   21358398.9764
  23416498.841   -14782552.00949 -11373329.02349  23416498.2464   23416503.6564
  22493305.361   -13131851.77449 -10222915.33849  22493305.0594   22493308.7304
  24673473.742    -8615196.97949  -6468736.41249  24673473.4904   24673479.4014
 98  1 27 19  2 30.0020000  0  9  3 10 16 31 18 19 27 13  2
  24073267.558    -4523569.34549  -3512816.63149  24073266.8044   24073273.5244
  24803973.067    -7657108.24949  -5956245.93949  24803972.1574   24803978.3994
  24694021.290    20336549.62849  15835354.46749  24694021.1154   24694029.2654
  22620786.793   -17822326.99049 -13881506.69549  22620785.7464   22620790.8914
  20981986.188    -4058627.56249  -3160098.61249  20981985.5044   20981989.9944
  21355050.766     -331005.04849   -253131.56249  21355050.3264   21355054.9914
  23404167.537   -14847353.17149 -11423823.40749  23404166.3134   23404172.1034
  22478299.884   -13210706.02549 -10284360.19649  22478299.3674   22478303.0734
  24657885.328    -8697114.21949  -6532567.91649  24657884.9714   24657891.3554
 98  1 27 19  3  0.0020000  0  9  3 10 16 31 18 19 27 13  2
  24079633.305    -4490116.52949  -3486749.52749  24079632.1784   24079638.4404
  24795919.324    -7699431.40749  -5989225.01549  24795917.6034   24795925.5324
  24713610.171    20439489.26549  15915567.02649  24713609.5844   24713617.8194
  22612459.316   -17866088.05749 -13915606.21249  22612458.0514   22612463.1184
  20988309.179    -4025400.03849  -3134207.05749  20988308.3964   20988312.9104
  21351738.160     -348412.95649   -266696.17649  21351737.3504   21351742.4384
  23391843.623   -14912115.57849 -11474287.60249  23391842.7144   23391847.9984
  22463334.459   -13289349.90949 -10345641.13249  22463334.4474   22463337.9224
  24642324.738    -8778885.28349  -6596285.53049  24642323.2254   24642330.3894
 98  1 27 19  3 30.0020000  0  9  3 10 16 31 18 19 27 13  2
  24086078.529    -4456246.88449  -3460357.61249  24086078.1954   24086083.2724
  24787943.180    -7741346.96549  -6021886.49149  24787941.8954   24787948.9104
  24733178.991    20542324.11849  15995697.96149  24733177.9674   24733186.1564
  22604209.411   -17909441.43849 -13949388.04849  22604208.7524   22604212.9264
  20994702.881    -3991800.76149  -3108025.82249  20994702.2204   20994706.5844
  21348437.506     -365757.98649   -280211.78949  21348436.8754   21348441.5984
  23379510.147   -14976928.69349 -11524791.30349  23379509.5224   23379514.2724
  22448395.213   -13367856.18649 -10406814.83649  22448395.0694   22448398.3924
  24626776.278    -8860592.81749  -6659953.63849  24626775.2984   24626782.8544
 98  1 27 19  4  0.0020000  0  9  3 10 16 31 18 19 27 13  2
  24092616.820    -4421887.86349  -3433584.39149  24092615.7094   24092621.8084
  24780055.815    -7782795.30249  -6054183.88949  24780054.1164   24780061.6244
  24752744.111    20645139.28749  16075813.55249  24752743.8924   24752752.1624
  22596054.888   -17952293.54249 -13982779.27749  22596054.0974   22596058.8334
  21001183.877    -3957743.20049  -3081487.48249  21001183.4034   21001187.8414
  21345162.371     -382968.97349   -293622.95149  21345161.6724   21345166.4204
  23367183.955   -15041703.46949 -11575265.12549  23367183.4954   23367188.3704
  22433498.212   -13446140.19849 -10467815.34849  22433498.2624   22433501.5324
  24611259.003    -8942136.35949  -6723493.95249  24611257.7714   24611264.7194
 98  1 27 19  4 30.0020000  0  9  3 10 16 31 18 19 27 13  2
  24099233.093    -4387119.42849  -3406492.13849  24099231.0204   24099238.1804
  24772241.060    -7823862.02249  -6086183.91849  24772239.1864   24772247.6944
  24772291.236    20747859.23149  16155854.91349  24772290.0604   24772299.2064
  22587984.909   -17994701.37249 -14015824.32749  22587984.2844   22587988.8754
  21007741.823    -3923281.05549  -3054633.88749  21007741.3334   21007745.8184
  21341901.548     -400104.90949   -306975.64249  21341900.9194   21341905.9164
  23354851.538   -15106510.71549 -11625764.24949  23354850.1844   23354856.5654
  22418630.864   -13524268.43849 -10528694.47749  22418630.4154   22418634.5014
  24595763.067    -9023567.69749  -6786946.84849  24595761.6194   24595768.8314
 98  1 27 19  5  0.0020000  0  9  3 10 16 31 18 19 27 13  2
  24105967.534    -4351729.67749  -3378915.75449  24105966.6074   24105973.4284
  24764538.962    -7864336.55849  -6117722.53549  24764537.9674   24764544.5004
  24791860.851    20850698.25849  16235989.06549  24791859.9434   24791868.6514
  22580040.099   -18036451.71849 -14048357.04449  22580038.8544   22580043.6794
  21014419.894    -3888187.74649  -3027288.47349  21014419.2704   21014423.7954
  21338694.085     -416960.35349   -320109.76349  21338693.3204   21338698.1014
  23342553.116   -15171139.00949 -11676123.93249  23342552.2474   23342557.7684
  22403835.909   -13602016.41349 -10589277.29949  22403835.7474   22403839.4894
  24580330.382    -9104666.52249  -6850140.64649  24580329.8024   24580336.4234
 98  1 27 19  5 30.0020000  0  9  3 10 16 31 18 19 27 13  2
  24112799.394    -4315828.27749  -3350940.67549  24112798.4274   24112804.5864
  24756927.942    -7904332.91649  -6148888.52049  24756927.6764   24756933.6004
  24811432.358    20953546.08949  16316130.07949  24811431.8034   24811441.5234
  22572194.750   -18077679.22549 -14080482.35049  22572193.8254   22572198.3784
  21021199.090    -3852562.85749  -2999528.83849  21021198.6274   21021203.0234
  21335519.939     -433640.48149   -333107.27149  21335519.2974   21335524.1834
  23330269.350   -15235690.54549 -11726423.80249  23330268.4614   23330274.1884
  22389092.801   -13679491.99649 -10649647.86349  22389092.4644   22389096.5234
  24564943.022    -9185527.08049  -6913148.78249  24564940.7054   24564949.4034
 98  1 27 19  6  0.0020000  0  9  3 10 16 31 18 19 27 13  2
  24119740.835    -4279351.12749  -3322516.96449  24119740.5714   24119746.4754
  24749421.457    -7943779.91849  -6179626.44649  24749420.4534   24749427.8464
  24831012.652    21056441.20949  16396307.92349  24831011.8184   24831022.0064
  22564458.325   -18118334.13549 -14112161.48149  22564457.4714   22564462.5844
  21028087.781    -3816362.68849  -2971320.94049  21028087.1984   21028091.6674
  21332395.250     -450060.82349   -345902.35649  21332394.6214   21332399.4034
  23318010.029   -15300113.75949 -11776623.68649  23318009.0784   23318014.2494
  22374410.463   -13756648.03049 -10709769.43449  22374410.0384   22374413.5554
  24549612.709    -9266088.09649  -6975923.50949  24549611.0584   24549618.8294
 98  1 27 19  6 30.0020000  0  9  3 10 16 31 18 19 27 13  2
  24126761.390    -4242457.77649  -3293768.94149  24126760.6614   24126766.4764
  24741991.089    -7982826.77049  -6210052.57049  24741989.8574   24741996.7114
  24850571.446    21159222.94749  16476397.42049  24850570.8484   24850578.4644
  22556799.934   -18158579.24049 -14143521.27749  22556798.8834   22556804.0944
  21035052.253    -3779764.34849  -2942802.77449  21035051.4974   21035056.1574
  21329291.029     -466373.78549   -358613.76349  21329290.2704   21329295.2614
  23305739.795   -15364594.18449 -11826868.14549  23305738.9634   23305743.8994
  22359758.624   -13833643.71349 -10769766.05749  22359758.4314   22359762.2024
  24534304.584    -9346532.19049  -7038607.13949  24534303.5954   24534310.3704
 98  1 27 19  7  0.0020000  0  9  3 10 16 31 18 19 27 13  2
  24133861.803    -4205145.08249  -3264694.17249  24133861.3354   24133867.4584
  24734637.572    -8021469.63749  -6240163.88749  24734635.8284   24734642.8514
  24870108.897    21261892.50149  16556399.51649  24870108.5324   24870116.2914
  22549219.786   -18198413.22849 -14174560.72149  22549218.9014   22549223.8934
  21042088.932    -3742786.43649  -2913988.83749  21042088.2254   21042092.6404
  21326208.816     -482570.88949   -371234.88949  21326208.2534   21326212.9084
  23293458.252   -15429133.76949 -11877158.71249  23293456.8254   23293462.7684
  22345137.362   -13910478.90249 -10829637.61949  22345137.1634   22345140.5104
  24519016.175    -9426872.97449  -7101210.27849  24519014.7794   24519022.1774
 98  1 27 19  7 30.0020000  0  9  3 10 16 31 18 19 27 13  2
  24141051.961    -4167360.59449  -3235251.76849  24141052.0674   24141057.8504
  24727368.989    -8059666.09849  -6269927.36449  24727367.7504   24727374.4944
  24889631.996    21364486.34849  16636342.62149  24889631.7364   24889640.8694
  22541729.745   -18237773.76449 -14205231.25249  22541728.6164   22541734.1194
  21049205.671    -3705387.79749  -2884847.06149  21049205.0894   21049209.4274
  21323160.377     -498590.46949   -383717.68249  21323159.8444   21323164.5574
  23281174.850   -15493683.39949 -11927457.10549  23281173.9694   23281179.5114
  22330554.070   -13987114.54149 -10889353.68649  22330553.6994   22330557.5174
  24503755.692    -9507067.16549  -7163699.18949  24503754.8344   24503761.1564
 98  1 27 19  8  0.0020000  0  9  3 10 16 31 18 19 27 13  2
  24148333.516    -4129096.04749  -3205435.29749  24148333.6364   24148339.4944
  24720188.801    -8097397.85749  -6299328.71849  24720188.2004   24720195.0604
  24909145.138    21467027.20849  16716244.42949  24909145.2284   24909154.3034
  22534338.345   -18276615.45749 -14235497.49349  22534337.2034   22534342.4974
  21056406.671    -3667546.64449  -2855360.47849  21056406.2234   21056410.6214
  21320148.020     -514420.66949   -396052.91549  21320147.4394   21320152.2954
  23268890.515   -15558237.79049 -11977759.21149  23268889.8234   23268895.3754
  22316013.788   -14063524.50049 -10948893.90449  22316013.5554   22316016.7164
  24488524.340    -9587108.60449  -7226069.07849  24488523.0384   24488531.0274
 98  1 27 19  8 30.0020000  0  9  3 10 16 31 18 19 27 13  2
  24155706.783    -4090349.90549  -3175243.55149  24155706.2234   24155712.1814
  24713097.587    -8134662.15749  -6328365.82649  24713096.1604   24713104.4094
  24928653.770    21569544.41349  16796127.80149  24928653.0534   24928662.1984
  22527050.418   -18314913.25649 -14265339.91649  22527049.0084   22527054.3844
  21063698.516    -3629227.93849  -2825501.76549  21063697.8654   21063702.3634
  21317172.167     -530058.94149   -408238.58749  21317171.5194   21317176.3964
  23256611.907   -15622762.20149 -12028037.95249  23256611.5834   23256616.8224
  22301524.810   -14139664.41049 -11008223.69249  22301524.6464   22301528.1004
  24473323.444    -9666989.40449  -7288313.79049  24473322.3914   24473329.0174
 98  1 27 19  9  0.0020000  0  9  3 10 16 31 18 19 27 13  2
  24163186.553    -4051044.03649  -3144615.66049  24163185.4454   24163192.1374
  24706108.072    -8171392.18049  -6356986.61149  24706106.7984   24706113.8184
  24948170.172    21672102.90349  16876043.32849  24948169.9014   24948178.6974
  22519880.035   -18352593.70149 -14294701.28649  22519879.0224   22519883.9934
  21071100.519    -3590330.25649  -2795191.90749  21071099.9814   21071104.4944
  21314246.543     -545433.28249   -420218.60549  21314245.8454   21314250.6844
  23244359.385   -15687150.24149 -12078210.43349  23244358.8554   23244364.0314
  22287105.867   -14215436.41649 -11067266.80349  22287105.7084   22287109.2104
  24458171.479    -9746613.37149  -7350358.38049  24458170.1614   24458177.8984
 98  1 27 19  9 30.0020000  0  9  3 10 16 31 18 19 27 13  2
  24170738.008    -4011361.10549  -3113693.96449  24170737.1574   24170743.7884
  24699186.973    -8207762.38949  -6385327.02149  24699186.5394   24699192.4224
  24967659.972    21774521.92049  16955850.16349  24967659.2594   24967668.4074
  22512792.371   -18389839.60149 -14323724.04749  22512791.3594   22512796.4044
  21078581.352    -3551018.49849  -2764559.39049  21078580.7324   21078585.3094
  21311333.940     -560739.17149   -432145.27949  21311333.1514   21311338.0314
  23232098.057   -15751584.12949 -12128418.63449  23232097.5544   23232103.3304
  22272724.208   -14291012.56549 -11126157.30249  22272723.9744   22272727.8264
  24443035.008    -9826155.64049  -7412339.31249  24443034.4494   24443041.3284
 98  1 27 19 10  0.0020000  0  9  3 10 16 31 18 19 27 13  2
  24178385.115    -3971175.10849  -3082380.26049  24178384.2334   24178391.8064
  24692358.872    -8243644.34949  -6413286.98249  24692357.5974   24692363.9834
  24987146.429    21876923.11249  17035643.11549  24987146.2494   24987155.1194
  22505809.068   -18426537.13249 -14352319.50849  22505808.0834   22505812.8234
  21086164.598    -3511168.36949  -2733507.36549  21086163.8034   21086168.3714
  21308455.360     -575866.20949   -443932.59149  21308454.7244   21308459.6784
  23219850.885   -15815943.53549 -12178568.80649  23219850.0424   23219855.5794
  22258405.007   -14366260.57749 -11184792.10749  22258405.0474   22258408.3454
  24427938.100    -9905490.17749  -7474158.36649  24427936.2124   24427944.1074
 98  1 27 19 10 30.0020000  0  9  3 10 16 31 18 19 27 13  2
  24186128.255    -3930484.51849  -3050673.37449  24186127.4824   24186133.9574
  24685622.998    -8279042.11449  -6440869.64449  24685622.5194   24685628.5724
  25006625.283    21979284.20149  17115404.81649  25006625.2344   25006633.7004
  22498927.488   -18462700.26049 -14380498.54949  22498926.7674   22498931.4614
  21093848.735    -3470787.61649  -2702041.86549  21093847.9034   21093852.5224
  21305607.809     -590830.19549   -455592.84549  21305606.9654   21305612.0824
  23207618.068   -15880227.30349 -12228660.03949  23207617.4014   23207622.9934
  22244144.401   -14441200.71249 -11243187.01049  22244144.1894   22244147.7514
  24412880.028    -9984620.56949  -7535818.35749  24412878.5664   24412886.0624
 98  1 27 19 11  0.0020000  0  9  3 10 16 31 18 19 27 13  2
  24193968.376    -3889284.97049  -3018569.89449  24193967.1454   24193974.1974
  24678982.661    -8313936.75949  -6468060.27049  24678982.0264   24678988.1114
  25026094.811    22081596.28049  17195128.33449  25026094.4754   25026103.0704
  22492147.602   -18498329.11949 -14408261.28249  22492146.9914   22492151.0504
  21101630.929    -3429891.83949  -2670175.04649  21101630.3054   21101634.8714
  21302791.809     -605628.43649   -467123.94749  21302791.1354   21302796.0124
  23195393.385   -15944468.76949 -12278718.30649  23195392.5844   23195398.1554
  22229937.842   -14515856.68849 -11301360.48749  22229937.4754   22229941.3934
  24397863.334   -10063533.58049  -7597308.96249  24397862.3214   24397868.2664
 98  1 27 19 11 30.0020000  0  9  3 10 16 31 18 19 27 13  2
  24201927.847    -3847457.67849  -2985977.26649  24201926.9954   24201933.3044
  24672464.078    -8348191.84049  -6494752.50949  24672463.2194   24672470.5974
  25045575.715    22183968.28649  17274898.55249  25045575.3194   25045583.8024
  22485493.154   -18533298.38049 -14435510.04349  22485492.3484   22485497.1484
  21109530.439    -3388379.85649  -2637828.07249  21109529.8074   21109534.2664
  21300028.844     -620147.84149   -478437.77649  21300028.0974   21300033.0304
  23183194.282   -16008575.52449 -12328671.60749  23183193.5494   23183198.9174
  22215805.168   -14590124.24149 -11359231.30349  22215804.8084   22215808.6834
  24382909.445   -10142116.43649  -7658542.29949  24382908.3744   24382915.3634
 98  1 27 19 12  0.0020000  0  9  3 10 16 31 18 19 27 13  2
  24210011.159    -3804979.68949  -2952877.58749  24210010.9884   24210017.4304
  24666072.964    -8381776.86249  -6520922.64949  24666071.1644   24666079.5104
  25065069.456    22286407.37649  17354721.02549  25065068.7844   25065077.1974
  22478967.408   -18567591.15949 -14462231.67449  22478966.2554   22478971.4284
  21117549.821    -3346237.91149  -2604990.21649  21117549.0754   21117553.5454
  21297325.878     -634352.10549   -489506.04149  21297325.1394   21297329.9574
  23171026.660   -16072516.69249 -12378495.87749  23171025.5734   23171030.6884
  22201750.881   -14663979.99949 -11416781.23349  22201750.6884   22201754.5824
  24368021.666   -10220352.03249  -7719505.05349  24368020.3814   24368026.7174
 98  1 27 19 12 30.0020000  0  9  3 10 16 31 18 19 27 13  2
  24218177.078    -3762067.91049  -2919439.90549  24218177.3054   24218183.8734
  24659770.020    -8414898.78849  -6546731.94049  24659769.3174   24659777.2294
  25084534.640    22388696.68149  17434426.79049  25084534.6384   25084542.7414
  22472529.813   -18601420.45449 -14488592.15649  22472528.6624   22472533.7044
  21125648.344    -3303680.12349  -2571828.32549  21125647.6084   21125652.3874
  21294644.955     -648440.56249   -500484.06649  21294644.2754   21294649.2494
  23158852.250   -16136493.53349 -12428347.95249  23158851.3014   23158856.4154
  22187734.458   -14737636.87949 -11474176.19849  22187733.9214   22187737.7774
  24353158.639   -10298457.59249  -7780366.47949  24353157.6304   24353164.3454
 98  1 27 19 13  0.0020000  0  9  3 10 16 31 18 19 27 13  2
  24226416.364    -3718770.49849  -2885701.72349  24226415.5714   24226421.6644
  24653546.208    -8447605.66149  -6572217.80149  24653545.0264   24653552.7474
  25103962.579    22490789.97349  17513979.78249  25103961.4294   25103971.4004
  22466171.942   -18634831.08049 -14514626.40049  22466171.0834   22466176.0264
  21133815.545    -3260761.27949  -2538385.09349  21133815.1244   21133819.5724
  21291978.512     -662452.85049   -511402.73549  21291977.6514   21291982.9434
  23146664.025   -16200542.86049 -12478256.50749  23146662.8794   23146668.7174
  22173748.653   -14811132.50749 -11531445.51149  22173748.1844   22173752.1384
  24338312.191   -10376476.13849  -7841160.10449  24338311.4584   24338317.9404
 98  1 27 19 13 30.0020000  0  9  3 10 16 31 18 19 27 13  2
  24234746.384    -3674996.34049  -2851592.05349  24234745.7254   24234751.8314
  24647416.399    -8479818.36349  -6597318.60149  24647415.4094   24647422.4604
  25123372.555    22592789.60449  17593459.78449  25123372.7514   25123380.7584
  22459911.153   -18667732.02149 -14540263.48449  22459910.3084   22459915.4644
  21142069.495    -3217386.84149  -2504586.85449  21142068.8304   21142073.4254
  21289343.112     -676302.16249   -522194.41349  21289342.2654   21289347.3084
  23134484.783   -16264544.79949 -12528128.13349  23134483.6004   23134489.6634
  22159812.243   -14884368.82049 -11588512.75749  22159812.0314   22159815.6804
  24323497.451   -10454328.14849  -7901823.96149  24323496.3744   24323502.5394
 98  1 27 19 14  0.0020000  0  9  3 10 16 31 18 19 27 13  2
  24243160.908    -3630777.91049  -2817136.19849  24243160.3894   24243166.0334
  24641370.806    -8511588.20349  -6622074.32649  24641369.6454   24641376.9914
  25142761.043    22694676.34949  17672851.81649  25142757.9314   25142767.9774
  22453743.071   -18700145.53649 -14565520.76049  22453742.3484   22453746.7954
  21150405.846    -3173579.01149  -2470450.90849  21150405.2194   21150409.8074
  21286733.538     -690015.53249   -532880.16349  21286732.8424   21286737.6414
  23122310.346   -16328521.62049 -12577980.19049  23122309.5384   23122315.0544
  22145919.568   -14957375.50349 -11645401.07649  22145919.2294   22145923.1944
  24308708.021   -10532046.97849  -7962384.04349  24308706.7434   24308713.6214
 98  1 27 19 14 30.0020000  0  9  3 10 16 31 18 19 27 13  2
  24251700.061    -3585904.41749  -2782169.90249  24251699.4984   24251705.2764
  24635446.148    -8542723.21149  -6646335.37249  24635444.6074   24635451.8374
  25162171.477    22796678.03649  17752333.39449  25162170.6324   25162179.1794
  22447710.818   -18731845.25149 -14590221.83249  22447710.1344   22447714.9294
  21158863.683    -3129133.08049  -2435817.74349  21158862.9944   21158867.5214
  21284186.189     -703401.98349   -543311.17149  21284185.5954   21284190.4164
  23110178.909   -16392272.62549 -12627656.28849  23110178.1374   23110183.3764
  22132112.769   -15029930.48549 -11701937.42149  22132112.7374   22132116.1944
  24293988.010   -10609400.75349  -8022659.67349  24293987.1134   24293993.9604
 98  1 27 19 15  0.0020000  0  9  3 10 16 31 18 19 27 13  2
  24260337.685    -3540514.07449  -2746800.87049  24260336.6984   24260344.0034
  24629618.141    -8573349.79149  -6670200.24649  24629616.5814   24629622.7404
  25181579.930    22898668.86349  17831806.56749  25181579.7954   25181587.0194
  22441791.087   -18762953.57949 -14614462.07549  22441790.0424   22441795.0464
  21167418.258    -3084178.77749  -2400788.43949  21167417.5424   21167422.3824
  21281676.879     -716588.59349   -553586.45649  21281676.1224   21281681.0354
  23098062.573   -16455944.16949 -12677270.46849  23098062.0544   23098066.9444
  22118369.269   -15102153.02149 -11758214.71349  22118368.9024   22118372.6804
  24279314.644   -10686509.57549  -8082744.42149  24279314.1614   24279320.5284
 98  1 27 19 15 30.0020000  0  9  3 10 16 31 18 19 27 13  2
  24269064.979    -3494652.18949  -2711064.40549  24269064.1964   24269070.3434
  24623880.997    -8603498.36149  -6693692.64049  24623879.2434   24623886.5014
  25200977.503    23000602.38349  17911235.06949  25200976.5474   25200986.3154
  22435977.600   -18793503.47749 -14638267.18549  22435976.5874   22435981.6734
  21176064.388    -3038743.19249  -2365384.11849  21176063.7064   21176068.4184
  21279198.278     -729613.85349   -563736.01749  21279197.5284   21279202.4484
  23085951.705   -16519587.01249 -12726862.29549  23085950.6794   23085955.7474
  22104681.827   -15174081.02949 -11814262.50649  22104681.8474   22104685.1914
  24264682.743   -10763400.58849  -8142659.45849  24264682.1004   24264688.4684
 98  1 27 19 16  0.0020000  0  9  3 10 16 31 18 19 27 13  2
  24277879.452    -3448332.13549  -2674970.92949  24277878.7844   24277884.8754
  24618233.820    -8633174.50249  -6716816.90649  24618232.6524   24618239.4184
  25220359.085    23102452.29949  17990598.44049  25220357.8304   25220365.6604
  22430268.360   -18823505.79149 -14661645.60849  22430267.3694   22430272.3434
  21184800.220    -2992836.17649  -2329612.44749  21184799.5684   21184804.1694
  21276748.348     -742488.27049   -573768.03749  21276747.5044   21276752.4024
  23073843.226   -16583217.39149 -12776444.39849  23073841.8824   23073848.4304
  22091048.834   -15245722.71549 -11870087.18849  22091048.4554   22091052.3074
  24250093.676   -10840066.63249  -8202399.20349  24250092.3104   24250099.6924
 98  1 27 19 16 30.0020000  0  9  3 10 16 31 18 19 27 13  2
  24286808.002    -3401412.30949  -2638410.10949  24286806.6344   24286813.2834
  24612708.808    -8662208.85249  -6739441.08349  24612708.3174   24612715.5164
  25239751.700    23204360.12149  18070006.90549  25239750.4144   25239758.7884
  22424690.563   -18852817.30549 -14684485.75149  22424689.7004   22424694.2454
  21193653.465    -2946312.18949  -2293360.01949  21193652.7104   21193657.4474
  21274358.624     -755046.47349   -583553.65549  21274358.0084   21274362.9514
  23061767.266   -16646676.95349 -12825893.39849  23061766.5414   23061771.4184
  22077499.042   -15316927.34349 -11925571.30649  22077498.8264   22077502.6404
  24235577.704   -10916348.55949  -8261839.64749  24235576.7494   24235583.1984
 98  1 27 19 17  0.0020000  0  9  3 10 16 31 18 19 27 13  2
  24295842.443    -3353936.58449  -2601416.12749  24295841.4794   24295848.7614
  24607299.873    -8690632.74549  -6761589.56749  24607298.7124   24607305.1804
  25259142.784    23306260.46449  18149409.53849  25259141.3204   25259150.5074
  22419234.024   -18881491.69349 -14706829.42649  22419232.9984   22419238.1074
  21202616.940    -2899209.00649  -2256656.26849  21202616.1144   21202620.8294
  21272020.432     -767334.08849   -593128.42649  21272019.9274   21272024.8444
  23049715.165   -16710011.17249 -12875244.72249  23049714.1354   23049719.8664
  22064019.113   -15387764.88049 -11980769.37749  22064018.9874   22064022.5244
  24221121.277   -10992317.36849  -8321036.10649  24221119.7384   24221127.4224
 98  1 27 19 17 30.0020000  0  9  3 10 16 31 18 19 27 13  2
  24304996.483    -3305832.19449  -2563932.27949  24304995.7324   24305002.4844
  24602018.656    -8718386.07249  -6783215.53549  24602018.1074   24602024.8134
  25278544.017    23408214.55649  18228854.04149  25278544.0984   25278553.2774
  22413911.506   -18909461.75849 -14728624.28549  22413910.2734   22413915.4634
  21211703.641    -2851458.06949  -2219447.77749  21211702.9744   21211707.6714
  21269743.564     -779299.33049   -602452.00049  21269743.0634   21269747.8374
  23037701.339   -16773144.21249 -12924439.28849  23037700.7024   23037706.3484
  22050621.185   -15458171.54249 -12035631.70649  22050620.8434   22050624.6454
  24206734.756   -11067918.77749  -8379946.27449  24206732.3384   24206740.8534
 98  1 27 19 18  0.0020000  0  9  3 10 16 31 18 19 27 13  2
  24314217.351    -3257376.56549  -2526174.74849  24314216.3284   24314224.0594
  24596810.745    -8745754.31749  -6804541.44149  24596808.4944   24596815.9664
  25297902.565    23509943.48449  18308123.07949  25297901.8774   25297910.8794
  22408670.179   -18937005.30149 -14750086.78349  22408669.0614   22408674.1694
  21220857.402    -2803354.63549  -2181964.61049  21220856.6574   21220861.3984
  21267476.641     -791212.16649   -611734.73849  21267476.0034   21267480.8704
  23025674.717   -16836344.62849 -12973686.35649  23025674.3774   23025679.2564
  22037255.713   -15528407.44049 -12090360.96849  22037255.4364   22037259.1574
  24192361.311   -11143451.62949  -8438803.00849  24192360.0184   24192366.8194
 98  1 27 19 18 30.0020000  0  9  3 10 16 31 18 19 27 13  2
  24323501.991    -3208585.53849  -2488155.85949  24323500.9314   24323508.2294
  24591673.246    -8772751.93149  -6825578.55949  24591672.3304   24591678.8494
  25317213.845    23611423.94449  18387198.52349  25317212.5584   25317223.1854
  22403508.801   -18964128.75749 -14771221.94349  22403508.1644   22403513.0094
  21230073.349    -2754924.54749  -2144226.90549  21230072.7264   21230077.4094
  21265215.840     -803093.00949   -620992.54549  21265215.0284   21265219.9634
  23013631.125   -16899634.13949 -13023002.83749  23013630.2754   23013635.6754
  22023921.199   -15598480.62049 -12144963.43149  22023920.9374   22023924.6324
  24177990.827   -11218969.23249  -8497647.86349  24177990.0664   24177996.1644
 98  1 27 19 19  0.0020000  0  9  3 10 16 31 18 19 27 13  2
  24332890.451    -3159248.98849  -2449711.89649  24332889.5314   24332897.0474
  24586646.292    -8799169.31649  -6846163.54449  24586645.2904   24586651.7814
  25336517.711    23712865.91249  18466243.94649  25336516.6154   25336526.9534
  22398469.750   -18990609.13049 -14791856.00849  22398468.8634   22398474.2044
  21239390.920    -2705960.32349  -2106072.99749  21239390.1564   21239394.8644
  21262997.887     -814748.48849   -630074.75049  21262997.2534   21263002.0664
  23001610.048   -16962805.37849 -13072227.16849  23001609.2274   23001614.3384
  22010659.877   -15668169.35449 -12199266.33349  22010659.6474   22010663.5874
  24163660.870   -11294273.61149  -8556326.58149  24163660.2564   24163666.9684
 98  1 27 19 19 30.0020000  0  9  3 10 16 31 18 19 27 13  2
  24342345.158    -3109564.25049  -2410996.59949  24342344.8354   24342350.8534
  24581692.329    -8825202.85549  -6866449.43349  24581691.4594   24581697.2664
  25355780.963    23814094.50849  18545123.11349  25355780.1994   25355790.1714
  22393518.782   -19016626.68549 -14812129.42949  22393517.3414   22393522.8194
  21248771.909    -2656663.09349  -2067659.59849  21248771.2324   21248775.9704
  21260790.953     -826346.01449   -639111.78749  21260790.2114   21260795.2094
  22989577.799   -17026035.25149 -13121497.18349  22989576.8474   22989582.5874
  21997440.204   -15737639.03049 -12253398.53949  21997439.9994   21997443.9144
  24149338.755   -11369537.05749  -8614973.38649  24149337.2224   24149345.0954
 98  1 27 19 20  0.0020000  0  9  3 10 16 31 18 19 27 13  2
  24351874.570    -3059487.53349  -2371975.87149  24351874.0084   24351880.1294
  24576819.801    -8850807.73849  -6886401.28849  24576817.8234   24576825.9714
  25375012.091    23915153.62249  18623870.21449  25375011.9154   25375021.8534
  22388663.294   -19042142.19449 -14832011.65249  22388662.0824   22388667.1684
  21258223.505    -2606994.66149  -2028956.95349  21258222.6694   21258227.3994
  21258606.384     -837825.93649   -648057.18949  21258605.5044   21258610.4364
  22977542.571   -17089280.49949 -13170779.18249  22977541.6494   22977547.0424
  21984269.935   -15806849.22049 -12307328.55549  21984269.7874   21984273.4604
  24135034.171   -11444707.98449  -8673548.10949  24135032.7454   24135040.4374
 98  1 27 19 20 30.0020000  0  9  3 10 16 31 18 19 27 13  2
  24361503.805    -3008886.09649  -2332546.26949  24361502.9524   24361509.6964
  24572054.639    -8875848.06049  -6905913.25549  24572053.3714   24572059.3984
  25394236.776    24016178.62249  18702590.72549  25394235.8664   25394246.0904
  22383926.479   -19067034.19649 -14851408.01449  22383925.0914   22383930.6024
  21267773.436    -2556809.58449  -1989851.72549  21267772.6174   21267777.4024
  21256467.738     -849064.54949   -656814.55649  21256467.1144   21256471.9954
  22965529.058   -17152412.03649 -13219972.57149  22965528.0064   22965533.6354
  21971171.709   -15875680.92049 -12360963.63549  21971171.5244   21971175.1594
  24120776.001   -11519634.57749  -8731932.43949  24120774.2554   24120781.8644
 98  1 27 19 21  0.0020000  0  9  3 10 16 31 18 19 27 13  2
  24371213.299    -2957863.10049  -2292788.17549  24371212.7504   24371219.8894
  24567376.708    -8900431.10049  -6925068.86649  24567375.5604   24567382.4644
  25413436.601    24117073.71449  18781209.99849  25413436.5844   25413446.8334
  22379287.466   -19091412.41649 -14870404.03449  22379286.8824   22379291.8154
  21277405.471    -2506193.06149  -1950410.30949  21277404.7994   21277409.5484
  21254359.334     -860144.41749   -665448.22549  21254358.4944   21254363.3594
  22953519.219   -17215524.08049 -13269150.77349  22953518.6204   22953524.0254
  21958127.001   -15944231.54149 -12414379.69749  21958126.8654   21958130.2634
  24106554.625   -11594368.11849  -8790166.35049  24106553.6304   24106560.0814
 98  1 27 19 21 30.0020000  0  9  3 10 16 31 18 19 27 13  2
  24381018.867    -2906335.26049  -2252636.68149  24381019.1424   24381024.4294
  24562798.569    -8924489.44149  -6943815.63549  24562796.9204   24562805.2464
  25432624.020    24217903.03449  18859778.03549  25432622.6424   25432633.2904
  22374756.147   -19115224.98449 -14888959.28449  22374755.3994   22374760.1884
  21287134.400    -2455067.32549  -1910572.10049  21287133.7844   21287138.4304
  21252297.195     -870980.93849   -673892.27249  21252296.4314   21252301.4124
  22941527.959   -17278538.78849 -13318253.12149  22941527.3114   22941532.2454
  21945149.040   -16012431.11049 -12467522.21049  21945148.8504   21945152.7074
  24092386.521   -11668822.18149  -8848182.46149  24092385.0194   24092391.6594
 98  1 27 19 22  0.0020000  0  9  3 10 16 31 18 19 27 13  2
  24390910.309    -2854356.34649  -2212133.70149  24390909.6854   24390917.3264
  24558309.412    -8948079.64849  -6962197.62949  24558308.8474   24558315.9084
  25451782.713    24318581.69249  18938228.67149  25451782.2284   25451793.1744
  22370318.887   -19138542.98249 -14907129.15349  22370317.7814   22370322.8534
  21296949.443    -2403489.02549  -1870381.24549  21296948.7494   21296953.5694
  21250266.324     -881653.43149   -682208.50749  21250265.5774   21250270.3624
  22929542.680   -17341521.72049 -13367330.71849  22929541.8784   22929547.2164
  21932226.068   -16080341.76849 -12520439.60249  21932225.7864   21932229.2864
  24078259.100   -11743062.21949  -8906031.81549  24078257.4194   24078263.6654
 98  1 27 19 22 30.0020000  0  9  3 10 16 31 18 19 27 13  2
  24400890.668    -2801909.54049  -2171266.14349  24400888.8764   24400896.4784
  24553912.990    -8971183.41549  -6980200.56549  24553912.4804   24553918.8974
  25470915.247    24419122.58249  19016571.95149  25470914.3834   25470925.2944
  22365981.359   -19161336.84349 -14924890.60049  22365980.2944   22365985.1554
  21306855.816    -2351430.99649  -1829816.57749  21306855.2114   21306859.8374
  21248269.358     -892147.47649   -690385.69349  21248268.6604   21248273.5194
  22917567.556   -17404451.48749 -13416366.89049  22917566.6994   22917572.3974
  21919363.148   -16147936.84249 -12573111.08049  21919362.7114   21919366.5504
  24064176.285   -11817067.67449  -8963698.37249  24064175.0584   24064182.5094
 98  1 27 19 23  0.0020000  0  8  3 10 31 18 19 27 13  2
  24410981.383    -2748882.80049  -2129946.68149  24410981.3594   24410987.0634
  24549630.229    -8993689.48049  -6997737.77149  24549628.4764   24549636.5074
  22361768.698   -19183474.76949 -14942140.93049  22361767.7004   22361772.8574
  21316872.203    -2298794.45549  -1788801.11849  21316871.5174   21316876.3494
  21246327.948     -902349.59649   -698335.40449  21246327.2644   21246332.0144
  22905623.402   -17467218.37549 -13465276.14049  22905622.6674   22905627.8244
  21906582.402   -16215100.24949 -12625446.20349  21906581.9294   21906585.8784
  24050156.202   -11890743.75349  -9021108.27349  24050155.2944   24050161.6594
 98  1 27 19 23 30.0020000  0  8  3 10 31 18 19 27 13  2
  24421178.113    -2695298.78249  -2088192.98249  24421177.3014   24421184.4064
  24545458.400    -9015612.92749  -7014820.99549  24545457.1044   24545463.7034
  22357679.941   -19204961.30849 -14958883.68149  22357678.8014   22357684.0734
  21326991.871    -2245615.50249  -1747362.99549  21326991.1914   21326996.0304
  21244435.329     -912295.48049   -706085.44849  21244434.6444   21244439.6844
  22893704.983   -17529850.25049 -13514080.18449  22893704.6284   22893709.1244
  21893878.562   -16281859.12649 -12677466.10349  21893878.2234   21893881.9114
  24036188.964   -11964142.30049  -9078301.91249  24036188.2634   24036193.9674
 98  1 27 19 24  0.0020000  0  8  3 10 31 18 19 27 13  2
  24431461.086    -2641261.62649  -2046086.16149  24431460.7824   24431466.4684
  24541380.272    -9037044.27349  -7031520.77049  24541379.1174   24541385.9184
  22353704.674   -19225851.42349 -14975161.69349  22353703.7034   22353708.8984
  21337197.497    -2191984.68649  -1705572.77749  21337196.8764   21337201.7774
  21242574.077     -922076.54949   -713707.06949  21242573.4724   21242578.3704
  22881793.049   -17592447.96049 -13562857.60849  22881792.4954   22881797.7864
  21881234.807   -16348302.29549 -12729239.99549  21881234.3574   21881238.2704
  24022256.214   -12037359.35949  -9135354.14049  24022254.4194   24022261.7744
 98  1 27 19 24 30.0020000  0  8  3 10 31 18 19 27 13  2
  24441833.135    -2586755.76149  -2003614.12849  24441831.7424   24441839.1504
  24537400.667    -9057957.92749  -7047817.14149  24537399.2524   24537405.5914
  22349851.751   -19246098.66349 -14990938.76149  22349850.8004   22349855.7574
  21347494.453    -2137873.96949  -1663408.60749  21347493.8784   21347498.6004
  21240750.418     -931660.02749   -721174.72349  21240749.5354   21240754.3154
  22869891.417   -17654991.32249 -13611592.67949  22869890.6444   22869895.7674
  21868654.719   -16414411.20049 -12780753.41949  21868654.4364   21868658.3264
  24008362.940   -12110368.59349  -9192244.42249  24008361.5574   24008368.9714
 98  1 27 19 25  0.0020000  0  8  3 10 31 18 19 27 13  2
  24452295.861    -2531773.36749  -1960770.77249  24452294.5294   24452302.1864
  24533522.955    -9078335.60549  -7063695.87149  24533521.5264   24533528.5944
  22346124.046   -19265687.96549 -15006203.14849  22346122.8814   22346127.4704
  21357882.669    -2083283.72749  -1620870.78149  21357882.0464   21357886.7914
  21238967.555     -941029.00149   -728475.23149  21238966.7894   21238971.6974
  22858002.588   -17717467.68649 -13660275.54949  22858001.6554   22858007.0944
  21856142.270   -16480164.52149 -12831989.77349  21856142.1784   21856145.6054
  23994512.485   -12183153.38649  -9248959.80949  23994510.8764   23994518.3674
 98  1 27 19 25 30.0020000  0  8  3 10 31 18 19 27 13  2
  24462834.490    -2476392.67349  -1917617.06649  24462831.3344   24462840.5644
  24529733.541    -9098248.93649  -7079212.75949  24529732.1504   24529739.5714
  22342503.345   -19284714.62249 -15021029.11249  22342502.4674   22342507.3684
  21368350.208    -2028276.73849  -1578008.22149  21368349.5094   21368354.4374
  21237213.770     -950245.31149   -735656.78249  21237213.0334   21237217.8724
  22846113.073   -17779947.43349 -13708961.05549  22846112.0364   22846117.0504
  21843684.022   -16545633.13049 -12883004.27049  21843684.0624   21843687.4284
  23980693.053   -12255774.68049  -9305547.79549  23980691.3434   23980698.6594
 98  1 27 19 26  0.0020000  0  8  3 10 31 18 19 27 13  2
  24473456.613    -2420572.90549  -1874121.20249  24473456.0994   24473461.8944
  24526040.455    -9117656.39249  -7094335.47649  24526038.6474   24526046.3544
  22338993.656   -19303158.24349 -15035400.75949  22338992.7074   22338997.6924
  21378907.465    -1972797.81749  -1534777.92049  21378906.7914   21378911.7214
  21235498.227     -959260.55149   -742681.65549  21235497.5614   21235502.2404
  22834233.086   -17842377.02349 -13757607.48249  22834232.5504   22834237.4574
  21831290.063   -16610764.00449 -12933755.59649  21831290.0124   21831293.8244
  23966914.210   -12328182.38649  -9361969.35049  23966912.8814   23966920.3504
 98  1 27 19 26 30.0020000  0  8  3 10 31 18 19 27 13  2
  24484167.398    -2364287.54749  -1830262.54549  24484167.9234   24484173.6764
  24522449.616    -9136526.26649  -7109039.29049  24522447.8234   24522455.8644
  22335595.404   -19321016.07049 -15049315.94349  22335594.0504   22335599.3514
  21389558.834    -1916824.72549  -1491162.55049  21389558.3574   21389562.9574
  21233825.205     -968052.17949   -749532.28449  21233824.5694   21233829.2814
  22822369.615   -17904719.95349 -13806186.37549  22822368.9534   22822374.0234
  21818968.815   -16675512.57049 -12984209.02349  21818968.5124   21818972.2414
  23953180.889   -12400351.08749  -9418204.65249  23953179.3594   23953186.9274
 98  1 27 19 27  0.0020000  0  8  3 10 31 18 19 27 13  2
  24494962.498    -2307559.33949  -1786058.80549  24494961.7714   24494968.2224
  24518958.812    -9154870.57949  -7123333.56949  24518956.5004   24518965.0394
  22332300.187   -19338332.66149 -15062809.39349  22332299.2114   22332304.3584
  21400299.374    -1860382.76549  -1447181.82649  21400298.6024   21400303.4084
  21232191.206     -976639.09849   -756223.40049  21232190.3704   21232195.2554
  22810518.478   -17966998.01249 -13854714.72249  22810517.6474   22810522.8424
  21806718.247   -16739890.03649 -13034373.27449  21806718.2134   21806721.6694
  23939489.001   -12472302.34549  -9474270.53449  23939487.3584   23939494.8094
 98  1 27 19 27 30.0020000  0  8  3 10 31 18 19 27 13  2
  24505839.695    -2250399.20349  -1741518.49549  24505839.1414   24505846.6994
  24515566.988    -9172694.56049  -7137222.40249  24515565.3674   24515572.9554
  22329106.680   -19355114.65249 -15075886.26949  22329105.7924   22329110.6074
  21411130.293    -1803466.00449  -1402831.13249  21411129.4444   21411134.4274
  21230591.674     -985044.54149   -762773.10849  21230590.8884   21230595.8974
  22798678.799   -18029216.04549 -13903196.29649  22798677.9144   22798683.3034
  21794537.280   -16803901.51949 -13084252.34649  21794536.6864   21794540.4184
  23925837.439   -12544041.19849  -9530170.89149  23925836.6084   23925842.7364
 98  1 27 19 28  0.0020000  0  8  3 10 31 18 19 27 13  2
  24516801.405    -2192795.22649  -1696632.32949  24516800.0624   24516806.2524
  24512276.503    -9189986.19149  -7150696.42749  24512274.9054   24512282.5774
  22326022.355   -19371322.87649 -15088516.05949  22326020.9574   22326026.4694
  21422053.659    -1746063.42049  -1358101.87949  21422052.9514   21422057.7994
  21229025.474     -993275.17449   -769186.60349  21229024.8924   21229029.7914
  22786852.172   -18091365.38449 -13951624.35249  22786851.0114   22786856.7944
  21782429.636   -16867527.62649 -13133831.12649  21782429.4484   21782433.0114
  23912229.654   -12615550.32649  -9585892.25249  23912228.0994   23912235.5084
 98  1 27 19 28 30.0020000  0  8  3 10 31 18 19 27 13  2
  24527847.794    -2134746.26849  -1651399.41849  24527848.1344   24527853.7764
  24509086.722    -9206748.72549  -7163758.15349  24509086.1334   24509092.6844
  22323050.050   -19386942.09149 -15100686.87149  22323049.1754   22323054.1864
  21433065.931    -1688193.54149  -1313008.49449  21433065.0484   21433070.0504
  21227492.460    -1001331.36749   -775464.16549  21227491.6034   21227496.5734
  22775036.099   -18153459.40249 -14000009.29049  22775035.0214   22775040.9374
  21770394.239   -16930773.96649 -13183113.97849  21770394.1004   21770397.4394
  23898665.343   -12686831.41549  -9641435.91249  23898664.1094   23898670.7254
 98  1 27 19 29  0.0020000  0  8  3 10 31 18 19 27 13  2
  24538981.605    -2076238.13349  -1605808.69449  24538981.5274   24538988.3894
  24505997.271    -9222983.88949  -7176408.94749  24505995.7824   24506003.7574
  22320193.507   -19401953.39149 -15112383.98849  22320192.8724   22320197.7694
  21444169.759    -1629842.74449  -1267540.37049  21444169.1814   21444174.0874
  21225995.324    -1009198.72949   -781594.59049  21225994.5604   21225999.4624
  22763232.113   -18215489.49049 -14048344.42049  22763231.1434   22763236.7314
  21758430.451   -16993644.10949 -13232103.69349  21758430.1624   21758433.7064
  23885148.079   -12757865.09449  -9696786.78349  23885146.9474   23885153.6574
 98  1 27 19 29 30.0020000  0  8  3 10 31 18 19 27 13  2
  24550197.046    -2017300.71249  -1559883.46949  24550197.5124   24550203.2194
  24502998.973    -9238740.27949  -7188686.67349  24502997.1384   24503005.4634
  22317448.983   -19416376.15549 -15123622.50849  22317448.3024   22317453.2974
  21455357.265    -1571052.19949  -1221729.58549  21455356.3864   21455361.3854
  21224527.455    -1016912.34949   -787605.21149  21224526.9564   21224531.7794
  22751434.362   -18277486.99549 -14096654.16149  22751433.5904   22751438.9914
  21746534.172   -17056159.53949 -13280817.00649  21746534.1584   21746537.5704
  23871670.874   -12828688.03849  -9751973.44649  23871669.7174   23871676.4764
 98  1 27 19 30  0.0020000  0  8  3 10 31 18 19 27 13  2
  24561498.323    -1957912.16749  -1513606.71749  24561497.3194   24561505.3324
  24500093.530    -9254008.40749  -7200583.93549  24500092.1194   24500099.6444
  22314818.759   -19430198.20449 -15134392.93149  22314817.7434   22314822.4264
  21466626.675    -1511831.17749  -1175583.36249  21466626.0344   21466630.8524
  21223094.756    -1024441.42549   -793472.03049  21223093.9484   21223098.9854
  22739643.811   -18339446.58749 -14144934.36149  22739642.6934   22739648.5244
  21734707.220   -17118310.47749 -13329246.28949  21734706.8664   21734710.6404
  23858235.006   -12899294.02249  -9806991.04549  23858233.5294   23858240.9434
 98  1 27 19 30 30.0020000  0  8  3 10 31 18 19 27 13  2
  24572885.594    -1898071.41049  -1466977.59249  24572884.7264   24572892.3354
  24497281.646    -9268785.03449  -7212098.20749  24497279.8864   24497287.3934
  22312302.469   -19443421.55849 -15144696.84249  22312301.6754   22312306.0334
  21477975.883    -1452190.58949  -1129110.21149  21477975.2774   21477980.2294
  21221701.922    -1031760.87549   -799175.50549  21221701.3224   21221706.0794
  22727863.844   -18401350.65949 -14193171.29149  22727863.3084   22727868.2314
  21722952.064   -17180084.04349 -13377381.53049  21722951.8234   21722955.3584
  23844839.128   -12969689.96649  -9861844.98849  23844837.9624   23844845.2474
 98  1 27 19 31  0.0020000  0  8  3 10 31 18 19 27 13  2
  24584344.225    -1837856.82049  -1420057.18149  24584344.6524   24584350.6924
  24494551.973    -9283129.18849  -7223275.49949  24494551.0554   24494557.4624
  22309887.361   -19456113.13549 -15154586.38049  22309886.2174   22309891.3054
  21489394.792    -1392183.90449  -1082351.78549  21489394.0724   21489399.2404
  21220335.180    -1038943.19149   -804772.12549  21220334.3884   21220339.2554
  22716082.827   -18463260.40949 -14241412.65049  22716082.2734   22716087.3414
  21711256.636   -17241543.92949 -13425272.34149  21711256.4404   21711259.8094
  23831473.234   -13039928.37049  -9916576.15949  23831472.0454   23831479.4404
 98  1 27 19 31 30.0020000  0  8  3 10 31 18 19 27 13  2
  24595872.712    -1777274.78249  -1372850.44849  24595871.4334   24595878.8134
  24491906.615    -9297030.62649  -7234107.80549  24491904.7874   24491913.3174
  22307574.552   -19468267.10249 -15164057.00249  22307573.6184   22307578.3694
  21500882.080    -1331817.99249  -1035313.44449  21500881.0704   21500886.1024
  21218994.924    -1045986.44549   -810260.38249  21218994.1964   21218998.9824
  22704302.565   -18525166.01649 -14289650.77349  22704301.7194   22704307.1074
  21699620.405   -17302692.71649 -13472920.73849  21699620.3254   21699623.7644
  23818137.078   -13110010.03249  -9971185.21649  23818135.5384   23818142.3424
 98  1 27 19 32  0.0020000  0  8  3 10 31 18 19 27 13  2
  24607484.370    -1716255.22149  -1325302.79249  24607483.1744   24607491.8484
  24489358.403    -9310421.15149  -7244541.99649  24489357.0614   24489364.4774
  22305379.515   -19479801.92349 -15173045.17949  22305378.5384   22305383.4264
  21512454.784    -1271003.01249   -987925.17949  21512454.1984   21512459.2144
  21217696.830    -1052807.93349   -815575.83549  21217696.0954   21217701.0484
  22692540.577   -18586975.57149 -14337814.04949  22692539.8724   22692545.1444
  21688054.927   -17363469.78749 -13520279.48749  21688054.6924   21688058.2484
  23804846.627   -13179851.67249 -10025607.24049  23804845.5284   23804852.0684
 98  1 27 19 32 30.0020000  0  8  3 10 31 18 19 27 13  2
  24619177.423    -1654808.53249  -1277422.31949  24619176.8494   24619183.4204
  24486904.348    -9323317.51249  -7254591.13949  24486902.3604   24486910.3034
  22303299.822   -19490730.79349 -15181561.17949  22303298.7284   22303303.6964
  21524116.924    -1209718.31949   -940170.90749  21524116.1244   21524121.0184
  21216438.253    -1059421.70249   -820729.43249  21216437.4764   21216442.4034
  22680797.665   -18648684.98449 -14385899.29549  22680796.4014   22680802.1194
  21676559.289   -17423879.72449 -13567352.15549  21676559.0004   21676562.5094
  23791602.794   -13249448.28149 -10079838.32849  23791601.7474   23791608.4914
 98  1 27 19 33  0.0020000  0  8  3 10 31 18 19 27 13  2
  24630973.624    -1592819.48949  -1229119.22449  24630972.9324   24630979.9714
  24484566.789    -9335601.41849  -7264163.03049  24484565.2984   24484573.7614
  22301354.787   -19500952.08949 -15189525.82849  22301353.9444   22301358.7684
  21535892.119    -1147839.44349   -891953.63249  21535891.6124   21535896.4414
  21215237.292    -1065732.78949   -825647.16649  21215236.6874   21215241.5654
  22669093.556   -18710190.30649 -14433825.50949  22669092.5944   22669098.4344
  21665153.039   -17483820.12849 -13614058.94849  21665152.8874   21665156.0304
  23778429.068   -13318676.40949 -10133782.28649  23778427.5474   23778433.9214
 98  1 27 19 33 30.0020000  0  8  3 10 31 18 19 27 13  2
  24642882.985    -1530235.35749  -1180352.43749  24642882.6074   24642889.5064
  24482353.651    -9347232.06149  -7273225.88849  24482352.6204   24482360.0654
  22299552.775   -19510421.68749 -15196904.74049  22299551.7124   22299556.8254
  21547786.439    -1085334.66149   -843248.64049  21547785.6984   21547790.5704
  21214105.482    -1071680.55049   -830281.79749  21214104.7314   21214109.5684
  22657439.534   -18771432.65749 -14481546.81049  22657438.8814   22657443.8874
  21653847.826   -17543229.47349 -13660351.94049  21653847.4134   21653851.2854
  23765332.209   -13387500.50049 -10187411.41349  23765331.1444   23765337.9694
 98  1 27 19 34  0.0020000  0  8  3 10 31 18 19 27 13  2
  24654869.356    -1467246.87249  -1131270.57049  24654869.2394   24654876.1524
  24480229.099    -9358397.17549  -7281926.00249  24480228.6204   24480234.9784
  22297854.722   -19519345.02349 -15203857.99949  22297853.8974   22297858.9554
  21559763.563    -1022394.68449   -794204.53749  21559762.9774   21559767.6404
  21213005.347    -1077461.79649   -834786.67249  21213004.6724   21213009.5584
  22645797.176   -18832613.81949 -14529220.42949  22645796.3214   22645801.6854
  21642611.038   -17602278.93549 -13706364.49949  21642610.7424   21642614.3164
  23752274.766   -13456118.07449 -10240879.62649  23752273.6234   23752279.6404
 98  1 27 19 34 30.0020000  0  8  3 10 31 18 19 27 13  2
  24666897.490    -1404039.12549  -1082017.81249  24666897.4224   24666903.4844
  24478165.438    -9369241.81649  -7290376.41649  24478164.5194   24478171.6854
  22296225.809   -19527905.01349 -15210528.12949  22296224.5254   22296229.9994
  21571787.832     -959206.61449   -744967.12049  21571787.2024   21571792.0334
  21211903.169    -1083253.82649   -839299.95649  21211902.3664   21211907.3654
  22634131.385   -18893917.78649 -14576989.74649  22634130.6774   22634135.6474
  21631411.952   -17661130.65049 -13752222.97349  21631411.6654   21631415.1354
  23739222.258   -13524709.44349 -10294327.41749  23739220.7194   23739227.3504
 98  1 27 19 35  0.0020000  0  8  3 10 31 18 19 27 13  2
  24678999.997    -1340440.35049  -1032460.43249  24678997.8554   24679006.9354
  24476201.345    -9379563.34949  -7298419.18949  24476200.0094   24476207.6494
  22294704.426   -19535899.86949 -15216757.89849  22294703.6784   22294708.2684
  21583891.748     -895600.44649   -695403.90449  21583891.1134   21583895.9984
  21210836.870    -1088857.32049   -843666.32349  21210836.2144   21210841.2084
  22622477.823   -18955157.33249 -14624708.85749  22622477.0854   22622482.4784
  21620285.464   -17719600.47849 -13797783.87449  21620285.2884   21620288.8784
  23726208.654   -13593096.50549 -10347616.01949  23726207.5684   23726214.4354
 98  1 27 19 35 30.0020000  0  8  3 10 31 18 19 27 13  2
  24691189.386    -1276385.18849   -982547.37049  24691188.0164   24691196.8314
  24474346.290    -9389311.93349  -7306015.51449  24474345.4034   24474352.0164
  22293306.456   -19543246.57649 -15222482.61549  22293305.2964   22293310.4294
  21596086.314     -831517.52949   -645469.19549  21596085.4714   21596090.8864
  21209821.918    -1094191.10349   -847822.52949  21209821.3564   21209826.2064
  22610848.244   -19016271.25949 -14672330.08449  22610847.5964   22610852.9584
  21609246.341   -17777611.41649 -13842987.20249  21609246.0304   21609249.7454
  23713243.618   -13661228.33749 -10400705.73649  23713242.3544   23713248.8794
 98  1 27 19 36  0.0020000  0  8  3 10 31 18 19 27 13  2
  24703487.367    -1211759.22249   -932189.53849  24703487.0024   24703493.7274
  24472622.189    -9398372.21549  -7313075.49549  24472621.2674   24472628.9854
  22292054.512   -19549825.63049 -15227609.15949  22292053.3034   22292058.3954
  21608396.034     -766829.43649   -595062.92249  21608395.2194   21608400.5044
  21208877.911    -1099151.84249   -851688.04949  21208877.0404   21208882.0264
  22599261.071   -19077162.32049 -14719777.64849  22599260.2284   22599265.6794
  21598314.194   -17835060.30549 -13887752.56949  21598313.8884   21598317.4634
  23700346.502   -13729002.94149 -10453517.09549  23700345.6724   23700351.6154
 98  1 27 19 36 30.0020000  0  8  3 10 31 18 19 27 13  2
  24715868.766    -1146694.56249   -881489.85549  24715868.4604   24715875.0024
  24471001.292    -9406889.47749  -7319712.34949  24471000.3494   24471007.5314
  22290924.038   -19555766.10049 -15232238.10449  22290922.8454   22290928.0814
  21620794.658     -701674.40849   -544292.80249  21620793.9464   21620798.9124
  21207978.828    -1103876.43849   -855369.56349  21207978.1724   21207983.3284
  22587689.407   -19137971.95349 -14767161.76549  22587688.6594   22587693.9814
  21587459.181   -17892103.54049 -13932201.84149  21587458.8234   21587462.3594
  23687492.084   -13796553.40949 -10506153.79349  23687490.7814   23687497.6714
 98  1 27 19 37  0.0020000  0  8  3 10 31 18 19 27 13  2
  24728324.267    -1081240.97949   -830487.13049  24728323.0084   24728329.4984
  24469466.321    -9414956.09449  -7325998.04249  24469465.1124   24469472.2614
  22289902.182   -19561135.97349 -15236422.43649  22289901.1234   22289906.2464
  21633267.391     -636129.86649   -493219.16549  21633266.6614   21633271.8784
  21207110.025    -1108442.11749   -858927.24349  21207109.1644   21207114.1144
  22576118.319   -19198778.40049 -14814543.39849  22576117.6294   22576123.1984
  21576667.480   -17948814.36749 -13976392.09349  21576667.0744   21576670.7504
  23674667.746   -13863945.37249 -10558666.98449  23674666.5894   23674673.2834
 98  1 27 19 37 30.0020000  0  8  3 10 31 18 19 27 13  2
  24740888.838    -1015213.72349   -779037.39049  24740888.9294   24740895.1064
  24468049.125    -9422403.48149  -7331801.23449  24468047.9934   24468054.9784
  22289020.825   -19565767.66049 -15240031.56049  22289019.8834   22289024.4744
  21645845.890     -570029.67449   -441712.55349  21645845.2634   21645850.1914
  21206302.534    -1112685.58549   -862233.84549  21206301.7034   21206306.7944
  22564580.084   -19259412.11349 -14861790.43049  22564579.0674   22564584.6154
  21565973.819   -18005009.95649 -14020180.86049  21565973.4474   21565977.0794
  23661905.526   -13931011.08949 -10610925.95349  23661904.6644   23661910.5324
 98  1 27 19 38  0.0020000  0  8  3 10 31 18 19 27 13  2
  24753536.347     -948750.55449   -727247.98049  24753535.4044   24753541.6674
  24466729.568    -9429338.00349  -7337204.79049  24466728.8764   24466735.9884
  22288254.325   -19569795.90949 -15243170.47049  22288253.5834   22288258.6914
  21658504.427     -503508.96549   -389878.27049  21658503.9104   21658508.5854
  21205531.271    -1116738.61849   -865392.06249  21205530.5474   21205535.7964
  22553052.916   -19319987.93049 -14908992.34949  22553052.2274   22553057.4154
  21555353.511   -18060820.13849 -14063669.30949  21555353.0904   21555356.6204
  23649185.876   -13997852.76249 -10663010.34949  23649185.0404   23649191.8264
 98  1 27 19 38 30.0020000  0  8  3 10 31 18 19 27 13  2
  24766254.196     -881917.77249   -675170.55449  24766253.7094   24766260.8794
  24465499.478    -9435802.51649  -7342242.09749  24465498.5884   24465505.6974
  22287594.537   -19573263.47249 -15245872.48549  22287593.3804   22287598.9194
  21671231.242     -436629.22049   -337764.21949  21671230.5494   21671235.3164
  21204788.939    -1120639.62749   -868431.82249  21204788.2014   21204793.3344
  22541530.227   -19380539.92449 -14956175.71449  22541529.4644   22541534.5984
  21544799.782   -18116280.26049 -14106884.98849  21544799.3764   21544803.0564
  23636505.925   -14064485.96249 -10714932.30749  23636504.9584   23636511.1474
 98  1 27 19 39  0.0020000  0  8  3 10 31 18 19 27 13  2
  24779057.527     -814636.40749   -622743.59449  24779057.5154   24779064.0664
  24464377.857    -9441696.91949  -7346835.15549  24464375.9254   24464383.4424
  22287061.976   -19576062.32149 -15248053.42549  22287060.7094   22287066.1164
  21684046.153     -369286.66149   -285289.53449  21684045.5384   21684050.4454
  21204096.054    -1124280.84449   -871269.14149  21204095.3504   21204100.4224
  22530031.742   -19440964.75549 -15003259.98149  22530030.7444   22530036.1974
  21534336.849   -18171263.54349 -14149729.10049  21534336.7094   21534340.1744
  23623885.007   -14130809.24949 -10766612.76449  23623884.0554   23623891.0774
 98  1 27 19 39 30.0020000  0  8  3 10 31 18 19 27 13  2
  24791938.203     -746948.38649   -569999.75849  24791937.9784   24791944.0974
  24463362.188    -9447034.67849  -7350994.48649  24463361.2774   24463368.3204
  22286651.800   -19578217.63549 -15249732.91149  22286650.4134   22286655.5924
  21696947.020     -301492.36349   -232462.84549  21696946.3874   21696951.3624
  21203450.877    -1127671.29149   -873911.05649  21203450.0774   21203455.2264
  22518554.824   -19501276.43349 -15050256.08449  22518554.2994   22518559.1834
  21523963.831   -18225773.85049 -14192204.66249  21523963.5304   21523967.0614
  23611319.132   -14196843.49649 -10818068.00749  23611318.1654   23611324.4974
 98  1 27 19 40  0.0020000  0  8  3 10 31 18 19 27 13  2
  24804854.830     -679071.73949   -517108.92549  24804853.7874   24804861.2734
  24462411.473    -9452030.98049  -7354887.73149  24462410.3064   24462417.9024
  22286323.036   -19579945.09349 -15251079.00149  22286321.8704   22286327.1374
  21709896.455     -233442.87549   -179437.30249  21709895.9524   21709900.6764
  21202812.186    -1131027.74949   -876526.48049  21202811.6994   21202816.4344
  22507061.080   -19561676.39649 -15097320.97449  22507060.2264   22507065.4604
  21513641.207   -18280019.62049 -14234474.08849  21513640.8664   21513644.4774
  23598770.019   -14262789.52549 -10869454.50249  23598769.2424   23598774.8574
 98  1 27 19 40 30.0020000  0  8  3 10 31 18 19 27 13  2
  24817849.908     -610782.61049   -463896.67449  24817849.7904   24817856.1374
  24461563.153    -9456488.74549  -7358361.33949  24461560.6044   24461568.9044
  22286117.151   -19581026.94049 -15251922.02349  22286116.0034   22286121.1214
  21722940.307     -164896.99749   -126024.96549  21722939.3524   21722944.3884
  21202221.457    -1134132.29149   -878945.61049  21202220.7184   21202225.8984
  22495589.913   -19621957.64849 -15144293.36249  22495588.9084   22495594.3884
  21503411.276   -18333778.28049 -14276363.95349  21503411.1984   21503414.6604
  23586273.662   -14328458.40549 -10920625.02749  23586272.7534   23586279.3224
 98  1 27 19 41  0.0020000  0  8  3 10 31 18 19 27 13  2
  24830918.481     -542106.09049   -410382.56849  24830917.5334   24830925.8224
  24460807.250    -9460460.66849  -7361456.35649  24460806.5664   24460813.8014
  22286024.839   -19581511.83749 -15252299.88549  22286023.7874   22286028.8634
  21736072.265      -95887.88749    -72251.67049  21736071.3714   21736076.6534
  21201669.773    -1137031.36749   -881204.63949  21201669.1004   21201673.9544
  22484133.215   -19682162.99749 -15191206.60749  22484132.2794   22484137.6454
  21493263.089   -18387107.50649 -14317919.19649  21493262.9544   21493266.3064
  23573817.478   -14393916.32249 -10971631.17949  23573815.8974   23573823.0594
 98  1 27 19 41 30.0020000  0  8  3 10 31 18 19 27 13  2
  24844075.731     -472963.95449   -356505.64549  24844074.4054   24844081.7354
  24460156.837    -9463878.57049  -7364119.69449  24460155.5974   24460163.3364
  22286057.278   -19581341.54949 -15252167.21749  22286056.5544   22286061.4964
  21749302.508      -26362.55749    -18076.12549  21749301.7824   21749306.8034
  21201168.559    -1139665.23749   -883257.01249  21201167.7274   21201172.8314
  22472705.274   -19742217.10749 -15238002.00049  22472704.7904   22472709.8884
  21483204.916   -18439963.72249 -14359105.85449  21483204.6174   21483208.1784
  23561414.159   -14459096.01149 -11022420.52749  23561413.0334   23561419.8944
 98  1 27 19 42  0.0020000  0  8  3 10 31 18 19 27 13  2
  24857304.202     -403448.80249   -302338.06049  24857303.7074   24857309.9654
  24459592.238    -9466845.87349  -7366431.90649  24459590.9084   24459598.5004
  22286196.694   -19580609.20949 -15251596.57949  22286195.9584   22286200.6704
  21762611.436       43576.06249     36421.46049  21762610.8284   21762616.0044
  21200697.682    -1142139.75949   -885185.21849  21200696.9934   21200701.9034
  22461287.940   -19802215.47649 -15284753.96149  22461286.9554   22461292.5904
  21473215.565   -18492458.02849 -14400010.50749  21473215.3824   21473219.0644
  23549045.375   -14524094.20249 -11073068.44249  23549043.8964   23549050.7014
 98  1 27 19 42 30.0020000  0  8  3 10 31 18 19 27 13  2
  24870610.464     -333523.79149   -247851.09349  24870610.5054   24870616.3694
  24459123.053    -9469311.60249  -7368353.28349  24459121.9724   24459129.8064
  22286454.267   -19579256.00649 -15250542.14849  22286453.2694   22286458.3954
  21776003.394      113950.95949     91259.01149  21776002.8274   21776007.9754
  21200268.384    -1144395.82249   -886943.19149  21200267.6904   21200272.6484
  22449886.432   -19862130.88749 -15331441.27449  22449885.7874   22449890.9444
  21463304.030   -18544543.57349 -14440596.64049  21463303.7344   21463307.3654
  23536719.959   -14588864.77049 -11123538.99049  23536718.7094   23536725.3884
 98  1 27 19 43  0.0020000  0  8  3 10 31 18 19 27 13  2
  24883986.008     -263235.02749   -193080.68249  24883983.5874   24883994.2734
  24458744.208    -9471302.70749  -7369904.81449  24458742.9454   24458750.9134
  22286819.495   -19577336.68149 -15249046.58049  22286818.5074   22286823.7044
  21789463.120      184682.33449    146374.33049  21789462.2494   21789467.4014
  21199871.564    -1146481.04349   -888568.04449  21199870.7354   21199875.8584
  22438493.643   -19922000.31949 -15378092.76349  22438492.5054   22438498.0364
  21453461.531   -18596266.27349 -14480900.04549  21453461.3384   21453464.8864
  23524432.530   -14653435.53149 -11173853.84849  23524431.1454   23524437.0674
 98  1 27 19 43 30.0020000  0  8  3 10 31 18 19 27 13  2
  24897443.226     -192516.55049   -137975.44849  24897442.0504   24897449.2084
  24458471.932    -9472733.82249  -7371020.00749  24458470.3134   24458477.7634
  22287307.384   -19574772.95149 -15247048.88349  22287306.6294   22287311.5874
  21803003.367      255837.01249    201819.49249  21803002.5254   21803007.8754
  21199522.450    -1148315.54749   -889997.53749  21199521.6874   21199526.6214
  22427125.066   -19981742.53849 -15424645.12649  22427124.3154   22427129.6014
  21443707.595   -18647523.63749 -14520840.84749  21443707.5004   21443710.9314
  23512199.308   -14717721.24049 -11223946.58949  23512198.1144   23512204.6174
 98  1 27 19 44  0.0020000  0  8  3 10 31 18 19 27 13  2
  24910967.453     -121446.42649    -82596.18649  24910967.4564   24910973.0024
  24458292.083    -9473678.62049  -7371756.24749  24458290.7084   24458298.8134
  22287905.066   -19571632.04549 -15244601.43149  22287903.7854   22287909.1264
  21816612.980      327356.08649    257548.60149  21816612.4734   21816617.5414
  21199208.687    -1149964.64849   -891282.55749  21199207.8944   21199212.9294
  22415765.710   -20041436.52549 -15471159.90649  22415765.0294   22415770.0024
  21434030.818   -18698375.33449 -14560465.54549  21434030.5594   21434034.2134
  23500006.098   -14781796.77349 -11273875.55149  23500004.9554   23500011.7184
 98  1 27 19 44 30.0020000  0  8  3 10 31 18 19 27 13  2
  24924563.205      -50000.04549    -26923.72949  24924562.8644   24924570.0394
  24458209.342    -9474113.72349  -7372095.31149  24458208.1754   24458215.6554
  22288618.914   -19567880.69849 -15241678.31249  22288617.9514   22288622.8374
  21830298.071      399271.46849    313586.52549  21830297.5494   21830302.5074
  21198937.133    -1151391.65549   -892394.51749  21198936.2824   21198941.4214
  22404421.440   -20101050.91049 -15517612.65549  22404420.6724   22404425.7174
  21424435.518   -18748798.99549 -14599756.70449  21424435.3424   21424438.7924
  23487859.114   -14845629.49149 -11323615.31049  23487858.1744   23487864.4844
 98  1 27 19 45  0.0020000  0  8  3 10 31 18 19 27 13  2
  24938228.197       21810.06849     29032.14149  24938227.4644   24938234.4274
  24458217.365    -9474071.98049  -7372062.81449  24458215.6704   24458224.0234
  22289442.486   -19563552.77349 -15238305.90449  22289441.3314   22289446.3604
  21844057.804      471579.25449    369930.22049  21844057.0644   21844062.4254
  21198704.616    -1152613.35949   -893346.49349  21198704.0034   21198708.7154
  22393092.481   -20160584.89649 -15564002.75549  22393091.7554   22393096.7834
  21414917.619   -18798815.92149 -14638730.92049  21414917.1114   21414920.9974
  23475755.800   -14909232.99049 -11373176.44549  23475754.4734   23475761.1404
 98  1 27 19 45 30.0020000  0  8  3 10 31 18 19 27 13  2
  24951982.180       94087.63649     85352.26949  24951981.4934   24951988.5314
  24458335.208    -9473452.83049  -7371580.39049  24458334.0884   24458340.9064
  22290403.149   -19558504.60249 -15234372.26149  22290402.4954   22290407.0664
  21857919.230      544421.34149    426690.24949  21857918.9884   21857923.9734
  21198534.277    -1153508.72149   -894044.18449  21198533.7204   21198538.6714
  22381799.698   -20219928.72349 -15610244.68349  22381798.9334   22381804.1374
  21405498.904   -18848311.50149 -14677298.90449  21405498.6224   21405502.0444
  23463717.964   -14972492.62449 -11422469.63649  23463716.8174   23463723.2614
 98  1 27 19 46  0.0020000  0  8  3 10 31 18 19 27 13  2
  24965774.233      166564.57449    141827.74749  24965773.3254   24965781.1674
  24458509.077    -9472538.93249  -7370868.28349  24458508.0874   24458515.8634
  22291449.155   -19553008.02849 -15230089.20449  22291448.0524   22291453.1424
  21871830.672      617526.01749    483654.89749  21871829.9574   21871835.1494
  21198374.214    -1154349.81649   -894699.58649  21198373.2724   21198378.2894
  22370489.140   -20279366.16349 -15656559.55049  22370488.3634   22370493.4194
  21396126.589   -18897563.47149 -14715677.05549  21396126.3604   21396129.8014
  23451691.388   -15035692.80949 -11471716.50149  23451690.3434   23451696.6824
 98  1 27 19 46 30.0020000  0  8  3 10 31 18 19 27 13  2
  24979674.763      239611.71249    198747.54849  24979674.1314   24979681.5444
  24458809.112    -9470962.50049  -7369639.92849  24458807.8204   24458815.1844
  22292650.473   -19546695.08049 -15225170.01449  22292649.3804   22292654.5434
  21885858.736      691243.51149    541097.06149  21885858.0864   21885863.0804
  21198294.280    -1154769.80949   -895026.85849  21198293.5874   21198298.5774
  22359231.997   -20338522.75549 -15702655.57549  22359230.9474   22359236.3794
  21386874.026   -18946185.97549 -14753564.71749  21386873.5954   21386877.3894
  23439745.494   -15098469.32149 -11520633.22949  23439744.0934   23439750.8044
 98  1 27 19 47  0.0020000  0  8  3 10 31 18 19 27 13  2
  24993644.047      313020.22049    255948.93449  24993644.1604   24993650.9474
  24459197.635    -9468921.03449  -7368049.21849  24459195.9914   24459203.6584
  22293967.080   -19539776.27849 -15219778.72449  22293966.0384   22293971.0404
  21899963.851      765366.32349    598855.06149  21899963.1414   21899968.1664
  21198253.724    -1154982.92749   -895192.93149  21198252.9654   21198257.9204
  22347987.710   -20397611.70549 -15748698.88949  22347986.8114   22347991.7914
  21377707.382   -18994357.06949 -14791100.62849  21377707.0214   21377710.4474
  23427837.689   -15161044.87749 -11569393.36649  23427836.4264   23427842.8584
 98  1 27 19 47 30.0020000  0  8  3 10 31 18 19 27 13  2
  25007680.502      386781.46749    313425.18249  25007679.6344   25007687.4084
  24459677.181    -9466401.21649  -7366085.75649  24459675.6594   24459683.5194
  22295397.627   -19532258.55849 -15213920.76049  22295396.1984   22295401.5134
  21914142.642      839876.02949    656914.53349  21914141.8254   21914147.0274
  21198250.430    -1154999.97149   -895206.22249  21198249.6374   21198254.8994
  22336754.944   -20456640.32449 -15794695.20149  22336753.9174   22336759.4124
  21368628.871   -19042064.84449 -14828275.51849  21368628.4664   21368632.1184
  23415965.570   -15223433.09749 -11618007.53249  23415964.4054   23415970.4134
 98  1 27 19 48  0.0020000  0  8  3 10 31 18 19 27 13  2
  25021792.059      460937.70549    371209.21349  25021791.4644   25021798.8584
  24460255.000    -9463364.36149  -7363719.41149  24460253.4494   24460262.0304
  22296943.149   -19524136.68749 -15207592.02149  22296942.0784   22296947.4074
  21928397.848      914787.55949    715287.11549  21928397.3164   21928402.6014
  21198289.798    -1154793.34949   -895045.22349  21198289.2704   21198293.9384
  22325543.403   -20515557.47549 -15840604.65149  22325542.7584   22325547.9374
  21359647.104   -19089264.51749 -14865054.47749  21359646.8044   21359650.3984
  23404136.312   -15285596.21249 -11666446.29349  23404135.0744   23404141.2644
 98  1 27 19 48 30.0020000  0  8  3 10 31 18 19 27 13  2
  25035970.469      535445.97649    429267.55749  25035969.9994   25035977.5704
  24460927.366    -9459831.38949  -7360966.48649  24460926.0034   24460933.2124
  22298597.701   -19515442.14449 -15200817.04449  22298596.5734   22298601.9824
  21942722.636      990064.73949    773944.62549  21942721.9404   21942727.1264
  21198365.112    -1154397.66749   -894736.90449  21198364.4284   21198369.2724
  22314347.793   -20574390.82149 -15886448.79449  22314347.0394   22314352.0444
  21350753.582   -19136000.28249 -14901471.94349  21350753.0114   21350756.6884
  23392348.145   -15347543.08649 -11714716.54649  23392346.5154   23392353.6744
 98  1 27 19 49  0.0020000  0  8  3 10 31 18 19 27 13  2
  25050223.791      610347.59949    487632.41049  25050223.9014   25050231.1904
  24461703.399    -9455753.63149  -7357789.03149  24461701.8064   24461709.4984
  22300369.338   -19506132.26449 -15193562.58649  22300368.7064   22300373.2694
  21957128.134     1065766.13349    832932.68949  21957127.4774   21957132.6684
  21198486.220    -1153761.34149   -894241.07249  21198485.5744   21198490.5404
  22303176.070   -20633098.68149 -15932195.15949  22303175.3634   22303180.4794
  21341953.617   -19182244.13949 -14937506.10949  21341953.2934   21341956.9044
  23380611.109   -15409221.04549 -11762777.26549  23380609.6114   23380615.9774
 98  1 27 19 49 30.0020000  0  8  3 10 31 18 19 27 13  2
  25064555.763      685662.34949    546319.17249  25064555.3894   25064563.0154
  24462585.401    -9451118.72049  -7354177.43849  24462584.4554   24462591.8894
  22302262.584   -19496183.47849 -15185810.27849  22302261.5964   22302266.2734
  21971617.416     1141907.69449    892263.74349  21971616.6264   21971621.9614
  21198657.149    -1152863.10049   -893541.14749  21198656.3064   21198661.3674
  22292034.379   -20691648.66849 -15977818.50749  22292033.3064   22292038.7044
  21333247.574   -19227994.63749 -14973155.83349  21333247.3204   21333250.9774
  23368931.767   -15470595.97449 -11810601.85449  23368930.3864   23368936.9064
 98  1 27 19 50  0.0020000  0  8  3 10 31 18 19 27 13  2
  25078948.967      761298.91749    605256.70649  25078948.3354   25078955.3614
  24463553.852    -9446029.88649  -7350212.14349  24463552.8454   24463559.5594
  22304263.839   -19485666.70549 -15177615.38949  22304262.8604   22304267.9264
  21986175.000     1218408.27449    951874.54549  21986174.3984   21986179.6124
  21198861.144    -1151791.17549   -892705.89049  21198860.3744   21198865.4524
  22280903.533   -20750141.46649 -16023397.29349  22280902.4624   22280907.7244
  21324616.501   -19273350.93749 -15008498.39649  21324616.1754   21324619.9804
  23357291.188   -15531767.19149 -11858267.71549  23357289.7754   23357296.7294
 98  1 27 19 50 30.0020000  0  8  3 10 31 18 19 27 13  2
  25093410.104      837292.83949    664472.69149  25093409.0644   25093416.1834
  24464616.331    -9440446.84549  -7345861.75949  24464615.3994   24464622.3714
  22306381.966   -19474535.88049 -15168942.01749  22306380.9544   22306385.8924
  22000809.821     1295314.43149   1011801.38249  22000809.1874   22000814.2014
  21199106.704    -1150500.76549   -891700.38249  21199105.9644   21199111.0834
  22269788.476   -20808551.40849 -16068911.51349  22269787.4774   22269792.9624
  21316069.788   -19318264.20149 -15043495.73249  21316069.3624   21316073.0634
  23345694.730   -15592706.99349 -11905753.24449  23345694.1024   23345700.2434
 98  1 27 19 51  0.0020000  0  8  3 10 31 18 19 27 13  2
  25107935.554      913624.18649    723951.60449  25107936.1674   25107943.2694
  24465767.866    -9434395.77549  -7341146.68149  24465766.8124   24465773.8944
  22308612.328   -19462815.06049 -15159808.91749  22308611.4704   22308616.4634
  22015519.366     1372613.29249   1072034.22549  22015518.6544   22015523.7384
  21199390.769    -1149008.02449   -890537.21449  21199390.0184   21199395.1064
  22258687.550   -20866887.12249 -16114367.89849  22258686.9424   22258691.6784
  21307607.907   -19362731.61249 -15078145.65249  21307607.5704   21307611.3024
  23334136.941   -15653443.86849 -11953080.66049  23334135.7244   23334142.1394
 98  1 27 19 51 30.0020000  0  8  3 10 31 18 19 27 13  2
  25122529.023      990312.63749    783708.78849  25122528.7754   25122536.2324
  24467013.298    -9427850.75849  -7336046.68849  24467012.1504   24467019.7454
  22310959.695   -19450479.32149 -15150196.66549  22310958.6354   22310963.5754
  22030305.676     1450315.62549   1132581.45349  22030305.3174   22030310.2614
  21199717.702    -1147290.20849   -889198.66449  21199716.9714   21199721.9334
  22247606.811   -20925116.68849 -16159741.56649  22247605.7734   22247610.8384
  21299237.978   -19406715.78849 -15112419.02549  21299237.6054   21299241.2414
  23322624.229   -15713943.47349 -12000223.18549  23322622.8844   23322629.3444
 98  1 27 19 52  0.0020000  0  8  3 10 31 18 19 27 13  2
  25137162.256     1067210.67649    843629.30649  25137161.6754   25137169.0624
  24468326.785    -9420948.51349  -7330668.34649  24468324.7914   24468333.7054
  22313395.664   -19437678.27549 -15140221.83049  22313394.4784   22313399.8084
  22045141.442     1528277.84049   1193331.19249  22045140.6074   22045145.6594
  21200062.494    -1145478.28549   -887786.78149  21200061.7934   21200066.8684
  22236517.718   -20983390.29549 -16205149.55949  22236516.9904   22236522.1084
  21290935.331   -19450346.71049 -15146417.13649  21290935.2424   21290938.5984
  23311130.210   -15774345.20249 -12047289.44549  23311129.1114   23311135.4244
 98  1 27 19 52 30.0020000  0  8  3 10 31 18 19 27 13  2
  25151887.723     1144594.41449    903928.25849  25151887.6314   25151895.1084
  24469762.844    -9413401.70549  -7324787.74549  24469761.6964   24469768.2504
  22315972.898   -19424134.67749 -15129668.39049  22315971.7944   22315976.5704
  22060080.550     1606783.16549   1254504.12949  22060079.9544   22060084.9634
  21200480.394    -1143282.21849   -886075.57149  21200479.7034   21200484.7624
  22225476.312   -21041413.33449 -16250362.30749  22225475.4834   22225480.5514
  21282752.434   -19493348.09849 -15179924.70349  21282752.1674   21282755.7214
  23299713.541   -15834340.02049 -12094038.63349  23299712.0854   23299719.1554
 98  1 27 19 53  0.0020000  0  8  3 10 31 18 19 27 13  2
  25166705.033     1222460.17149    964602.82049  25166704.8734   25166712.0334
  24471321.445    -9405211.45549  -7318405.75349  24471319.9584   24471328.3254
  22318692.626   -19409842.37749 -15118531.54649  22318691.7514   22318696.3234
  22075120.974     1685820.75549   1316091.81249  22075120.3924   22075125.7054
  21200972.123    -1140698.25949   -884062.10849  21200971.2134   21200976.2484
  22214482.095   -21099188.10749 -16295381.60049  22214481.0154   22214486.3454
  21274684.672   -19535744.44349 -15212960.81049  21274684.4524   21274688.0004
  23288375.671   -15893920.80949 -12140465.20449  23288374.5044   23288381.0024
 98  1 27 19 53 30.0020000  0  8  3 10 31 18 19 27 13  2
  25181614.958     1300811.07249   1025655.42749  25181614.0014   25181622.6704
  24473000.577    -9396387.59249  -7311530.04449  24472998.9454   24473006.1934
  22321555.579   -19394797.08949 -15106807.95649  22321554.5594   22321559.7874
  22090259.879     1765376.15749   1378082.99449  22090259.0724   22090264.3684
  21201535.484    -1137737.65749   -881755.15249  21201534.6134   21201539.8684
  22203532.893   -21156726.52549 -16340216.71549  22203532.2344   22203537.2504
  21266730.864   -19577542.08749 -15245530.39149  21266730.6594   21266734.2824
  23277113.232   -15953105.02549 -12186582.75849  23277112.3804   23277118.8364
 98  1 27 19 54  0.0020000  0  8  3 10 31 18 19 27 13  2
  25196598.200     1379548.37349   1087009.10949  25196597.7784   25196604.5974
  24474779.326    -9387040.36849  -7304246.52549  24474778.3644   24474786.6774
  22324542.520   -19379100.83849 -15094577.13149  22324541.4524   22324546.4084
  22105477.570     1845345.74649   1440396.90849  22105476.6274   22105482.3834
  21202149.492    -1134510.91349   -879240.81949  21202148.8284   21202153.6824
  22192608.877   -21214132.70749 -16384948.79849  22192608.0674   22192613.1424
  21258870.915   -19618846.30649 -15277715.49849  21258870.6104   21258874.0274
  23265904.579   -16012006.69849 -12232480.15249  23265903.5604   23265910.3804
 98  1 27 19 54 30.0020000  0  8  3 10 31 18 19 27 13  2
  25211626.907     1458524.86549   1148549.16049  25211625.5654   25211634.2124
  24476627.628    -9377327.95749  -7296678.44049  24476625.9244   24476634.1974
  22327626.242   -19362895.64649 -15081949.72249  22327625.5664   22327629.8724
  22120742.484     1925563.29249   1502904.03949  22120741.8194   22120747.2764
  21202784.318    -1131174.89549   -876641.32949  21202783.6384   21202788.6374
  22181683.164   -21271547.72949 -16429687.76149  22181682.4914   22181687.3604
  21251076.352   -19659807.06349 -15309632.96149  21251076.1864   21251079.7524
  23254719.802   -16070783.15849 -12278279.97849  23254719.0234   23254725.3334
 98  1 27 19 55  0.0020000  0  8  3 10 31 18 19 27 13  2
  25226709.226     1537783.79649   1210309.31549  25226709.1134   25226716.2944
  24478551.964    -9367215.71649  -7288798.79849  24478550.0824   24478558.0684
  22330815.028   -19346138.56549 -15068892.27249  22330814.0394   22330818.8314
  22136059.291     2006053.51649   1565623.64649  22136058.6064   22136063.8784
  21203447.349    -1127690.76949   -873926.43149  21203446.5994   21203451.6354
  22170764.085   -21328927.77549 -16474399.46849  22170763.3604   22170768.5044
  21243356.937   -19700372.67949 -15341242.52149  21243356.7404   21243360.2024
  23243562.474   -16129415.49049 -12323967.49149  23243561.4374   23243567.8984
 98  1 27 19 55 30.0020000  0  8  3 10 31 18 19 27 13  2
  25241848.109     1617338.74349   1272300.13749  25241847.2234   25241856.2144
  24480557.850    -9356674.91049  -7280585.21349  24480556.5034   24480563.8874
  22334113.074   -19328807.36149 -15055387.45349  22334112.0564   22334117.3484
  22151432.901     2086842.39049   1628575.96649  22151432.0834   22151437.6384
  21204143.395    -1124032.97849   -871076.20849  21204142.7174   21204148.0604
  22159859.724   -21386230.37849 -16519050.83049  22159859.0394   22159863.9504
  21235721.673   -19740496.22649 -15372507.61049  21235721.2064   21235724.8724
  23232437.920   -16187875.54349 -12369520.76449  23232436.7994   23232443.0444
 98  1 27 19 56  0.0020000  0  8  3 10 31 18 19 27 13  2
  25257054.819     1697249.74249   1334568.39149  25257055.0954   25257063.1244
  24482659.640    -9345630.05949  -7271978.87049  24482658.6784   24482666.1284
  22337534.446   -19310828.02549 -15041377.59849  22337533.3774   22337538.8644
  22166878.195     2168007.98149   1691821.82649  22166877.6604   22166882.8434
  21204888.798    -1120115.81649   -868023.87749  21204888.2114   21204893.1374
  22148984.098   -21443382.19649 -16563584.69849  22148983.1984   22148988.1024
  21228183.042   -19780112.01649 -15403377.04649  21228182.6854   21228186.2784
  23221363.119   -16246073.81549 -12414870.05249  23221361.7464   23221368.2914
 98  1 27 19 56 30.0020000  0  8  3 10 31 18 19 27 13  2
  25272330.842     1777524.57649   1397120.15849  25272330.0604   25272338.5884
  24484860.371    -9334064.94049  -7262967.11149  24484859.2154   24484868.0694
  22341082.279   -19292184.29349 -15026850.02649  22341081.1514   22341086.5684
  22182402.928     2249590.90749   1755392.88449  22182402.2924   22182407.7614
  21205688.294    -1115914.34949   -864750.01049  21205687.5184   21205692.7204
  22138139.776   -21500369.35949 -16607990.26049  22138138.9554   22138143.9424
  21220744.325   -19819202.71749 -15433837.32349  21220744.0554   21220747.7414
  23210341.797   -16303991.24949 -12460000.50049  23210340.3564   23210346.6394
 98  1 27 19 57  0.0020000  0  8  3 10 31 18 19 27 13  2
  25287648.526     1858019.37549   1459843.32949  25287647.8064   25287654.7764
  24487137.104    -9322100.96449  -7253644.57449  24487135.8994   24487143.9324
  22344727.639   -19273028.02949 -15011923.08249  22344726.8084   22344731.8794
  22197986.075     2331480.84249   1819203.16949  22197985.8644   22197990.9414
  21206517.156    -1111558.68749   -861355.99549  21206516.4144   21206521.6514
  22127299.787   -21557334.04149 -16652378.30649  22127299.1204   22127304.0214
  21213380.193   -19857901.50849 -15463992.21849  21213379.9834   21213383.3914
  23199349.554   -16361755.70249 -12505011.75049  23199348.4654   23199354.4984
 98  1 27 19 57 30.0020000  0  8  3 10 31 18 19 27 13  2
  25303003.915     1938712.10549   1522720.73549  25303004.2554   25303010.1964
  24489486.889    -9309752.67949  -7244022.55649  24489485.9724   24489493.2904
  22348464.328   -19253391.73749 -14996622.08649  22348463.1214   22348468.2414
  22213626.650     2413672.31049   1883248.42049  22213626.0974   22213631.2704
  21207370.927    -1107072.06149   -857859.92649  21207370.2534   21207375.1094
  22116460.043   -21614297.07349 -16696765.06149  22116459.1644   22116464.2034
  21206087.793   -19896223.53249 -15493853.52349  21206087.4414   21206090.9424
  23188385.641   -16419371.36349 -12549907.04349  23188384.3964   23188390.7724
 98  1 27 19 58  0.0020000  0  8  3 10 31 18 19 27 13  2
  25318493.562     2020110.72849   1586148.19649  25318491.6834   25318501.0314
  24492001.424    -9296538.80549  -7233726.05449  24492000.0914   24492008.6204
  22352385.494   -19232785.78149 -14980565.51349  22352384.3764   22352389.3264
  22229417.277     2496652.37349   1947908.15349  22229416.6754   22229422.1174
  21208343.418    -1101961.63049   -853877.78449  21208342.6004   21208347.8224
  22105712.014   -21670778.37649 -16740776.45049  22105711.3054   22105716.4774
  21198958.314   -19933689.08249 -15523047.45549  21198958.1974   21198961.6394
  23177542.222   -16476353.60249 -12594308.76949  23177540.8724   23177547.5164
 98  1 27 19 58 30.0020000  0  8  3 10 31 18 19 27 13  2
  25334070.521     2101967.65649   1649932.75949  25334069.5594   25334077.1324
  24494635.312    -9282698.30349  -7222941.26649  24494634.2484   24494641.7304
  22356441.346   -19211471.96449 -14963957.35249  22356440.4184   22356445.3974
  22245306.804     2580152.09249   2012972.81749  22245305.9454   22245311.2044
  21209385.444    -1096485.80549   -849610.91249  21209384.7684   21209389.6894
  22095009.582   -21727019.95349 -16784601.03349  22095008.6844   22095013.7404
  21191942.761   -19970556.27549 -15551775.12849  21191942.3344   21191945.8564
  23166768.478   -16532970.02749 -12638425.44449  23166767.5014   23166773.8064
 98  1 27 19 59  0.0020000  0  8  3 10 31 18 19 27 13  2
  25349714.414     2184176.15249   1713991.25549  25349713.7784   25349720.8224
  24497365.675    -9268350.09249  -7211760.86549  24497364.3684   24497372.4984
  22360610.369   -19189563.45549 -14946885.79549  22360609.4224   22360614.3464
  22261266.181     2664019.00049   2078323.59749  22261265.5174   22261270.9584
  21210476.283    -1090753.38949   -845144.10649  21210475.6534   21210480.7324
  22084332.653   -21783127.43549 -16828321.12949  22084331.7854   22084336.6554
  21185021.285   -20006928.77549 -15580117.33349  21185020.9954   21185024.4184
  23156042.730   -16589334.41449 -12682345.72849  23156041.8264   23156048.1334
 98  1 27 19 59 30.0020000  0  8  3 10 31 18 19 27 13  2
  25365414.209     2266679.28049   1778279.36949  25365413.1604   25365420.7154
  24500175.578    -9253583.83049  -7200254.70449  24500174.9524   24500182.2394
  22364883.407   -19167108.33949 -14929388.29849  22364882.6044   22364887.4204
  22277278.185     2748162.25149   2143889.71749  22277277.3424   22277282.7494
  21211602.454    -1084835.54949   -840532.80449  21211601.7044   21211606.9714
  22073669.912   -21839160.41649 -16871983.16349  22073668.9474   22073674.1764
  21178182.065   -20042869.02349 -15608122.70749  21178181.8304   21178185.3104
  23145351.232   -16645518.58949 -12726125.57849  23145349.9684   23145356.6254
 98  1 27 20  0  0.0020000  0  7 10 31 18 19 27 13  2
  24503047.545    -9238491.67649  -7188494.60949  24503045.4954   24503053.3044
  22369247.263   -19144176.40749 -14911519.25949  22369246.0534   22369251.7534
  22293326.629     2832496.98849   2209605.04849  22293325.8924   22293331.1834
  21212749.887    -1078805.76249   -835834.27349  21212749.0694   21212754.0894
  22063006.731   -21895195.59349 -16915646.91549  22063005.8094   22063010.9724
  21171412.583   -20078442.82249 -15635842.53949  21171412.2164   21171415.6824
  23134676.840   -16701612.95249 -12769835.43949  23134675.7074   23134682.3024
 98  1 27 20  0 30.0020000  0  7 10 31 18 19 27 13  2
  24506018.159    -9222881.20549  -7176330.62249  24506016.4684   24506024.1564
  22373739.959   -19120567.08949 -14893122.38649  22373739.4324   22373744.0984
  22309450.737     2917229.50949   2275630.33149  22309449.9894   22309455.6524
  21213955.917    -1072467.95449   -830895.72949  21213954.9854   21213960.3064
  22052381.977   -21951028.99949 -16959153.44149  22052381.0444   22052386.1414
  21164754.935   -20113428.82649 -15663104.35549  21164754.6954   21164758.3904
  23124058.632   -16757411.83249 -12813315.06949  23124057.4784   23124063.6964
 98  1 27 20  1  0.0020000  0  7 10 31 18 19 27 13  2
  24509058.787    -9206902.54449  -7163879.73449  24509057.5334   24509064.5474
  22378337.751   -19096405.61249 -14874295.25849  22378336.5404   22378341.8384
  22325629.070     3002247.13849   2341877.77949  22325628.6194   22325633.9444
  21215196.728    -1065947.51749   -825814.87349  21215196.0654   21215201.0594
  22041770.462   -22006792.56849 -17002605.54549  22041769.7104   22041774.8174
  21158188.579   -20147935.40349 -15689992.58949  21158188.4314   21158191.8314
  23113474.632   -16813030.99449 -12856654.65249  23113473.5754   23113479.7554
 98  1 27 20  1 30.0020000  0  7 10 31 18 19 27 13  2
  24512197.814    -9190406.74149  -7151025.89149  24512196.6594   24512204.8314
  22383070.646   -19071534.12049 -14854914.86749  22383069.9934   22383074.7604
  22341894.944     3087724.41649   2408483.39149  22341894.3384   22341899.3574
  21216499.384    -1059101.88749   -820480.62049  21216498.6944   21216503.7694
  22031201.717   -22062331.66149 -17045882.74149  22031200.9774   22031205.8134
  21151740.923   -20181818.01049 -15716394.61449  21151740.7954   21151744.1174
  23102953.845   -16868317.78949 -12899735.25749  23102952.4794   23102959.2764
 98  1 27 20  2  0.0020000  0  7 10 31 18 19 27 13  2
  24515426.097    -9173441.85049  -7137806.51049  24515424.7054   24515432.4724
  22387925.787   -19046020.11749 -14835033.82249  22387924.8324   22387930.1724
  22358237.501     3173604.73549   2475403.06549  22358237.0154   22358242.2484
  21217851.627    -1051996.01549   -814943.58349  21217850.9374   21217855.8624
  22020662.578   -22117715.34349 -17089038.83049  22020661.8634   22020666.5794
  21145399.730   -20215141.29549 -15742360.80749  21145399.5844   21145402.8584
  23092485.550   -16923328.70049 -12942600.87649  23092484.3864   23092490.7584
 98  1 27 20  2 30.0020000  0  7 10 31 18 19 27 13  2
  24518727.215    -9156094.29349  -7124288.95849  24518726.1994   24518733.9144
  22392882.287   -19019973.41149 -14814737.67149  22392881.3014   22392886.5294
  22374636.493     3259781.91349   2542554.05849  22374635.8124   22374641.3324
  21219233.331    -1044735.18649   -809285.79349  21219232.7114   21219237.6664
  22010131.317   -22173057.52449 -17132162.58249  22010130.5744   22010135.2704
  21139142.440   -20248023.55249 -15767983.33449  21139142.1964   21139145.5774
  23082053.692   -16978148.16649 -12985317.31749  23082052.4484   23082058.8484
 98  1 27 20  3  0.0020000  0  7 10 31 18 19 27 13  2
  24522134.316    -9138189.91849  -7110337.52049  24522133.2804   24522140.8664
  22397970.639   -18993234.19649 -14793901.90649  22397969.8284   22397975.0094
  22391121.997     3346413.91349   2610059.46149  22391121.3094   22391126.8064
  21220676.354    -1037152.09149   -803376.89049  21220675.5824   21220680.7534
  21999638.691   -22228196.40749 -17175127.92049  21999637.4784   21999642.6054
  21132999.139   -20280306.63149 -15793138.97549  21132998.8794   21133002.3834
  23071689.764   -17032610.97349 -13027755.84249  23071688.4424   23071694.8564
 98  1 27 20  3 30.0020000  0  7 10 31 18 19 27 13  2
  24525631.531    -9119811.88449  -7096017.00149  24525630.3894   24525638.4134
  22403175.259   -18965883.78749 -14772589.89349  22403174.1054   22403179.1314
  22407674.680     3433398.39649   2677839.51949  22407674.1104   22407679.5464
  21222163.414    -1029337.70349   -797287.76249  21222162.6134   21222167.6694
  21989165.860   -22283231.22849 -17218012.17649  21989164.8884   21989169.8024
  21126951.722   -20312085.96449 -15817902.08849  21126951.3464   21126954.9064
  23061376.845   -17086805.60949 -13069985.40749  23061375.4624   23061381.8904
 98  1 27 20  4  0.0020000  0  7 10 31 18 19 27 13  2
  24529244.598    -9100824.86249  -7081221.93849  24529243.7584   24529251.5704
  22408518.387   -18937805.51949 -14750710.71049  22408517.3064   22408522.5404
  22424317.020     3520854.41549   2745987.01249  22424316.2794   22424322.0704
  21223721.095    -1021151.77949   -790909.12549  21223720.5144   21223725.2874
  21978734.468   -22338048.36649 -17260726.81049  21978733.5194   21978738.4144
  21121023.077   -20343241.14549 -15842178.85349  21121022.8304   21121026.2514
  23051137.943   -17140611.24749 -13111911.84849  23051137.1004   23051143.4174
 98  1 27 20  4 30.0020000  0  7 10 31 18 19 27 13  2
  24532957.141    -9081315.41649  -7066019.79349  24532955.7284   24532963.6204
  22413984.313   -18909081.74549 -14728328.53349  22413983.5424   22413988.8064
  22441033.110     3608698.20149   2814436.66349  22441032.3774   22441037.8934
  21225336.125    -1012664.98349   -784296.04049  21225335.3764   21225340.5234
  21968332.337   -22392711.71849 -17303321.60649  21968331.5014   21968336.4734
  21115197.265   -20373855.91549 -15866034.51349  21115196.9934   21115200.6804
  23040955.196   -17194122.07249 -13153608.56649  23040953.9304   23040960.2714
 98  1 27 20  5  0.0020000  0  7 10 31 18 19 27 13  2
  24536734.110    -9061467.56649  -7050553.95349  24536732.4844   24536740.9184
  22419543.008   -18879870.53549 -14705566.54949  22419541.9344   22419547.3074
  22457790.810     3696760.36249   2883056.47349  22457790.1454   22457795.8354
  21226976.506    -1004044.85349   -777579.05949  21226975.7204   21226980.8494
  21957933.111   -22447360.01849 -17345904.67949  21957932.0304   21957937.3264
  21109445.214   -20404083.16549 -15889588.21349  21109444.9354   21109448.4074
  23030792.753   -17247525.91949 -13195221.92349  23030791.5654   23030797.9744
 98  1 27 20  5 30.0020000  0  7 10 31 18 19 27 13  2
  24540605.676    -9041122.45049  -7034700.63749  24540604.4834   24540612.3624
  22425225.505   -18850008.51049 -14682297.44349  22425224.2304   22425229.4774
  22474620.102     3785198.96049   2951969.60349  22474619.5954   22474625.0884
  21228673.677     -995126.01549   -770629.32149  21228672.9064   21228677.8564
  21947570.228   -22501817.32949 -17388338.92749  21947569.4344   21947574.1584
  21103798.359   -20433757.65949 -15912711.19449  21103798.2544   21103801.6984
  23020679.328   -17300672.37449 -13236634.71949  23020678.0664   23020684.3944
 98  1 27 20  6  0.0020000  0  7 10 31 18 19 27 13  2
  24544565.408    -9020314.42349  -7018486.62149  24544564.4124   24544572.0844
  22431020.411   -18819555.83349 -14658568.08849  22431019.2194   22431024.9974
  22491513.867     3873976.17449   3021146.59949  22491513.3494   22491518.9664
  21230422.277     -985937.09449   -763469.12449  21230421.4754   21230426.5414
  21937239.118   -22556107.49249 -17430642.92749  21937238.2564   21937243.2144
  21098252.107   -20462903.23649 -15935422.03449  21098251.8544   21098255.3494
  23010605.396   -17353610.93049 -13277885.51249  23010604.4104   23010610.5764
 98  1 27 20  6 30.0020000  0  7 10 31 18 19 27 13  2
  24548623.631    -8998988.63849  -7001869.13349  24548623.3324   24548629.7694
  22436937.209   -18788462.64149 -14634339.63649  22436936.1924   22436941.5604
  22508483.423     3963151.49049   3090633.80149  22508482.8024   22508488.4614
  21232232.482     -976424.25049   -756056.52249  21232231.7724   21232236.8234
  21926955.104   -22610150.28649 -17472754.17449  21926954.2954   21926959.2264
  21092822.542   -20491435.90049 -15957655.27749  21092822.2534   21092825.7174
  23000585.255   -17406266.82149 -13318916.04949  23000584.1174   23000590.5914
 98  1 27 20  7  0.0020000  0  7 10 31 18 19 27 13  2
  24552782.951    -8977131.78149  -6984837.82849  24552781.8734   24552789.4394
  22442976.239   -18756727.56049 -14609611.01149  22442975.4214   22442980.6564
  22525531.505     4052739.50249   3160442.58349  22525530.7704   22525536.5254
  21234106.248     -966577.52849   -748383.75649  21234105.4154   21234110.5984
  21916717.810   -22663947.46249 -17514674.03649  21916716.7434   21916721.9794
  21087513.165   -20519337.09849 -15979396.47649  21087512.9294   21087516.3634
  22990620.882   -17458629.78249 -13359718.33349  22990619.5854   22990625.8804
 98  1 27 20  7 30.0020000  0  7 10 31 18 19 27 13  2
  24557030.066    -8954812.73949  -6967446.37949  24557028.1934   24557037.6824
  22449119.609   -18724444.03649 -14584455.03049  22449119.0384   22449123.8974
  22542642.252     4142656.76549   3230507.92849  22542641.5744   22542647.5844
  21236028.817     -956474.25349   -740511.07849  21236027.8944   21236033.2104
  21906506.897   -22717605.95549 -17556485.82349  21906506.1714   21906511.3544
  21082303.265   -20546715.28849 -16000730.13149  21082303.0754   21082306.4424
  22980699.871   -17510765.09149 -13400343.21549  22980698.8534   22980705.0174
 98  1 27 20  8  0.0020000  0  7 10 31 18 19 27 13  2
  24561355.841    -8932080.31949  -6949732.82049  24561354.9784   24561363.0544
  22455360.540   -18691647.98649 -14558899.67049  22455359.4284   22455364.6154
  22559807.643     4232861.26449   3300797.08249  22559807.3004   22559812.7314
  21237991.542     -946159.99149   -732473.99349  21237990.8454   21237996.1454
  21896313.273   -22771173.80249 -17598226.98249  21896312.4484   21896317.3014
  21077183.073   -20573621.98449 -16021696.38649  21077182.8304   21077186.3124
  22970818.985   -17562689.47149 -13440803.73949  22970817.8444   22970824.1144
 98  1 27 20  8 30.0020000  0  7 10 31 18 19 27 13  2
  24565728.825    -8909099.98249  -6931826.08449  24565727.5714   24565734.4314
  22461672.911   -18658476.24549 -14533051.56549  22461672.2484   22461677.2834
  22576996.438     4323188.51649   3371181.89649  22576996.0214   22577001.5854
  21239960.491     -935813.06549   -724411.45649  21239959.6724   21239964.9684
  21886106.612   -22824810.29549 -17640021.63149  21886105.5944   21886110.6284
  21072118.686   -20600235.58249 -16042434.25349  21072118.4064   21072121.8574
  22960948.234   -17614560.63649 -13481222.79549  22960946.8774   22960953.0904
 98  1 27 20  9  0.0020000  0  7 10 31 18 19 27 13  2
  24570184.716    -8885684.11449  -6913579.96449  24570183.2664   24570190.9024
  22468094.404   -18624731.30849 -14506756.81149  22468093.5624   22468098.3784
  22594241.597     4413812.11249   3441797.62749  22594240.9824   22594246.7694
  21241971.371     -925245.77949   -716177.20649  21241970.7404   21241976.1014
  21875918.856   -22878347.28649 -17681738.74149  21875917.9874   21875923.0634
  21067142.091   -20626387.78849 -16062812.59649  21067141.8814   21067145.2084
  22951122.162   -17666196.76449 -13521458.70349  22951120.9404   22951127.0424
 98  1 27 20  9 30.0020000  0  7 10 31 18 19 27 13  2
  24574826.871    -8861289.73949  -6894571.36649  24574826.1524   24574833.2034
  22474732.757   -18589846.45149 -14479573.81849  22474731.8074   22474736.8054
  22611646.203     4505273.71049   3513066.34249  22611645.7034   22611651.1424
  21244130.545     -913899.48449   -707335.94349  21244129.8154   21244135.0344
  21865855.967   -22931227.86349 -17722944.37149  21865855.1234   21865860.1214
  21062359.307   -20651521.44449 -16082397.27249  21062358.9024   21062362.5014
  22941450.009   -17717023.92749 -13561064.24849  22941448.7064   22941454.9484
 98  1 27 20 10  0.0020000  0  7 10 31 18 19 27 13  2
  24579544.992    -8836496.18149  -6875251.72649  24579543.7164   24579551.2084
  22481479.170   -18554393.75549 -14451948.34349  22481478.4864   22481483.3994
  22629100.006     4596993.93549   3584536.58849  22629099.2614   22629105.3034
  21246329.266     -902345.06149   -698332.49349  21246328.4934   21246333.4184
  21855810.114   -22984019.00349 -17764080.30449  21855809.1384   21855813.9854
  21057665.469   -20676187.66149 -16101617.70349  21057665.3824   21057668.6574
  22931818.916   -17767635.79149 -13600502.02649  22931817.9334   22931824.3954
 98  1 27 20 10 30.0020000  0  7 10 31 18 19 27 13  2
  24584350.617    -8811242.63249  -6855573.64949  24584348.9394   24584355.8804
  22488340.472   -18518337.62049 -14423852.65949  22488339.3274   22488344.4274
  22646613.569     4689028.14949   3656251.49549  22646612.3864   22646618.7664
  21248579.542     -890519.63349   -689117.87549  21248578.7354   21248584.1254
  21845790.763   -23036670.94349 -17805107.77249  21845789.8944   21845795.1584
  21053073.225   -20700320.24049 -16120422.31549  21053072.8014   21053076.2954
  22922235.330   -17817997.88549 -13639745.18149  22922233.9584   22922240.4124
 98  1 27 20 11  0.0020000  0  7 10 31 18 19 27 13  2
  24589249.490    -8785499.05549  -6835513.73649  24589248.7774   24589255.5504
  22495321.608   -18481651.42049 -14395266.01549  22495320.5344   22495325.5334
  22664196.470     4781427.00749   3728250.54249  22664195.6344   22664201.8314
  21250892.280     -878366.08849   -679647.58449  21250891.6344   21250896.6724
  21835806.419   -23089138.88949 -17845991.87149  21835805.7564   21835810.7504
  21048594.089   -20723858.17449 -16138763.57049  21048593.6924   21048597.3314
  22912708.759   -17868060.01949 -13678754.59649  22912707.4534   22912713.9534
 98  1 27 20 11 30.0020000  0  7 10 31 18 19 27 13  2
  24594250.906    -8759216.50249  -6815033.84149  24594248.7764   24594257.9454
  22502432.968   -18444280.88349 -14366146.12349  22502431.9714   22502437.2874
  22681861.569     4874257.51649   3800585.95049  22681861.0244   22681866.8644
  21253277.343     -865832.74849   -669881.34749  21253276.5734   21253281.7874
  21825871.228   -23141348.47949 -17886674.65349  21825870.2444   21825875.3804
  21044242.018   -20746728.28549 -16156584.43949  21044241.8154   21044245.1194
  22903248.939   -17917771.36349 -13717490.67049  22903247.9214   22903254.0834
 98  1 27 20 12  0.0020000  0  7 10 31 18 19 27 13  2
  24599333.780    -8732505.66649  -6794220.20649  24599331.9974   24599339.8444
  22509649.538   -18406357.45749 -14336595.40849  22509648.4254   22509653.7704
  22699586.410     4967402.01049   3873166.01849  22699585.8944   22699592.3574
  21255710.593     -853046.11349   -659917.73849  21255709.7184   21255714.9584
  21815965.335   -23193404.19949 -17927237.53649  21815964.6224   21815969.5804
  21039996.640   -20769037.80649 -16173968.48449  21039996.5144   21039999.9794
  22893830.931   -17967263.22749 -13756055.72349  22893829.7314   22893836.2364
 98  1 27 20 12 30.0020000  0  7 10 31 18 19 27 13  2
  24604500.043    -8705356.55549  -6773065.07049  24604497.8114   24604507.4164
  22516977.394   -18367849.20949 -14306588.99049  22516976.2524   22516981.6284
  22717375.733     5060884.98849   3946009.83249  22717375.1884   22717381.1984
  21258194.395     -839993.54949   -649746.91249  21258193.5594   21258198.6334
  21806095.962   -23245267.90049 -17967650.79749  21806095.2444   21806100.0754
  21035863.791   -20790756.02849 -16190891.78149  21035863.6354   21035866.9804
  22884461.479   -18016499.88749 -13794421.91149  22884460.1084   22884466.7374
 98  1 27 20 13  0.0020000  0  7 10 31 18 19 27 13  2
  24609772.211    -8677650.87349  -6751476.25949  24609770.7704   24609778.8304
  22524443.513   -18328614.45749 -14276016.46349  22524442.5234   22524447.7414
  22735249.343     5154811.33749   4019199.13649  22735248.4554   22735255.1484
  21260749.678     -826565.30449   -639283.34349  21260748.7804   21260754.0024
  21796287.164   -23296813.29349 -18007816.02049  21796286.2754   21796291.2654
  21031865.175   -20811768.99549 -16207265.52049  21031864.9134   21031868.4394
  22875162.997   -18065363.48849 -13832497.40449  22875161.7154   22875168.0574
 98  1 27 20 13 30.0020000  0  7 10 31 18 19 27 13  2
  24615128.788    -8649501.85949  -6729541.97549  24615127.4024   24615135.2464
  22532025.794   -18288769.41149 -14244968.37649  22532025.3234   22532029.9294
  22753181.529     5249045.24149   4092628.09149  22753180.9614   22753187.3804
  21263354.286     -812878.09749   -628617.98949  21263353.7964   21263358.7664
  21786513.639   -23348173.43249 -18047836.89249  21786512.8014   21786517.8794
  21027976.265   -20832205.50649 -16223190.07749  21027976.0654   21027979.5064
  22865910.688   -18113984.53149 -13870383.89249  22865909.4604   22865915.8554
 98  1 27 20 14  0.0020000  0  7 10 31 18 19 27 13  2
  24620558.678    -8620967.44249  -6707307.39449  24620557.4534   24620565.8664
  22539712.695   -18248374.45349 -14213491.79049  22539712.0924   22539717.1534
  22771159.550     5343520.24049   4166244.90249  22771158.7954   22771164.8244
  21265997.666     -798987.09749   -617793.83249  21265997.0974   21266002.2184
  21776764.029   -23399407.88049 -18087759.82649  21776763.1614   21776768.1604
  21024184.294   -20852132.59849 -16238717.68449  21024183.9904   21024187.5814
  22856693.577   -18162420.50349 -13908126.17049  22856692.4014   22856698.5054
 98  1 27 20 14 30.0020000  0  8  7 10 31 18 19 27 13  2
  25172252.378    -3917616.04249  -2761112.96149  25172252.1724   25172260.9824
  24626065.168    -8592031.00449  -6684759.55249  24626063.2914   24626071.0194
  22547510.502   -18207397.08749 -14181561.38349  22547509.5744   22547514.5194
  22789190.474     5438273.19249   4240078.30949  22789190.0224   22789196.0144
  21268685.262     -784863.80549   -606788.67149  21268684.4964   21268689.4444
  21767040.386   -23450505.97349 -18127576.50849  21767039.6024   21767044.4674
  21020490.721   -20871542.32149 -16253842.14849  21020490.4574   21020493.8964
  22847517.954   -18210638.75949 -13945698.80349  22847516.7734   22847522.7394
 98  1 27 20 15  0.0020000  0  8  7 10 31 18 19 27 13  2
  25151777.258    -4025214.03649  -2844955.37949  25151776.0484   25151786.0524
  24631652.888    -8562667.47349  -6661878.89749  24631652.1124   24631658.9684
  22555418.863   -18165838.06649 -14149177.73449  22555417.7694   22555422.6044
  22807275.388     5533310.02249   4314132.91649  22807274.8524   22807280.9754
  21271422.314     -770480.44949   -595580.86049  21271421.4514   21271426.5754
  21757342.304   -23501469.68749 -18167288.48249  21757341.5564   21757346.6854
  21016896.889   -20890428.17249 -16268558.39849  21016896.6654   21016900.0894
  22838387.647   -18258618.67949 -13983085.71949  22838386.7444   22838392.8144
 98  1 27 20 15 30.0020000  0  8  7 10 31 18 19 27 13  2
  25131299.440    -4132825.48749  -2928808.28649  25131298.3044   25131307.1744
  24637322.350    -8532874.62349  -6638663.69849  24637320.9484   24637328.7594
  22563436.747   -18123703.87849 -14116345.90249  22563435.8084   22563441.0404
  22825418.313     5628651.27649   4388424.74149  22825417.8124   22825423.7374
  21274212.521     -755817.84649   -584155.45349  21274211.6504   21274216.9484
  21747673.794   -23552277.98449 -18206879.34749  21747672.9794   21747677.9704
  21013405.983   -20908772.97349 -16282853.04749  21013405.6124   21013409.1654
  22829308.133   -18306331.65049 -14020264.62649  22829307.1404   22829313.3814
 98  1 27 20 16  0.0020000  0  8  7 10 31 18 19 27 13  2
  25110821.713    -4240435.58849  -3012660.14549  25110819.7814   25110830.0574
  24643072.984    -8502654.35349  -6615115.46349  24643071.2374   24643079.7104
  22571563.573   -18080997.39449 -14083068.13449  22571562.3734   22571567.3814
  22843620.899     5724306.31249   4462961.06549  22843620.3114   22843626.1164
  21277054.946     -740880.75549   -572516.16149  21277054.4024   21277059.3634
  21738038.331   -23602912.59149 -18246334.87249  21738037.5004   21738042.5514
  21010018.785   -20926572.71849 -16296722.98449  21010018.4074   21010021.9034
  22820281.339   -18353767.69349 -14057227.74549  22820280.2694   22820286.4294
 98  1 27 20 16 30.0020000  0  8  7 10 31 18 19 27 13  2
  25090361.190    -4347955.89549  -3096442.03349  25090359.7854   25090369.3484
  24648917.626    -8471940.76549  -6591182.81049  24648915.6314   24648923.3614
  22579811.285   -18037655.23449 -14049295.03849  22579810.2034   22579815.6334
  22861895.307     5820338.92549   4537791.60149  22861894.7304   22861900.1064
  21279963.060     -725598.69949   -560608.06749  21279962.3294   21279967.2914
  21728446.780   -23653316.50749 -18285610.63749  21728445.9704   21728450.8504
  21006748.627   -20943757.37749 -16310113.62949  21006748.5114   21006751.8344
  22811319.245   -18400863.87549 -14093926.04049  22811318.0634   22811323.9714
 98  1 27 20 17  0.0020000  0  8  7 10 31 18 19 27 13  2
  25069908.734    -4455434.09449  -3180191.10749  25069907.5244   25069916.3084
  24654846.751    -8440782.61849  -6566903.76649  24654845.0764   24654853.4204
  22588168.912   -17993735.69349 -14015072.03249  22588167.8774   22588173.1534
  22880229.075     5916683.13449   4612864.94249  22880228.6274   22880234.4434
  21282928.904     -710012.99149   -548463.36549  21282928.1754   21282933.2034
  21718892.353   -23703525.53749 -18324734.54549  21718891.5844   21718896.5034
  21003589.124   -20960360.83949 -16323051.39849  21003588.9084   21003592.2924
  22802410.041   -18447682.07949 -14130407.73249  22802408.8614   22802415.0164
 98  1 27 20 17 30.0020000  0  8  7 10 31 18 19 27 13  2
  25049424.588    -4563078.28649  -3264069.53349  25049423.1854   25049432.3444
  24660821.470    -8409385.03549  -6542438.12749  24660820.2094   24660827.6114
  22596599.124   -17949434.83449 -13980551.89849  22596598.4604   22596603.4334
  22898586.541     6013152.05249   4688035.46349  22898585.7594   22898592.0064
  21285913.908     -694326.65549   -536240.24749  21285913.2394   21285918.3684
  21709339.947   -23753723.84849 -18363850.09349  21709339.2374   21709344.1444
  21000503.591   -20976575.46249 -16335686.17149  21000503.2344   21000506.9034
  22793514.107   -18494430.50249 -14166835.04649  22793513.0294   22793519.3084
 98  1 27 20 18  0.0020000  0  8  7 10 31 18 19 27 13  2
  25028960.869    -4670615.46149  -3347864.56749  25028959.5324   25028969.1494
  24666896.774    -8377459.31049  -6517560.97249  24666895.2344   24666902.5424
  22605155.640   -17904470.32349 -13945514.63249  22605154.7774   22605159.8624
  22917019.488     6110017.80049   4763515.19549  22917018.6484   22917024.7864
  21288970.159     -678265.83849   -523725.33149  21288969.2934   21288974.6084
  21699839.901   -23803646.86649 -18402751.12749  21699838.8144   21699844.1254
  20997544.818   -20992123.95249 -16347801.87849  20997544.5824   20997548.0884
  22784682.632   -18540840.31349 -14202998.51149  22784681.5034   22784687.4174
 98  1 27 20 18 30.0020000  0  8  7 10 31 18 19 27 13  2
  25008490.411    -4778188.00649  -3431687.16449  25008488.8934   25008498.5774
  24673043.850    -8345156.76449  -6492390.18849  24673043.3184   24673050.4804
  22613811.549   -17858982.79049 -13910069.82049  22613810.4454   22613815.3844
  22935500.107     6207133.96849   4839190.06749  22935499.6244   22935505.1574
  21292071.853     -661966.13249   -511024.26749  21292071.1264   21292076.1864
  21690362.820   -23853449.20249 -18441558.13049  21690361.7754   21690366.9894
  20994684.919   -21007152.71249 -16359512.60449  20994684.6524   20994688.0134
  22775888.646   -18587052.80249 -14239008.21749  22775887.2114   22775893.5364
 98  1 27 20 19  0.0020000  0  8  7 10 31 18 19 27 13  2
  24988026.500    -4885726.21449  -3515483.01849  24988024.1314   24988033.5344
  24679278.571    -8312393.47849  -6466860.37749  24679276.9924   24679285.5644
  22622582.004   -17812893.59749 -13874156.18249  22622581.1434   22622586.3914
  22954043.832     6304581.58549   4915123.20549  22954043.4664   22954049.1124
  21295235.979     -645338.55649   -498067.71949  21295235.2254   21295240.3764
  21680928.455   -23903027.02549 -18480190.18149  21680927.5464   21680932.5394
  20991938.105   -21021587.37649 -16370760.39349  20991937.7744   20991941.2134
  22767151.250   -18632967.57649 -14274785.94049  22767149.7304   22767156.1574
 98  1 27 20 19 30.0020000  0  8  7 10 31 18 19 27 13  2
  24967565.779    -4993247.54549  -3599265.72949  24967565.7244   24967573.6014
  24685595.623    -8279197.18749  -6440993.17149  24685594.6084   24685602.2764
  22631463.097   -17766222.89549 -13837789.42549  22631461.9554   22631467.8184
  22972644.628     6402328.85749   4991289.84849  22972643.9704   22972650.1554
  21298455.245     -628421.11349   -484885.30149  21298454.3074   21298459.5384
  21671529.010   -23952421.22549 -18518679.14949  21671528.2134   21671533.1374
  20989296.300   -21035470.10749 -16381578.10249  20989296.0634   20989299.3484
  22758466.717   -18678604.93749 -14310347.49349  22758465.5824   22758471.7594
 98  1 27 20 20  0.0020000  0  8  7 10 31 18 19 27 13  2
  24947086.805    -5100865.10249  -3683123.43149  24947085.3724   24947094.7924
  24691967.783    -8245711.38549  -6414900.37349  24691966.0984   24691975.4514
  22640429.435   -17719104.36749 -13801073.71349  22640428.5674   22640433.4024
  22991274.384     6500228.56049   5067575.26749  22991274.0024   22991280.0664
  21301706.515     -611335.45949   -471571.80949  21301705.9764   21301711.0644
  21662136.773   -24001777.80849 -18557138.80849  21662135.9854   21662140.9364
  20986733.371   -21048938.24449 -16392072.75249  20986733.1674   20986736.7004
  22749809.411   -18724099.06249 -14345797.43849  22749807.9664   22749814.4324
 98  1 27 20 20 30.0020000  0  8  7 10 31 18 19 27 13  2
  24926617.867    -5208429.64549  -3766939.78849  24926616.4434   24926625.5754
  24698416.648    -8211822.92449  -6388493.82249  24698414.6634   24698424.3544
  22649506.681   -17671403.20349 -13763903.98649  22649505.8034   22649510.8354
  23009958.094     6598411.73849   5144081.57649  23009957.8184   23009963.5414
  21305017.008     -593938.65949   -458015.87149  21305016.4044   21305021.5454
  21652778.877   -24050953.81349 -18595457.75549  21652777.9944   21652782.9334
  20984276.140   -21061851.16649 -16402134.76449  20984275.9784   20984279.3074
  22741202.971   -18769325.89349 -14381039.09849  22741201.7944   22741208.0244
 98  1 27 20 21  0.0020000  0  8  7 10 31 18 19 27 13  2
  24906157.418    -5315949.48049  -3850721.29449  24906155.3974   24906166.0084
  24704941.570    -8177534.01249  -6361775.21449  24704939.6464   24704947.5314
  22658692.044   -17623134.07349 -13726291.69049  22658691.3244   22658696.2014
  23028691.034     6696853.46449   5220789.34849  23028690.8594   23028696.7074
  21308382.842     -576251.15749   -444233.40749  21308382.1744   21308387.4224
  21643455.406   -24099948.81949 -18633635.66149  21643454.6884   21643459.5234
  20981926.443   -21074199.07149 -16411756.50549  20981926.2054   20981929.5164
  22732643.065   -18814308.45849 -14416090.41849  22732641.8504   22732648.1754
 98  1 27 20 21 30.0020000  0  8  7 10 31 18 19 27 13  2
  24885732.562    -5423281.98149  -3934356.81449  24885731.8564   24885739.1964
  24711567.130    -8142716.84549  -6334644.98049  24711565.1794   24711573.2164
  22668011.878   -17574158.04949 -13688128.56549  22668011.2424   22668016.0664
  23047500.337     6795696.40749   5297809.75749  23047500.4374   23047506.0494
  21311829.437     -558139.21649   -430120.21349  21311828.7684   21311833.8334
  21634190.244   -24148637.53249 -18671574.89949  21634189.3324   21634194.4524
  20979714.558   -21085822.54349 -16420813.75449  20979714.3964   20979717.6824
  22724152.249   -18858927.87849 -14450858.76849  22724151.1584   22724157.1194
 98  1 27 20 22  0.0020000  0  8  7 10 31 18 19 27 13  2
  24865330.324    -5530495.25149  -4017899.44249  24865328.7614   24865339.0524
  24718280.599    -8107437.21849  -6307154.39049  24718278.7624   24718287.3374
  22677453.672   -17524541.35349 -13649466.21849  22677452.5464   22677457.8074
  23066375.248     6894884.27949   5375098.93549  23066375.4314   23066380.3264
  21315348.207     -539647.99549   -415711.48049  21315347.6424   21315352.8414
  21624976.944   -24197053.58749 -18709301.67949  21624975.9014   21624981.1904
  20977630.563   -21096774.20349 -16429347.51849  20977630.4194   20977633.8114
  22715717.708   -18903251.91149 -14485396.94849  22715716.6474   22715722.8304
 98  1 27 20 22 30.0020000  0  8  7 10 31 18 19 27 13  2
  24844937.279    -5637660.28949  -4101404.50449  24844936.0394   24844945.1554
  24725077.242    -8071720.34849  -6279323.09549  24725075.5064   24725083.6344
  22687008.104   -17474332.40749 -13610342.37949  22687007.0824   22687012.2904
  23085307.393     6994372.99149   5452622.53249  23085306.9354   23085312.4234
  21318927.237     -520840.15749   -401056.03149  21318926.5644   21318931.7154
  21615812.239   -24245214.19449 -18746829.41349  21615811.6054   21615816.3664
  20975665.863   -21107098.78449 -16437392.64849  20975665.5794   20975668.9574
  22707329.289   -18947333.33749 -14519746.08449  22707328.1844   22707334.7034
 98  1 27 20 23  0.0020000  0  8  7 10 31 18 19 27 13  2
  24824543.314    -5744830.76449  -4184913.82449  24824541.7574   24824549.9804
  24731952.893    -8035588.61849  -6251168.53849  24731952.0864   24731960.2284
  22696664.260   -17423589.22549 -13570802.24549  22696663.2174   22696668.1164
  23104289.063     7094122.17549   5530349.09849  23104288.3544   23104294.3574
  21322557.203     -501764.69549   -386192.04249  21322556.4514   21322561.7904
  21606689.568   -24293154.28349 -18784185.31149  21606688.7114   21606693.7294
  20973809.720   -21116852.83249 -16444993.20549  20973809.4144   20973812.8344
  22698979.638   -18991210.92749 -14553936.38149  22698978.4844   22698984.5194
 98  1 27 20 23 30.0020000  0  8  7 10 31 18 19 27 13  2
  24804159.376    -5851948.64649  -4268382.18649  24804158.0594   24804167.2234
  24738915.083    -7999002.62949  -6222660.02249  24738912.6074   24738921.6164
  22706429.131   -17372274.37049 -13530816.65449  22706428.0874   22706433.2314
  23123329.670     7194181.24249   5608317.13049  23123329.3724   23123335.1264
  21326247.222     -482373.77549   -371082.24249  21326246.5374   21326251.7194
  21597615.562   -24340838.61349 -18821341.91849  21597614.5934   21597619.5144
  20972066.675   -21126012.69749 -16452130.76449  20972066.3014   20972069.8974
  22690677.707   -19034837.80349 -14587931.31949  22690676.4824   22690682.4384
 98  1 27 20 24  0.0020000  0  8  7 10 31 18 19 27 13  2
  24783777.443    -5959056.33249  -4351842.60349  24783776.1894   24783784.3764
  24745955.883    -7962003.08849  -6193829.25349  24745954.8824   24745962.7054
  22716294.442   -17320431.96649 -13490419.98849  22716293.1774   22716298.9294
  23142419.550     7294498.94649   5686486.69849  23142418.9574   23142425.2234
  21329986.919     -462721.65249   -355768.90949  21329986.0884   21329991.3944
  21588582.435   -24388307.98849 -18858331.03149  21588581.6064   21588586.5304
  20970426.500   -21134631.74749 -16458846.91449  20970426.2864   20970429.6524
  22682417.064   -19078247.68549 -14621757.17749  22682415.9104   22682422.0794
 98  1 27 20 24 30.0020000  0  8  7 10 31 18 19 27 13  2
  24763376.488    -6066263.80449  -4435380.78349  24763375.2524   24763384.1304
  24753054.818    -7924698.21349  -6164760.56949  24753054.2974   24753062.0594
  22726237.150   -17268182.68749 -13449706.27849  22726235.9744   22726241.2634
  23161535.944     7394956.39149   5764765.15449  23161535.1634   23161541.6364
  21333752.222     -442934.67049   -340350.49349  21333751.4214   21333756.7314
  21579563.122   -24435704.86349 -18895263.65049  21579562.3204   21579567.2444
  20968870.571   -21142808.23449 -16465218.21249  20968870.2434   20968873.6484
  22674178.842   -19121539.83149 -14655491.28949  22674177.5834   22674183.7094
 98  1 27 20 25  0.0020000  0  8  7 10 31 18 19 27 13  2
  24743003.246    -6173325.38549  -4518805.27649  24743001.3274   24743010.1984
  24760249.517    -7886889.98549  -6135299.64849  24760248.5374   24760256.1134
  22736299.375   -17215305.24049 -13408503.08149  22736298.4484   22736303.5824
  23180719.601     7495767.07749   5843318.86649  23180718.7624   23180725.1854
  21337586.997     -422782.82349   -324647.76349  21337586.3964   21337591.3324
  21570593.264   -24482841.73449 -18931993.66549  21570592.2904   21570597.2984
  20967441.684   -21150317.07749 -16471069.26449  20967441.6424   20967444.8494
  22666009.772   -19164468.37649 -14688942.07549  22666008.4494   22666014.6584
 98  1 27 20 25 30.0020000  0  8  7 10 31 18 19 27 13  2
  24722640.716    -6280330.59049  -4602185.84649  24722639.0034   24722648.2944
  24767517.760    -7848695.11149  -6105537.45649  24767516.5254   24767524.9174
  22746467.801   -17161869.83249 -13366865.11649  22746466.7494   22746472.4464
  23199952.106     7596834.42449   5922072.56949  23199950.9584   23199957.6324
  21341473.380     -402359.84349   -308733.76749  21341472.6964   21341477.9584
  21561652.525   -24529825.56649 -18968604.43249  21561651.6994   21561656.6554
  20966127.146   -21157225.17449 -16476452.20549  20966126.8124   20966130.3494
  22657894.463   -19207114.59849 -14722172.87149  22657893.3374   22657899.2374
 98  1 27 20 26  0.0020000  0  8  7 10 31 18 19 27 13  2
  24702287.861    -6387285.10749  -4685526.93349  24702286.4234   24702295.7384
  24774861.168    -7810105.18149  -6075467.42949  24774860.3014   24774867.8214
  22756747.021   -17107852.35049 -13324773.58049  22756746.0934   22756751.0874
  23219237.280     7698178.70349   6001042.07649  23219237.3864   23219242.7974
  21345415.939     -381641.58049   -292589.67649  21345415.1774   21345420.4024
  21552744.729   -24576636.44549 -19005080.43149  21552743.8464   21552748.8174
  20964929.305   -21163520.00349 -16481357.27849  20964929.0224   20964932.4914
  22649834.799   -19249468.15749 -14755175.61649  22649833.4774   22649839.3124
 98  1 27 20 26 30.0020000  0  8  7 10 31 18 19 27 13  2
  24681968.674    -6494062.74749  -4768730.18349  24681967.3604   24681975.8344
  24782299.838    -7771015.30549  -6045007.83049  24782298.8424   24782305.9334
  22767157.099   -17053147.08449 -13282146.11349  22767156.1164   22767161.3264
  23238594.294     7799900.25649   6080305.54249  23238593.9064   23238600.2184
  21349439.355     -360498.41149   -276114.49249  21349438.6314   21349443.7754
  21543891.818   -24623158.73649 -19041331.55649  21543891.0054   21543895.7944
  20963868.604   -21169094.00049 -16485700.65949  20963868.1764   20963871.7654
  22641850.886   -19291423.87849 -14787868.35949  22641849.6444   22641855.5894
 98  1 27 20 27  0.0020000  0  8  7 10 31 18 19 27 13  2
  24661649.524    -6600840.28349  -4851933.38149  24661648.5364   24661657.2094
  24789796.236    -7731621.68049  -6014311.53649  24789794.8824   24789804.1654
  22777664.233   -16997931.85849 -13239121.27149  22777663.5424   22777668.9214
  23257988.828     7901819.18449   6159722.81549  23257988.0204   23257994.4364
  21353509.599     -339109.02849   -259447.44849  21353508.8234   21353513.7744
  21535064.435   -24669546.84349 -19077478.11949  21535063.5864   21535068.3664
  20962908.628   -21174138.56849 -16489631.50149  20962908.3014   20962911.8364
  22633905.751   -19333175.61049 -14820402.15149  22633904.5744   22633910.5864
 98  1 27 20 27 30.0020000  0  8  7 10 31 18 19 27 13  2
  24641357.841    -6707473.44049  -4935024.07649  24641356.0344   24641363.9674
  24797379.811    -7691769.96549  -5983258.31049  24797378.3124   24797387.1514
  22788295.378   -16942064.90749 -13195588.59049  22788294.2724   22788299.3624
  23277450.967     8004092.94149   6239416.58149  23277450.6364   23277456.4064
  21357656.124     -317319.00149   -242468.21549  21357655.4934   21357660.3974
  21526296.346   -24715623.48349 -19113381.97949  21526295.4964   21526300.3744
  20962075.744   -21178515.51449 -16493042.11749  20962075.4774   20962079.0634
  22626021.375   -19374608.16449 -14852687.23249  22626020.4824   22626026.1244
 98  1 27 20 28  0.0020000  0  8  7 10 31 18 19 27 13  2
  24621046.924    -6814207.27149  -5018193.18049  24621045.9654   24621052.7634
  24805002.123    -7651714.73649  -5952046.48049  24805000.3264   24805010.0904
  22798996.252   -16885831.59649 -13151770.43149  22798995.4244   22799000.4154
  23296928.970     8106450.31549   6319175.50749  23296928.4524   23296935.0504
  21361830.689     -295381.52749   -225374.09249  21361829.9534   21361835.1084
  21517541.059   -24761632.92649 -19149233.47749  21517540.2374   21517545.0524
  20961316.559   -21182505.12549 -16496150.91449  20961316.2534   20961319.9504
  22618145.793   -19415994.75749 -14884936.50149  22618144.7844   22618150.4694
 98  1 27 20 28 30.0020000  0  8  7 10 31 18 19 27 13  2
  24600752.823    -6920852.32049  -5101293.09349  24600751.3344   24600759.3854
  24812696.294    -7611282.24149  -5920540.68349  24812695.3384   24812703.9174
  22809797.750   -16829069.50849 -13107540.23649  22809796.7064   22809801.8424
  23316455.223     8209060.97649   6399131.79349  23316455.1044   23316461.2174
  21366063.368     -273138.82949   -208042.13149  21366062.6934   21366067.5684
  21508833.817   -24807389.63349 -19184888.04349  21508833.0054   21508837.7974
  20960667.836   -21185914.10949 -16498807.27349  20960667.5924   20960671.1384
  22610314.492   -19457148.38549 -14917004.24649  22610313.1564   22610319.1954
